GFSWCAN_prec_precacc24_132.txt.gz
Total_Precipitation_Accumulation
0.17 0.15 0.17 0.18 0.29 0.29 0.19 0.16 0.29 0.48 0.39 0.37 0.27 0.27 0.46 0.56 0.61 0.71 0.42 0.17 0.31 0.55 0.38 0.28 0.11 0.17 0.19 0.17 0.17 0.13 0.23 0.27 0.39 0.43 0.31 0.22 0.12 0.03 0.03 0.01 0.02 0.12 0.18 0.17 0.22 0.27 0.13 0.00 0.00 0.00 0.00 0.00 0.00 0.00
0.04 0.07 0.06 0.06 0.10 0.28 0.29 0.23 0.20 0.22 0.62 0.48 0.26 0.23 0.55 0.71 0.58 0.64 0.46 0.29 0.31 0.45 0.29 0.28 0.18 0.11 0.10 0.12 0.09 0.09 0.10 0.11 0.15 0.16 0.18 0.19 0.19 0.10 0.05 0.02 0.01 0.03 0.03 0.06 0.12 0.14 0.04 0.00 0.00 0.00 0.00 0.00 0.00 0.00
0.00 0.02 0.02 0.03 0.09 0.17 0.39 0.33 0.36 0.20 0.33 0.52 0.36 0.33 0.69 0.74 0.49 0.48 0.28 0.31 0.35 0.33 0.17 0.21 0.21 0.10 0.05 0.04 0.03 0.14 0.10 0.08 0.11 0.17 0.26 0.29 0.24 0.10 0.08 0.04 0.04 0.01 0.00 0.02 0.04 0.01 0.00 0.00 0.00 0.00 0.00 0.00 0.00 0.00
0.00 0.01 0.02 0.08 0.34 0.36 0.37 0.15 0.32 0.41 0.28 0.38 0.48 0.53 0.61 0.48 0.30 0.33 0.21 0.27 0.25 0.16 0.11 0.14 0.07 0.12 0.09 0.02 0.01 0.02 0.05 0.04 0.07 0.13 0.23 0.30 0.27 0.19 0.18 0.13 0.12 0.11 0.07 0.07 0.07 0.04 0.02 0.01 0.00 0.00 0.00 0.00 0.00 0.00
0.01 0.03 0.07 0.51 0.64 0.31 0.29 0.06 0.08 0.30 0.17 0.27 0.38 0.39 0.32 0.33 0.20 0.28 0.25 0.23 0.28 0.13 0.14 0.14 0.12 0.14 0.09 0.04 0.04 0.08 0.03 0.04 0.12 0.13 0.19 0.20 0.14 0.14 0.15 0.12 0.04 0.01 0.04 0.06 0.07 0.08 0.05 0.08 0.04 0.02 0.00 0.00 0.00 0.00
0.03 0.08 0.54 0.99 0.67 0.37 0.13 0.04 0.04 0.09 0.13 0.18 0.25 0.22 0.31 0.30 0.33 0.42 0.69 0.37 0.20 0.26 0.18 0.10 0.19 0.15 0.07 0.04 0.10 0.10 0.11 0.06 0.16 0.22 0.15 0.16 0.18 0.24 0.17 0.08 0.04 0.02 0.01 0.02 0.03 0.02 0.01 0.01 0.01 0.01 0.00 0.00 0.00 0.00
0.09 0.67 1.10 0.98 0.50 0.14 0.05 0.02 0.03 0.06 0.14 0.15 0.20 0.21 0.30 0.29 0.26 0.16 0.22 0.13 0.07 0.22 0.38 0.29 0.31 0.30 0.29 0.21 0.23 0.14 0.23 0.17 0.13 0.20 0.19 0.17 0.18 0.14 0.15 0.07 0.03 0.01 0.01 0.01 0.00 0.00 0.00 0.00 0.00 0.00 0.00 0.00 0.00 0.00
0.84 1.14 0.86 0.38 0.14 0.04 0.02 0.03 0.03 0.10 0.14 0.16 0.22 0.27 0.37 0.34 0.28 0.10 0.05 0.07 0.13 0.26 0.22 0.15 0.24 0.47 0.35 0.26 0.27 0.16 0.20 0.24 0.19 0.13 0.11 0.08 0.11 0.18 0.16 0.03 0.01 0.01 0.00 0.00 0.00 0.00 0.00 0.00 0.00 0.00 0.00 0.00 0.00 0.00
1.20 0.78 0.35 0.14 0.06 0.04 0.04 0.04 0.05 0.10 0.16 0.31 0.43 0.60 0.65 0.44 0.24 0.14 0.04 0.35 0.33 0.24 0.22 0.09 0.18 0.51 0.44 0.24 0.16 0.12 0.11 0.21 0.17 0.07 0.04 0.07 0.10 0.11 0.03 0.04 0.03 0.01 0.00 0.00 0.00 0.00 0.00 0.00 0.00 0.00 0.00 0.00 0.00 0.00
0.57 0.29 0.15 0.09 0.07 0.06 0.05 0.05 0.07 0.17 0.41 0.43 0.44 0.46 0.47 0.22 0.19 0.20 0.36 0.59 0.67 0.43 0.23 0.11 0.10 0.36 0.40 0.23 0.14 0.11 0.09 0.12 0.09 0.05 0.03 0.09 0.07 0.02 0.01 0.02 0.02 0.00 0.00 0.00 0.00 0.00 0.00 0.00 0.00 0.00 0.00 0.00 0.00 0.00
0.21 0.14 0.10 0.08 0.08 0.07 0.06 0.07 0.21 0.50 0.31 0.25 0.26 0.38 0.44 0.43 0.29 0.32 0.39 0.27 0.18 0.30 0.11 0.04 0.05 0.29 0.24 0.24 0.11 0.09 0.11 0.08 0.12 0.08 0.04 0.06 0.03 0.04 0.01 0.00 0.00 0.00 0.00 0.00 0.00 0.00 0.00 0.00 0.00 0.00 0.00 0.00 0.00 0.00
0.21 0.15 0.14 0.13 0.12 0.11 0.12 0.13 0.30 0.12 0.12 0.09 0.16 0.27 0.35 0.25 0.25 0.20 0.19 0.10 0.08 0.17 0.05 0.03 0.06 0.25 0.19 0.16 0.13 0.07 0.07 0.05 0.12 0.08 0.05 0.06 0.03 0.01 0.00 0.00 0.00 0.00 0.00 0.00 0.00 0.00 0.00 0.00 0.00 0.00 0.00 0.00 0.00 0.00
0.10 0.09 0.10 0.10 0.11 0.10 0.06 0.06 0.07 0.09 0.04 0.15 0.20 0.12 0.19 0.09 0.19 0.05 0.02 0.02 0.09 0.07 0.04 0.04 0.10 0.14 0.14 0.15 0.04 0.02 0.02 0.03 0.03 0.03 0.02 0.02 0.00 0.00 0.00 0.00 0.00 0.00 0.00 0.00 0.00 0.00 0.00 0.00 0.00 0.01 0.02 0.01 0.02 0.03
0.03 0.02 0.01 0.01 0.02 0.03 0.06 0.08 0.10 0.05 0.10 0.21 0.13 0.11 0.12 0.04 0.04 0.03 0.05 0.06 0.04 0.05 0.04 0.07 0.05 0.07 0.05 0.01 0.01 0.01 0.00 0.00 0.01 0.01 0.04 0.01 0.01 0.01 0.00 0.00 0.00 0.01 0.01 0.00 0.00 0.00 0.00 0.00 0.04 0.09 0.08 0.06 0.04 0.04
0.02 0.04 0.07 0.08 0.07 0.05 0.03 0.07 0.03 0.06 0.10 0.06 0.01 0.01 0.01 0.04 0.03 0.01 0.01 0.00 0.00 0.04 0.08 0.05 0.03 0.03 0.01 0.00 0.00 0.00 0.00 0.00 0.01 0.08 0.06 0.00 0.01 0.02 0.01 0.01 0.01 0.01 0.01 0.00 0.00 0.00 0.01 0.02 0.05 0.13 0.17 0.13 0.10 0.10
0.02 0.03 0.05 0.04 0.02 0.02 0.02 0.02 0.03 0.05 0.01 0.00 0.01 0.03 0.04 0.06 0.07 0.03 0.01 0.00 0.01 0.04 0.06 0.03 0.01 0.01 0.00 0.00 0.00 0.00 0.00 0.02 0.03 0.01 0.01 0.01 0.02 0.03 0.01 0.01 0.01 0.00 0.00 0.01 0.01 0.03 0.07 0.08 0.08 0.12 0.17 0.19 0.17 0.11
0.00 0.01 0.00 0.00 0.00 0.00 0.00 0.02 0.03 0.01 0.00 0.01 0.06 0.09 0.06 0.09 0.12 0.08 0.02 0.01 0.01 0.07 0.03 0.00 0.00 0.00 0.00 0.00 0.00 0.00 0.01 0.02 0.02 0.02 0.02 0.01 0.01 0.02 0.03 0.02 0.02 0.01 0.02 0.03 0.04 0.08 0.13 0.14 0.12 0.11 0.12 0.15 0.15 0.15
0.01 0.00 0.00 0.00 0.00 0.00 0.00 0.00 0.00 0.00 0.02 0.06 0.09 0.09 0.05 0.09 0.09 0.04 0.00 0.00 0.06 0.05 0.01 0.00 0.00 0.00 0.00 0.01 0.03 0.01 0.01 0.02 0.02 0.02 0.02 0.03 0.02 0.05 0.06 0.04 0.05 0.04 0.03 0.03 0.04 0.05 0.08 0.09 0.08 0.07 0.08 0.08 0.09 0.12
0.00 0.00 0.00 0.00 0.00 0.00 0.00 0.00 0.00 0.01 0.05 0.04 0.06 0.05 0.05 0.05 0.02 0.00 0.00 0.00 0.02 0.01 0.00 0.00 0.00 0.01 0.02 0.02 0.01 0.01 0.01 0.01 0.02 0.02 0.02 0.03 0.02 0.03 0.04 0.03 0.04 0.04 0.04 0.04 0.03 0.04 0.06 0.07 0.07 0.07 0.06 0.05 0.05 0.05
0.00 0.00 0.00 0.00 0.00 0.00 0.00 0.00 0.00 0.00 0.01 0.01 0.01 0.01 0.02 0.02 0.01 0.00 0.00 0.00 0.00 0.00 0.00 0.00 0.01 0.01 0.01 0.01 0.00 0.01 0.01 0.01 0.00 0.02 0.03 0.04 0.03 0.03 0.03 0.02 0.02 0.02 0.04 0.06 0.06 0.06 0.05 0.06 0.07 0.06 0.07 0.06 0.05 0.05
0.00 0.00 0.00 0.00 0.00 0.00 0.00 0.00 0.00 0.00 0.00 0.00 0.00 0.00 0.00 0.00 0.00 0.01 0.01 0.00 0.00 0.01 0.01 0.01 0.01 0.02 0.01 0.00 0.00 0.00 0.00 0.00 0.00 0.00 0.01 0.02 0.02 0.01 0.02 0.02 0.01 0.01 0.01 0.02 0.04 0.05 0.06 0.04 0.03 0.04 0.05 0.07 0.08 0.07
0.00 0.00 0.00 0.00 0.00 0.00 0.00 0.00 0.00 0.00 0.00 0.00 0.00 0.00 0.01 0.01 0.01 0.01 0.00 0.00 0.01 0.01 0.00 0.00 0.01 0.01 0.00 0.00 0.00 0.00 0.00 0.00 0.00 0.00 0.00 0.00 0.01 0.01 0.02 0.01 0.01 0.01 0.01 0.01 0.01 0.01 0.03 0.05 0.04 0.05 0.06 0.08 0.07 0.07
0.00 0.00 0.00 0.00 0.00 0.00 0.00 0.00 0.00 0.00 0.00 0.00 0.00 0.00 0.00 0.01 0.00 0.00 0.00 0.00 0.01 0.00 0.00 0.00 0.00 0.02 0.01 0.00 0.00 0.00 0.00 0.00 0.00 0.00 0.00 0.00 0.00 0.00 0.00 0.00 0.00 0.01 0.01 0.01 0.00 0.01 0.02 0.02 0.02 0.05 0.06 0.07 0.08 0.09
0.00 0.00 0.00 0.00 0.00 0.00 0.00 0.00 0.00 0.00 0.00 0.00 0.01 0.00 0.00 0.00 0.00 0.00 0.01 0.02 0.01 0.00 0.00 0.00 0.00 0.03 0.03 0.02 0.01 0.00 0.00 0.00 0.00 0.00 0.00 0.00 0.00 0.00 0.00 0.00 0.00 0.00 0.00 0.00 0.00 0.02 0.02 0.02 0.01 0.03 0.04 0.04 0.06 0.05
0.00 0.00 0.00 0.00 0.00 0.00 0.00 0.00 0.00 0.00 0.00 0.01 0.00 0.01 0.00 0.00 0.00 0.00 0.01 0.02 0.00 0.01 0.00 0.00 0.00 0.01 0.01 0.02 0.02 0.01 0.00 0.00 0.00 0.00 0.00 0.00 0.00 0.01 0.01 0.01 0.00 0.00 0.00 0.01 0.02 0.03 0.04 0.03 0.02 0.03 0.03 0.04 0.04 0.05
0.00 0.00 0.00 0.00 0.00 0.00 0.01 0.00 0.00 0.00 0.01 0.01 0.01 0.01 0.00 0.00 0.00 0.00 0.02 0.01 0.01 0.01 0.01 0.01 0.01 0.01 0.02 0.02 0.01 0.01 0.00 0.00 0.00 0.00 0.00 0.00 0.00 0.00 0.01 0.02 0.03 0.04 0.01 0.00 0.01 0.01 0.03 0.03 0.03 0.03 0.04 0.05 0.05 0.05
0.00 0.00 0.00 0.00 0.00 0.00 0.00 0.01 0.01 0.01 0.01 0.01 0.01 0.01 0.01 0.00 0.01 0.01 0.01 0.00 0.00 0.01 0.01 0.00 0.00 0.01 0.01 0.02 0.01 0.01 0.01 0.01 0.01 0.00 0.00 0.00 0.00 0.00 0.00 0.00 0.01 0.00 0.00 0.01 0.00 0.00 0.01 0.02 0.03 0.04 0.05 0.06 0.05 0.05
0.00 0.00 0.00 0.00 0.00 0.00 0.01 0.01 0.01 0.01 0.01 0.01 0.00 0.00 0.00 0.01 0.05 0.02 0.01 0.00 0.00 0.00 0.00 0.01 0.00 0.00 0.00 0.01 0.01 0.01 0.02 0.02 0.02 0.01 0.01 0.03 0.03 0.02 0.00 0.00 0.00 0.00 0.00 0.00 0.00 0.00 0.00 0.01 0.02 0.03 0.04 0.04 0.06 0.06
0.00 0.00 0.00 0.00 0.00 0.00 0.01 0.02 0.04 0.02 0.02 0.02 0.01 0.01 0.01 0.01 0.02 0.02 0.01 0.00 0.00 0.00 0.00 0.01 0.02 0.02 0.02 0.02 0.01 0.01 0.01 0.01 0.02 0.03 0.02 0.02 0.03 0.04 0.03 0.01 0.01 0.01 0.02 0.04 0.06 0.03 0.02 0.02 0.02 0.03 0.04 0.06 0.07 0.09
0.01 0.00 0.00 0.00 0.00 0.01 0.02 0.01 0.03 0.03 0.02 0.02 0.02 0.02 0.01 0.02 0.02 0.02 0.01 0.01 0.01 0.01 0.01 0.01 0.01 0.02 0.02 0.02 0.02 0.02 0.01 0.01 0.02 0.01 0.01 0.01 0.01 0.01 0.04 0.03 0.02 0.02 0.03 0.05 0.09 0.14 0.11 0.09 0.10 0.11 0.10 0.10 0.09 0.08
0.01 0.00 0.00 0.01 0.01 0.01 0.01 0.01 0.02 0.02 0.02 0.03 0.04 0.04 0.04 0.03 0.02 0.02 0.01 0.01 0.01 0.01 0.01 0.02 0.02 0.02 0.02 0.02 0.02 0.01 0.02 0.01 0.01 0.00 0.01 0.00 0.00 0.01 0.02 0.02 0.02 0.02 0.02 0.02 0.03 0.03 0.04 0.05 0.05 0.05 0.04 0.04 0.03 0.02
0.01 0.01 0.01 0.01 0.03 0.02 0.01 0.02 0.02 0.02 0.02 0.02 0.02 0.03 0.04 0.04 0.02 0.01 0.01 0.02 0.02 0.03 0.03 0.02 0.02 0.01 0.01 0.01 0.00 0.00 0.00 0.00 0.00 0.00 0.00 0.00 0.00 0.01 0.01 0.03 0.03 0.02 0.02 0.03 0.04 0.04 0.03 0.02 0.03 0.02 0.02 0.03 0.03 0.03
0.02 0.03 0.03 0.04 0.03 0.02 0.02 0.02 0.02 0.02 0.01 0.01 0.01 0.02 0.03 0.04 0.03 0.02 0.01 0.02 0.02 0.03 0.03 0.04 0.03 0.03 0.02 0.01 0.02 0.01 0.01 0.01 0.00 0.00 0.01 0.01 0.01 0.02 0.01 0.02 0.03 0.03 0.03 0.04 0.05 0.05 0.05 0.04 0.04 0.04 0.04 0.04 0.04 0.04

GFSWCAN_prec_precacc24_135.txt.gz
Total_Precipitation_Accumulation
0.18 0.17 0.16 0.20 0.34 0.32 0.18 0.14 0.28 0.47 0.38 0.36 0.25 0.21 0.37 0.50 0.58 0.71 0.41 0.19 0.31 0.46 0.18 0.29 0.26 0.25 0.17 0.18 0.21 0.25 0.38 0.32 0.40 0.44 0.30 0.21 0.10 0.03 0.02 0.01 0.03 0.15 0.26 0.21 0.24 0.30 0.14 0.00 0.00 0.01 0.00 0.00 0.00 0.00
0.08 0.09 0.07 0.05 0.09 0.27 0.25 0.17 0.17 0.21 0.62 0.47 0.22 0.18 0.50 0.71 0.58 0.67 0.47 0.30 0.29 0.39 0.34 0.32 0.23 0.17 0.12 0.15 0.17 0.16 0.15 0.14 0.15 0.16 0.17 0.19 0.18 0.10 0.04 0.02 0.01 0.02 0.03 0.08 0.17 0.16 0.05 0.00 0.00 0.00 0.00 0.00 0.00 0.00
0.01 0.01 0.01 0.02 0.02 0.05 0.16 0.19 0.29 0.17 0.30 0.51 0.34 0.31 0.69 0.78 0.58 0.61 0.35 0.33 0.40 0.55 0.34 0.33 0.31 0.12 0.09 0.15 0.09 0.22 0.16 0.10 0.12 0.17 0.26 0.29 0.24 0.10 0.08 0.04 0.04 0.01 0.01 0.02 0.04 0.00 0.00 0.00 0.00 0.00 0.00 0.00 0.00 0.00
0.00 0.00 0.01 0.01 0.02 0.06 0.14 0.08 0.30 0.39 0.26 0.50 0.69 0.59 0.67 0.65 0.55 0.58 0.42 0.41 0.39 0.40 0.31 0.22 0.08 0.13 0.13 0.12 0.04 0.05 0.08 0.06 0.09 0.14 0.22 0.28 0.25 0.18 0.17 0.13 0.12 0.11 0.12 0.16 0.15 0.06 0.03 0.02 0.01 0.02 0.02 0.00 0.00 0.00
0.00 0.02 0.02 0.14 0.26 0.23 0.26 0.05 0.08 0.29 0.22 0.54 0.71 0.62 0.57 0.66 0.52 0.54 0.51 0.42 0.40 0.24 0.19 0.14 0.12 0.14 0.09 0.04 0.05 0.09 0.03 0.05 0.13 0.14 0.19 0.19 0.13 0.14 0.15 0.12 0.04 0.01 0.04 0.07 0.09 0.12 0.09 0.12 0.07 0.06 0.07 0.02 0.01 0.00
0.02 0.03 0.22 0.61 0.53 0.36 0.13 0.04 0.04 0.10 0.22 0.41 0.47 0.29 0.46 0.57 0.53 0.54 0.78 0.41 0.21 0.26 0.18 0.10 0.19 0.15 0.07 0.04 0.10 0.10 0.11 0.06 0.16 0.22 0.15 0.16 0.18 0.24 0.17 0.08 0.04 0.02 0.02 0.04 0.06 0.05 0.03 0.02 0.01 0.01 0.03 0.03 0.02 0.00
0.08 0.46 0.89 0.87 0.48 0.14 0.05 0.02 0.03 0.07 0.18 0.20 0.25 0.21 0.30 0.29 0.25 0.17 0.21 0.11 0.07 0.21 0.37 0.29 0.31 0.30 0.29 0.21 0.23 0.14 0.23 0.18 0.15 0.22 0.19 0.17 0.19 0.16 0.15 0.07 0.03 0.01 0.01 0.01 0.00 0.00 0.00 0.00 0.00 0.00 0.00 0.00 0.00 0.00
0.80 0.93 0.77 0.36 0.13 0.04 0.02 0.03 0.03 0.10 0.14 0.16 0.22 0.26 0.36 0.32 0.26 0.11 0.05 0.07 0.12 0.24 0.21 0.15 0.24 0.47 0.35 0.26 0.27 0.16 0.21 0.27 0.21 0.15 0.11 0.09 0.12 0.20 0.16 0.03 0.01 0.01 0.00 0.01 0.00 0.00 0.00 0.00 0.00 0.00 0.00 0.00 0.00 0.00
1.09 0.67 0.33 0.14 0.06 0.04 0.03 0.04 0.05 0.10 0.16 0.30 0.43 0.60 0.63 0.42 0.24 0.14 0.04 0.35 0.33 0.24 0.22 0.09 0.19 0.52 0.45 0.25 0.17 0.13 0.12 0.25 0.20 0.08 0.05 0.09 0.12 0.14 0.03 0.04 0.03 0.02 0.02 0.01 0.00 0.00 0.00 0.00 0.00 0.00 0.00 0.00 0.00 0.00
0.47 0.27 0.15 0.09 0.07 0.06 0.04 0.04 0.06 0.16 0.41 0.43 0.43 0.44 0.44 0.22 0.20 0.20 0.36 0.59 0.67 0.43 0.23 0.10 0.11 0.36 0.42 0.24 0.14 0.11 0.10 0.13 0.11 0.05 0.04 0.10 0.07 0.02 0.01 0.03 0.04 0.00 0.00 0.00 0.00 0.00 0.00 0.00 0.00 0.00 0.00 0.00 0.00 0.00
0.18 0.12 0.10 0.08 0.08 0.07 0.05 0.06 0.20 0.51 0.33 0.25 0.26 0.39 0.45 0.43 0.29 0.33 0.39 0.27 0.19 0.31 0.11 0.03 0.05 0.29 0.24 0.26 0.13 0.10 0.14 0.10 0.13 0.08 0.04 0.06 0.03 0.04 0.01 0.01 0.01 0.00 0.00 0.00 0.00 0.00 0.00 0.00 0.00 0.00 0.00 0.00 0.00 0.00
0.14 0.14 0.14 0.13 0.11 0.11 0.12 0.13 0.30 0.14 0.14 0.12 0.18 0.27 0.35 0.25 0.25 0.20 0.19 0.11 0.09 0.18 0.06 0.04 0.06 0.25 0.19 0.17 0.18 0.10 0.14 0.14 0.15 0.14 0.06 0.09 0.05 0.01 0.01 0.00 0.00 0.00 0.00 0.00 0.00 0.00 0.00 0.00 0.00 0.00 0.00 0.00 0.00 0.00
0.08 0.10 0.10 0.10 0.11 0.10 0.06 0.06 0.07 0.10 0.07 0.15 0.21 0.12 0.20 0.09 0.20 0.06 0.03 0.02 0.13 0.14 0.05 0.06 0.15 0.15 0.20 0.26 0.27 0.17 0.04 0.12 0.07 0.24 0.10 0.05 0.01 0.00 0.00 0.00 0.00 0.00 0.00 0.00 0.00 0.00 0.00 0.00 0.00 0.01 0.02 0.01 0.02 0.03
0.03 0.02 0.02 0.02 0.02 0.03 0.06 0.08 0.12 0.07 0.17 0.28 0.21 0.17 0.18 0.10 0.05 0.05 0.09 0.20 0.07 0.13 0.09 0.12 0.11 0.20 0.18 0.07 0.07 0.03 0.01 0.01 0.01 0.01 0.02 0.01 0.00 0.00 0.00 0.00 0.00 0.00 0.00 0.00 0.00 0.00 0.00 0.00 0.04 0.08 0.08 0.06 0.04 0.04
0.02 0.05 0.08 0.08 0.07 0.05 0.04 0.09 0.08 0.19 0.26 0.27 0.10 0.07 0.02 0.05 0.03 0.01 0.01 0.00 0.00 0.06 0.14 0.08 0.04 0.04 0.01 0.00 0.00 0.00 0.00 0.00 0.00 0.02 0.03 0.00 0.00 0.00 0.00 0.00 0.00 0.00 0.00 0.00 0.00 0.00 0.01 0.02 0.05 0.13 0.17 0.13 0.10 0.10
0.02 0.03 0.06 0.06 0.04 0.03 0.03 0.07 0.14 0.25 0.17 0.04 0.01 0.03 0.04 0.07 0.08 0.03 0.01 0.00 0.00 0.06 0.10 0.03 0.00 0.01 0.00 0.00 0.00 0.00 0.00 0.00 0.01 0.01 0.01 0.01 0.01 0.01 0.01 0.00 0.00 0.00 0.00 0.00 0.01 0.02 0.06 0.08 0.08 0.12 0.18 0.19 0.17 0.11
0.01 0.01 0.00 0.00 0.00 0.00 0.03 0.17 0.16 0.07 0.02 0.01 0.06 0.06 0.04 0.10 0.12 0.08 0.01 0.01 0.01 0.08 0.04 0.00 0.00 0.00 0.00 0.00 0.00 0.00 0.01 0.02 0.02 0.02 0.01 0.01 0.01 0.01 0.01 0.01 0.01 0.00 0.01 0.02 0.03 0.07 0.12 0.14 0.11 0.11 0.12 0.15 0.16 0.15
0.01 0.00 0.00 0.00 0.00 0.01 0.02 0.03 0.04 0.00 0.01 0.05 0.08 0.07 0.05 0.09 0.09 0.03 0.00 0.01 0.07 0.08 0.02 0.01 0.00 0.00 0.00 0.00 0.01 0.01 0.01 0.02 0.02 0.01 0.02 0.02 0.02 0.04 0.04 0.02 0.02 0.01 0.02 0.03 0.03 0.05 0.08 0.09 0.08 0.07 0.08 0.08 0.09 0.12
0.00 0.00 0.00 0.00 0.00 0.03 0.03 0.00 0.01 0.01 0.04 0.04 0.05 0.05 0.05 0.06 0.02 0.01 0.00 0.01 0.04 0.02 0.01 0.00 0.00 0.01 0.01 0.01 0.01 0.01 0.01 0.01 0.01 0.02 0.03 0.03 0.02 0.03 0.04 0.03 0.03 0.04 0.03 0.03 0.03 0.04 0.06 0.07 0.07 0.07 0.06 0.05 0.05 0.05
0.00 0.00 0.00 0.00 0.00 0.01 0.00 0.00 0.00 0.01 0.00 0.01 0.01 0.01 0.02 0.01 0.01 0.00 0.00 0.01 0.01 0.00 0.00 0.00 0.00 0.01 0.01 0.01 0.00 0.01 0.01 0.01 0.00 0.02 0.03 0.04 0.03 0.03 0.03 0.02 0.02 0.02 0.04 0.06 0.06 0.06 0.05 0.06 0.07 0.06 0.07 0.06 0.05 0.05
0.00 0.00 0.00 0.00 0.00 0.01 0.00 0.00 0.00 0.00 0.00 0.00 0.00 0.00 0.01 0.00 0.01 0.01 0.01 0.00 0.01 0.01 0.01 0.00 0.01 0.01 0.00 0.00 0.00 0.01 0.00 0.00 0.00 0.00 0.01 0.02 0.02 0.01 0.02 0.02 0.01 0.01 0.01 0.02 0.04 0.06 0.06 0.04 0.03 0.04 0.05 0.07 0.08 0.07
0.00 0.00 0.00 0.00 0.00 0.00 0.00 0.00 0.00 0.00 0.01 0.01 0.00 0.00 0.01 0.01 0.01 0.01 0.00 0.00 0.01 0.00 0.00 0.00 0.01 0.01 0.00 0.00 0.00 0.00 0.00 0.00 0.00 0.00 0.00 0.00 0.01 0.01 0.01 0.01 0.01 0.01 0.01 0.01 0.01 0.01 0.03 0.05 0.04 0.05 0.06 0.08 0.08 0.07
0.00 0.00 0.00 0.00 0.00 0.00 0.00 0.00 0.00 0.00 0.00 0.00 0.00 0.01 0.01 0.01 0.00 0.00 0.00 0.00 0.00 0.00 0.00 0.00 0.00 0.02 0.01 0.00 0.00 0.00 0.00 0.00 0.00 0.00 0.00 0.00 0.00 0.00 0.00 0.00 0.00 0.01 0.01 0.01 0.00 0.01 0.02 0.02 0.02 0.05 0.07 0.08 0.10 0.10
0.00 0.00 0.00 0.00 0.00 0.00 0.00 0.00 0.00 0.00 0.00 0.00 0.01 0.00 0.01 0.00 0.00 0.00 0.01 0.01 0.01 0.00 0.00 0.00 0.00 0.03 0.03 0.02 0.01 0.00 0.00 0.00 0.00 0.00 0.00 0.00 0.00 0.00 0.00 0.00 0.00 0.00 0.00 0.00 0.00 0.01 0.02 0.02 0.02 0.04 0.05 0.05 0.07 0.07
0.00 0.00 0.00 0.00 0.00 0.00 0.00 0.00 0.00 0.00 0.00 0.01 0.01 0.01 0.00 0.00 0.01 0.00 0.00 0.01 0.00 0.01 0.00 0.00 0.00 0.01 0.01 0.02 0.02 0.01 0.00 0.00 0.00 0.00 0.00 0.00 0.00 0.01 0.01 0.01 0.00 0.00 0.00 0.01 0.01 0.02 0.03 0.03 0.03 0.03 0.04 0.05 0.05 0.06
0.00 0.00 0.00 0.00 0.00 0.00 0.00 0.01 0.01 0.00 0.01 0.01 0.01 0.01 0.00 0.01 0.00 0.00 0.01 0.01 0.01 0.01 0.01 0.01 0.01 0.01 0.01 0.02 0.01 0.01 0.00 0.00 0.00 0.00 0.00 0.00 0.00 0.00 0.01 0.01 0.02 0.03 0.00 0.00 0.01 0.01 0.03 0.03 0.03 0.04 0.05 0.06 0.06 0.06
0.00 0.00 0.00 0.00 0.00 0.00 0.00 0.01 0.01 0.01 0.01 0.01 0.02 0.01 0.01 0.01 0.00 0.00 0.01 0.00 0.01 0.01 0.01 0.00 0.01 0.01 0.01 0.02 0.01 0.01 0.01 0.01 0.01 0.00 0.00 0.00 0.00 0.00 0.00 0.00 0.01 0.00 0.00 0.00 0.00 0.00 0.01 0.02 0.03 0.04 0.05 0.07 0.06 0.05
0.00 0.00 0.00 0.00 0.00 0.00 0.01 0.01 0.01 0.01 0.01 0.01 0.01 0.01 0.01 0.01 0.02 0.01 0.01 0.00 0.00 0.00 0.00 0.01 0.01 0.00 0.00 0.01 0.01 0.01 0.02 0.02 0.02 0.01 0.02 0.03 0.03 0.02 0.00 0.00 0.00 0.00 0.00 0.00 0.00 0.00 0.00 0.01 0.02 0.03 0.04 0.05 0.07 0.06
0.00 0.00 0.00 0.00 0.00 0.00 0.00 0.00 0.01 0.01 0.01 0.01 0.01 0.01 0.01 0.01 0.02 0.02 0.01 0.00 0.00 0.00 0.00 0.01 0.02 0.02 0.02 0.02 0.02 0.01 0.01 0.01 0.02 0.03 0.02 0.02 0.03 0.02 0.01 0.00 0.00 0.00 0.01 0.02 0.04 0.02 0.02 0.01 0.02 0.03 0.05 0.06 0.07 0.09
0.01 0.00 0.00 0.00 0.00 0.00 0.01 0.01 0.02 0.03 0.02 0.02 0.02 0.02 0.01 0.02 0.02 0.02 0.01 0.01 0.01 0.01 0.01 0.01 0.01 0.01 0.02 0.02 0.03 0.03 0.01 0.00 0.01 0.01 0.01 0.01 0.01 0.01 0.02 0.02 0.01 0.01 0.03 0.04 0.07 0.12 0.11 0.09 0.10 0.11 0.11 0.11 0.10 0.09
0.01 0.01 0.01 0.01 0.01 0.01 0.01 0.01 0.01 0.02 0.02 0.03 0.04 0.04 0.03 0.03 0.02 0.02 0.01 0.01 0.01 0.01 0.01 0.02 0.02 0.02 0.02 0.02 0.02 0.02 0.02 0.01 0.01 0.00 0.00 0.00 0.00 0.01 0.01 0.02 0.02 0.02 0.02 0.02 0.02 0.03 0.04 0.05 0.05 0.05 0.05 0.04 0.04 0.03
0.01 0.01 0.01 0.01 0.03 0.03 0.01 0.02 0.02 0.02 0.02 0.02 0.02 0.04 0.05 0.05 0.03 0.01 0.01 0.01 0.02 0.02 0.03 0.02 0.02 0.01 0.00 0.01 0.00 0.00 0.00 0.00 0.00 0.00 0.00 0.00 0.00 0.01 0.01 0.02 0.03 0.02 0.02 0.03 0.03 0.04 0.03 0.02 0.03 0.03 0.03 0.03 0.03 0.03
0.02 0.02 0.02 0.03 0.03 0.02 0.03 0.02 0.02 0.02 0.01 0.01 0.01 0.02 0.03 0.05 0.03 0.01 0.01 0.02 0.02 0.02 0.02 0.02 0.02 0.02 0.01 0.00 0.01 0.01 0.01 0.01 0.00 0.00 0.00 0.01 0.01 0.02 0.01 0.02 0.03 0.03 0.04 0.04 0.05 0.05 0.05 0.05 0.04 0.04 0.04 0.04 0.04 0.04

GFSWCAN_prec_precacc24_141.txt.gz
Total_Precipitation_Accumulation
0.22 0.21 0.20 0.19 0.15 0.11 0.08 0.09 0.24 0.44 0.35 0.33 0.22 0.19 0.34 0.43 0.47 0.54 0.33 0.15 0.22 0.37 0.14 0.11 0.24 0.30 0.23 0.20 0.23 0.28 0.49 0.47 0.53 0.47 0.46 0.31 0.17 0.04 0.02 0.01 0.03 0.15 0.25 0.22 0.27 0.34 0.15 0.00 0.00 0.01 0.00 0.00 0.00 0.00
0.14 0.16 0.10 0.04 0.04 0.10 0.17 0.12 0.11 0.18 0.59 0.43 0.20 0.16 0.42 0.54 0.48 0.58 0.35 0.21 0.22 0.35 0.23 0.10 0.10 0.18 0.22 0.21 0.26 0.28 0.39 0.40 0.49 0.41 0.27 0.21 0.18 0.09 0.04 0.02 0.01 0.02 0.03 0.08 0.17 0.18 0.04 0.00 0.00 0.00 0.00 0.00 0.00 0.00
0.07 0.06 0.05 0.04 0.02 0.05 0.15 0.17 0.21 0.13 0.27 0.48 0.32 0.25 0.52 0.56 0.48 0.53 0.29 0.22 0.38 0.60 0.36 0.19 0.22 0.16 0.18 0.27 0.23 0.44 0.28 0.19 0.31 0.40 0.46 0.35 0.23 0.10 0.08 0.04 0.04 0.01 0.01 0.02 0.04 0.00 0.00 0.00 0.00 0.00 0.00 0.00 0.00 0.00
0.01 0.02 0.02 0.01 0.01 0.01 0.02 0.05 0.26 0.36 0.24 0.47 0.66 0.53 0.53 0.42 0.50 0.54 0.42 0.36 0.44 0.61 0.46 0.21 0.30 0.20 0.18 0.48 0.18 0.21 0.18 0.12 0.20 0.39 0.54 0.38 0.24 0.18 0.17 0.13 0.12 0.11 0.12 0.16 0.14 0.05 0.03 0.01 0.01 0.03 0.04 0.02 0.00 0.00
0.01 0.01 0.01 0.01 0.01 0.01 0.01 0.01 0.06 0.28 0.21 0.52 0.78 0.69 0.59 0.62 0.61 0.73 0.54 0.47 0.50 0.55 0.58 0.35 0.39 0.31 0.17 0.60 0.33 0.26 0.21 0.21 0.33 0.32 0.36 0.30 0.14 0.13 0.15 0.12 0.04 0.01 0.04 0.07 0.09 0.12 0.09 0.11 0.07 0.07 0.07 0.02 0.01 0.00
0.01 0.01 0.02 0.04 0.02 0.01 0.01 0.01 0.02 0.08 0.23 0.55 0.66 0.65 0.88 0.88 0.75 0.91 1.04 0.57 0.43 0.45 0.44 0.31 0.40 0.45 0.24 0.62 0.53 0.31 0.46 0.27 0.39 0.38 0.18 0.16 0.18 0.24 0.17 0.08 0.04 0.02 0.02 0.04 0.06 0.05 0.03 0.02 0.01 0.01 0.03 0.03 0.02 0.00
0.02 0.09 0.30 0.35 0.16 0.04 0.02 0.01 0.02 0.07 0.23 0.37 0.37 0.39 0.58 0.43 0.38 0.30 0.32 0.20 0.28 0.55 0.78 0.53 0.47 0.44 0.35 0.45 0.64 0.45 0.60 0.39 0.24 0.25 0.19 0.17 0.19 0.16 0.15 0.07 0.03 0.01 0.01 0.01 0.00 0.00 0.00 0.00 0.00 0.00 0.00 0.00 0.00 0.00
0.41 0.55 0.58 0.27 0.08 0.02 0.01 0.01 0.01 0.09 0.17 0.18 0.20 0.21 0.31 0.34 0.37 0.24 0.20 0.21 0.23 0.37 0.33 0.24 0.29 0.51 0.36 0.27 0.35 0.27 0.30 0.30 0.22 0.15 0.11 0.09 0.12 0.20 0.16 0.03 0.01 0.01 0.00 0.01 0.01 0.00 0.00 0.00 0.00 0.00 0.00 0.00 0.00 0.00
0.80 0.55 0.30 0.12 0.04 0.03 0.01 0.02 0.02 0.09 0.15 0.29 0.36 0.46 0.52 0.39 0.22 0.12 0.04 0.35 0.33 0.24 0.22 0.09 0.19 0.52 0.45 0.25 0.17 0.13 0.12 0.25 0.20 0.08 0.05 0.09 0.12 0.14 0.03 0.04 0.04 0.02 0.02 0.02 0.02 0.03 0.02 0.01 0.01 0.01 0.00 0.00 0.00 0.00
0.38 0.25 0.14 0.08 0.05 0.05 0.03 0.02 0.05 0.15 0.38 0.38 0.34 0.37 0.35 0.20 0.19 0.20 0.36 0.59 0.67 0.43 0.23 0.10 0.11 0.36 0.42 0.24 0.14 0.11 0.10 0.13 0.12 0.05 0.04 0.10 0.07 0.02 0.01 0.03 0.05 0.03 0.03 0.03 0.02 0.06 0.06 0.04 0.01 0.00 0.00 0.00 0.00 0.00
0.15 0.11 0.09 0.07 0.06 0.05 0.04 0.05 0.17 0.48 0.29 0.22 0.25 0.37 0.43 0.41 0.29 0.33 0.39 0.27 0.19 0.31 0.11 0.03 0.05 0.29 0.24 0.26 0.13 0.10 0.14 0.10 0.13 0.08 0.04 0.06 0.03 0.04 0.01 0.01 0.02 0.01 0.02 0.01 0.01 0.01 0.00 0.00 0.00 0.00 0.00 0.00 0.00 0.00
0.14 0.13 0.13 0.11 0.10 0.10 0.11 0.11 0.30 0.13 0.12 0.12 0.18 0.27 0.35 0.25 0.25 0.20 0.19 0.11 0.09 0.18 0.06 0.04 0.06 0.25 0.19 0.17 0.18 0.10 0.14 0.16 0.16 0.14 0.07 0.09 0.05 0.02 0.02 0.00 0.01 0.00 0.00 0.00 0.00 0.00 0.00 0.00 0.00 0.00 0.00 0.00 0.00 0.00
0.07 0.08 0.09 0.10 0.11 0.10 0.06 0.06 0.07 0.09 0.07 0.15 0.21 0.13 0.20 0.09 0.20 0.06 0.03 0.03 0.13 0.16 0.06 0.07 0.15 0.15 0.21 0.26 0.27 0.19 0.04 0.15 0.16 0.44 0.30 0.07 0.03 0.00 0.00 0.00 0.00 0.00 0.00 0.00 0.00 0.00 0.00 0.00 0.00 0.00 0.00 0.01 0.02 0.03
0.03 0.02 0.02 0.02 0.02 0.04 0.06 0.08 0.11 0.09 0.19 0.29 0.22 0.18 0.19 0.15 0.05 0.07 0.14 0.37 0.20 0.40 0.36 0.28 0.17 0.28 0.26 0.09 0.12 0.15 0.06 0.02 0.04 0.07 0.05 0.01 0.01 0.00 0.00 0.00 0.00 0.00 0.01 0.01 0.00 0.00 0.00 0.00 0.01 0.02 0.04 0.04 0.04 0.04
0.03 0.06 0.08 0.08 0.07 0.05 0.04 0.09 0.10 0.26 0.35 0.36 0.28 0.29 0.08 0.21 0.13 0.07 0.04 0.02 0.01 0.28 0.66 0.42 0.24 0.27 0.12 0.03 0.05 0.01 0.04 0.02 0.00 0.01 0.02 0.00 0.00 0.00 0.00 0.00 0.00 0.00 0.00 0.00 0.00 0.00 0.00 0.00 0.02 0.05 0.08 0.08 0.08 0.09
0.02 0.03 0.06 0.06 0.04 0.04 0.04 0.09 0.23 0.52 0.47 0.32 0.21 0.14 0.06 0.08 0.11 0.04 0.01 0.01 0.02 0.44 0.48 0.20 0.06 0.06 0.03 0.00 0.00 0.00 0.00 0.00 0.01 0.01 0.01 0.01 0.01 0.00 0.00 0.00 0.00 0.00 0.00 0.00 0.00 0.00 0.00 0.01 0.03 0.06 0.10 0.12 0.12 0.10
0.01 0.01 0.00 0.00 0.00 0.01 0.06 0.29 0.44 0.34 0.16 0.09 0.07 0.04 0.03 0.09 0.08 0.03 0.00 0.01 0.01 0.13 0.04 0.00 0.00 0.00 0.00 0.00 0.00 0.00 0.01 0.01 0.02 0.02 0.01 0.01 0.01 0.00 0.00 0.00 0.00 0.00 0.00 0.00 0.00 0.01 0.03 0.04 0.05 0.07 0.08 0.10 0.12 0.14
0.01 0.00 0.00 0.00 0.01 0.02 0.07 0.12 0.16 0.11 0.03 0.02 0.04 0.05 0.04 0.07 0.05 0.02 0.00 0.01 0.07 0.09 0.02 0.01 0.00 0.00 0.00 0.00 0.01 0.00 0.01 0.02 0.02 0.01 0.02 0.02 0.02 0.03 0.03 0.01 0.00 0.00 0.00 0.01 0.00 0.01 0.02 0.03 0.03 0.04 0.05 0.06 0.09 0.13
0.00 0.00 0.00 0.00 0.01 0.13 0.21 0.14 0.04 0.04 0.01 0.01 0.03 0.04 0.05 0.05 0.01 0.00 0.00 0.01 0.04 0.02 0.01 0.00 0.00 0.00 0.00 0.01 0.01 0.01 0.01 0.01 0.01 0.01 0.03 0.02 0.02 0.03 0.04 0.03 0.02 0.02 0.01 0.01 0.01 0.01 0.03 0.03 0.04 0.03 0.03 0.04 0.05 0.06
0.00 0.00 0.00 0.00 0.00 0.02 0.05 0.02 0.01 0.01 0.00 0.01 0.01 0.01 0.02 0.01 0.01 0.00 0.00 0.01 0.01 0.01 0.00 0.00 0.00 0.01 0.01 0.01 0.00 0.01 0.01 0.01 0.00 0.01 0.03 0.05 0.05 0.03 0.03 0.02 0.01 0.02 0.02 0.03 0.03 0.03 0.03 0.04 0.05 0.04 0.05 0.05 0.05 0.05
0.00 0.00 0.00 0.00 0.01 0.01 0.02 0.00 0.00 0.00 0.00 0.00 0.00 0.00 0.01 0.00 0.01 0.01 0.01 0.00 0.01 0.02 0.01 0.00 0.01 0.01 0.00 0.00 0.00 0.00 0.00 0.00 0.00 0.00 0.01 0.02 0.04 0.02 0.02 0.02 0.01 0.01 0.01 0.02 0.04 0.05 0.04 0.03 0.03 0.03 0.05 0.07 0.08 0.07
0.00 0.00 0.00 0.00 0.00 0.02 0.01 0.00 0.00 0.00 0.00 0.00 0.00 0.00 0.01 0.01 0.01 0.01 0.00 0.00 0.01 0.00 0.00 0.00 0.01 0.01 0.00 0.00 0.00 0.00 0.00 0.00 0.00 0.00 0.00 0.00 0.01 0.04 0.03 0.02 0.02 0.02 0.02 0.01 0.01 0.01 0.03 0.05 0.04 0.05 0.06 0.08 0.09 0.08
0.00 0.00 0.00 0.00 0.00 0.00 0.00 0.00 0.00 0.00 0.00 0.00 0.00 0.00 0.01 0.01 0.00 0.00 0.00 0.00 0.00 0.00 0.00 0.00 0.00 0.02 0.01 0.00 0.00 0.00 0.00 0.00 0.00 0.00 0.00 0.00 0.00 0.00 0.00 0.00 0.01 0.01 0.02 0.01 0.00 0.01 0.02 0.02 0.03 0.05 0.07 0.10 0.11 0.11
0.00 0.00 0.00 0.00 0.00 0.00 0.00 0.00 0.00 0.00 0.00 0.00 0.01 0.00 0.01 0.00 0.00 0.00 0.00 0.00 0.00 0.00 0.00 0.00 0.00 0.03 0.03 0.02 0.01 0.00 0.00 0.00 0.00 0.00 0.00 0.00 0.00 0.01 0.00 0.00 0.00 0.00 0.00 0.00 0.00 0.01 0.02 0.02 0.03 0.05 0.07 0.07 0.09 0.07
0.00 0.00 0.00 0.00 0.00 0.00 0.00 0.00 0.00 0.00 0.00 0.01 0.01 0.00 0.00 0.00 0.01 0.00 0.00 0.00 0.00 0.01 0.00 0.00 0.00 0.01 0.01 0.02 0.02 0.01 0.00 0.00 0.00 0.00 0.00 0.00 0.00 0.01 0.02 0.01 0.01 0.00 0.00 0.01 0.02 0.03 0.03 0.03 0.04 0.05 0.06 0.06 0.06 0.06
0.00 0.00 0.00 0.00 0.00 0.00 0.00 0.01 0.01 0.00 0.01 0.01 0.01 0.01 0.00 0.01 0.00 0.00 0.00 0.01 0.01 0.01 0.01 0.01 0.01 0.01 0.01 0.01 0.01 0.01 0.00 0.00 0.00 0.00 0.00 0.00 0.00 0.00 0.01 0.01 0.01 0.01 0.00 0.00 0.01 0.02 0.03 0.02 0.03 0.04 0.05 0.06 0.06 0.06
0.00 0.00 0.00 0.00 0.00 0.00 0.00 0.01 0.01 0.01 0.01 0.01 0.02 0.01 0.01 0.01 0.00 0.00 0.01 0.00 0.01 0.01 0.01 0.00 0.01 0.01 0.01 0.01 0.01 0.01 0.01 0.01 0.01 0.00 0.00 0.00 0.00 0.00 0.00 0.00 0.00 0.00 0.00 0.00 0.00 0.00 0.01 0.02 0.02 0.03 0.04 0.06 0.06 0.05
0.00 0.00 0.00 0.00 0.00 0.00 0.01 0.01 0.01 0.01 0.01 0.01 0.01 0.01 0.01 0.00 0.01 0.01 0.01 0.00 0.00 0.00 0.00 0.01 0.01 0.00 0.00 0.01 0.01 0.01 0.02 0.02 0.02 0.01 0.02 0.03 0.02 0.01 0.00 0.00 0.00 0.00 0.00 0.00 0.00 0.00 0.00 0.01 0.01 0.02 0.03 0.04 0.05 0.06
0.00 0.00 0.00 0.00 0.00 0.00 0.00 0.00 0.01 0.01 0.01 0.01 0.01 0.01 0.01 0.00 0.01 0.01 0.00 0.00 0.00 0.00 0.00 0.01 0.02 0.02 0.02 0.02 0.02 0.01 0.01 0.01 0.02 0.03 0.03 0.04 0.02 0.01 0.01 0.00 0.00 0.00 0.00 0.01 0.01 0.01 0.01 0.00 0.01 0.02 0.03 0.04 0.05 0.09
0.01 0.00 0.01 0.00 0.00 0.00 0.01 0.01 0.02 0.02 0.02 0.02 0.02 0.01 0.01 0.01 0.01 0.01 0.00 0.00 0.00 0.01 0.01 0.01 0.01 0.01 0.02 0.03 0.03 0.04 0.03 0.01 0.02 0.01 0.01 0.01 0.01 0.00 0.01 0.01 0.01 0.01 0.01 0.02 0.03 0.06 0.07 0.06 0.06 0.08 0.09 0.10 0.10 0.09
0.01 0.01 0.01 0.01 0.01 0.01 0.01 0.01 0.01 0.02 0.02 0.03 0.04 0.04 0.02 0.02 0.02 0.01 0.00 0.01 0.01 0.01 0.01 0.01 0.02 0.02 0.02 0.02 0.02 0.02 0.03 0.01 0.02 0.02 0.02 0.02 0.01 0.01 0.01 0.02 0.01 0.01 0.02 0.02 0.03 0.03 0.03 0.03 0.04 0.04 0.04 0.04 0.04 0.03
0.01 0.01 0.01 0.01 0.02 0.02 0.01 0.02 0.02 0.02 0.02 0.02 0.02 0.04 0.04 0.05 0.03 0.01 0.00 0.01 0.01 0.01 0.01 0.01 0.01 0.01 0.01 0.01 0.00 0.00 0.00 0.00 0.00 0.00 0.01 0.01 0.01 0.01 0.01 0.02 0.03 0.02 0.02 0.03 0.03 0.03 0.03 0.02 0.03 0.03 0.03 0.03 0.04 0.04
0.02 0.02 0.03 0.03 0.02 0.01 0.02 0.02 0.02 0.01 0.01 0.01 0.01 0.02 0.03 0.05 0.03 0.01 0.00 0.01 0.01 0.01 0.01 0.01 0.01 0.01 0.01 0.00 0.01 0.00 0.01 0.01 0.00 0.00 0.01 0.01 0.02 0.03 0.03 0.04 0.04 0.04 0.04 0.04 0.04 0.04 0.04 0.04 0.04 0.04 0.04 0.04 0.04 0.05

GFSWCAN_prec_precacc24_144.txt.gz
Total_Precipitation_Accumulation
0.25 0.24 0.23 0.22 0.17 0.14 0.11 0.11 0.25 0.45 0.35 0.33 0.22 0.18 0.32 0.40 0.43 0.49 0.33 0.14 0.22 0.35 0.12 0.11 0.24 0.29 0.21 0.19 0.23 0.28 0.47 0.45 0.47 0.38 0.29 0.20 0.19 0.08 0.07 0.03 0.04 0.16 0.27 0.24 0.29 0.36 0.16 0.00 0.00 0.01 0.00 0.00 0.00 0.00
0.17 0.20 0.13 0.08 0.07 0.07 0.08 0.08 0.12 0.19 0.60 0.44 0.21 0.16 0.41 0.52 0.45 0.55 0.34 0.19 0.19 0.30 0.18 0.09 0.09 0.18 0.21 0.20 0.26 0.28 0.38 0.40 0.50 0.44 0.24 0.17 0.14 0.10 0.08 0.08 0.03 0.03 0.03 0.08 0.17 0.18 0.04 0.00 0.00 0.00 0.00 0.00 0.00 0.00
0.09 0.09 0.08 0.08 0.06 0.05 0.05 0.07 0.18 0.14 0.28 0.49 0.32 0.25 0.52 0.55 0.46 0.52 0.29 0.19 0.34 0.53 0.32 0.17 0.21 0.16 0.18 0.27 0.23 0.44 0.27 0.19 0.32 0.40 0.52 0.49 0.35 0.14 0.09 0.04 0.05 0.01 0.01 0.02 0.04 0.00 0.00 0.00 0.00 0.00 0.00 0.00 0.00 0.00
0.01 0.03 0.03 0.03 0.02 0.02 0.01 0.03 0.13 0.28 0.21 0.46 0.64 0.52 0.53 0.41 0.49 0.50 0.40 0.30 0.38 0.64 0.50 0.21 0.30 0.20 0.17 0.48 0.17 0.20 0.18 0.11 0.19 0.41 0.73 0.63 0.44 0.30 0.23 0.13 0.12 0.11 0.12 0.16 0.14 0.05 0.03 0.01 0.01 0.03 0.04 0.02 0.00 0.00
0.01 0.02 0.02 0.01 0.01 0.01 0.00 0.01 0.03 0.16 0.16 0.47 0.73 0.67 0.58 0.61 0.60 0.71 0.52 0.44 0.38 0.60 0.66 0.35 0.35 0.27 0.15 0.57 0.31 0.18 0.19 0.21 0.29 0.37 0.47 0.42 0.25 0.27 0.26 0.14 0.04 0.01 0.04 0.07 0.09 0.12 0.09 0.11 0.07 0.07 0.07 0.02 0.01 0.00
0.00 0.01 0.01 0.01 0.00 0.01 0.01 0.01 0.02 0.07 0.19 0.50 0.61 0.62 0.89 0.92 0.87 1.17 1.07 0.48 0.38 0.46 0.62 0.38 0.28 0.34 0.26 0.76 0.63 0.33 0.45 0.28 0.44 0.56 0.34 0.26 0.23 0.30 0.25 0.14 0.04 0.02 0.02 0.04 0.06 0.05 0.03 0.02 0.01 0.01 0.03 0.03 0.02 0.00
0.01 0.02 0.04 0.02 0.03 0.01 0.01 0.01 0.01 0.07 0.22 0.32 0.35 0.42 0.64 0.49 0.39 0.37 0.34 0.20 0.22 0.53 0.96 0.61 0.40 0.43 0.54 0.83 0.99 0.62 0.74 0.55 0.40 0.52 0.39 0.26 0.26 0.19 0.13 0.06 0.03 0.01 0.01 0.01 0.00 0.00 0.00 0.00 0.00 0.00 0.00 0.00 0.00 0.00
0.22 0.31 0.26 0.10 0.04 0.01 0.00 0.01 0.01 0.09 0.16 0.17 0.25 0.17 0.21 0.34 0.42 0.36 0.40 0.39 0.27 0.44 0.45 0.32 0.30 0.56 0.47 0.51 0.76 0.50 0.56 0.63 0.47 0.33 0.24 0.16 0.14 0.20 0.16 0.03 0.01 0.01 0.00 0.01 0.01 0.00 0.00 0.00 0.00 0.00 0.00 0.00 0.00 0.00
0.75 0.36 0.08 0.03 0.02 0.01 0.01 0.01 0.01 0.07 0.10 0.23 0.23 0.28 0.41 0.35 0.21 0.09 0.06 0.43 0.41 0.29 0.27 0.09 0.19 0.54 0.49 0.29 0.27 0.27 0.25 0.46 0.34 0.14 0.07 0.10 0.12 0.14 0.03 0.04 0.04 0.02 0.02 0.02 0.02 0.03 0.02 0.02 0.02 0.02 0.01 0.00 0.00 0.00
0.34 0.18 0.06 0.03 0.02 0.02 0.01 0.01 0.02 0.08 0.28 0.26 0.26 0.33 0.30 0.14 0.09 0.16 0.33 0.57 0.71 0.47 0.24 0.10 0.11 0.36 0.42 0.24 0.14 0.11 0.10 0.14 0.13 0.05 0.04 0.10 0.07 0.02 0.01 0.03 0.05 0.03 0.03 0.03 0.02 0.06 0.06 0.04 0.02 0.01 0.00 0.00 0.00 0.00
0.14 0.10 0.07 0.04 0.03 0.02 0.02 0.02 0.14 0.44 0.25 0.20 0.25 0.35 0.32 0.29 0.25 0.32 0.39 0.27 0.19 0.31 0.11 0.03 0.05 0.29 0.24 0.26 0.13 0.10 0.14 0.10 0.13 0.08 0.04 0.06 0.03 0.04 0.01 0.01 0.02 0.01 0.02 0.01 0.01 0.01 0.00 0.00 0.00 0.00 0.00 0.00 0.00 0.00
0.12 0.12 0.11 0.09 0.06 0.05 0.04 0.07 0.28 0.13 0.12 0.12 0.17 0.22 0.31 0.25 0.25 0.20 0.19 0.11 0.09 0.18 0.06 0.04 0.06 0.25 0.19 0.17 0.18 0.10 0.14 0.16 0.16 0.14 0.07 0.09 0.05 0.02 0.02 0.00 0.01 0.00 0.00 0.00 0.00 0.00 0.00 0.00 0.00 0.00 0.00 0.00 0.00 0.00
0.06 0.08 0.08 0.07 0.06 0.06 0.04 0.06 0.06 0.09 0.08 0.15 0.21 0.13 0.20 0.09 0.20 0.06 0.03 0.03 0.13 0.16 0.07 0.08 0.16 0.15 0.21 0.26 0.27 0.19 0.04 0.15 0.16 0.44 0.30 0.07 0.03 0.00 0.00 0.00 0.00 0.00 0.00 0.00 0.00 0.00 0.00 0.00 0.00 0.00 0.00 0.01 0.02 0.03
0.03 0.03 0.02 0.02 0.02 0.04 0.06 0.07 0.12 0.10 0.19 0.29 0.22 0.18 0.19 0.15 0.05 0.07 0.14 0.37 0.20 0.40 0.37 0.31 0.21 0.28 0.26 0.09 0.12 0.15 0.06 0.02 0.04 0.07 0.05 0.01 0.01 0.00 0.00 0.00 0.00 0.00 0.01 0.01 0.00 0.00 0.00 0.00 0.00 0.01 0.02 0.03 0.03 0.04
0.03 0.06 0.08 0.08 0.07 0.05 0.04 0.08 0.10 0.26 0.35 0.36 0.28 0.29 0.08 0.21 0.13 0.08 0.05 0.02 0.02 0.29 0.72 0.52 0.32 0.28 0.13 0.03 0.05 0.01 0.05 0.03 0.00 0.01 0.02 0.00 0.00 0.00 0.01 0.00 0.00 0.00 0.00 0.00 0.00 0.00 0.00 0.00 0.01 0.03 0.04 0.05 0.05 0.07
0.02 0.04 0.06 0.06 0.04 0.04 0.03 0.10 0.23 0.52 0.47 0.32 0.21 0.16 0.09 0.10 0.11 0.05 0.01 0.01 0.06 0.59 0.64 0.31 0.14 0.12 0.04 0.00 0.01 0.00 0.00 0.00 0.01 0.01 0.01 0.01 0.01 0.00 0.00 0.00 0.00 0.00 0.00 0.00 0.00 0.00 0.00 0.00 0.00 0.02 0.04 0.06 0.07 0.06
0.01 0.01 0.00 0.00 0.00 0.01 0.06 0.30 0.44 0.34 0.16 0.12 0.08 0.05 0.03 0.08 0.05 0.01 0.00 0.01 0.02 0.32 0.24 0.04 0.00 0.00 0.00 0.00 0.00 0.00 0.01 0.01 0.02 0.02 0.01 0.01 0.01 0.00 0.00 0.00 0.00 0.00 0.00 0.00 0.00 0.00 0.00 0.01 0.01 0.03 0.03 0.05 0.07 0.09
0.02 0.00 0.00 0.00 0.02 0.03 0.09 0.13 0.16 0.12 0.04 0.01 0.04 0.05 0.03 0.03 0.03 0.01 0.00 0.01 0.07 0.11 0.03 0.01 0.00 0.00 0.00 0.00 0.01 0.00 0.01 0.02 0.02 0.01 0.01 0.02 0.01 0.02 0.03 0.01 0.00 0.00 0.00 0.00 0.00 0.00 0.01 0.01 0.01 0.01 0.02 0.03 0.05 0.09
0.00 0.00 0.00 0.01 0.02 0.18 0.24 0.16 0.05 0.04 0.01 0.01 0.03 0.03 0.03 0.03 0.01 0.00 0.00 0.01 0.04 0.02 0.02 0.00 0.00 0.00 0.00 0.00 0.01 0.01 0.00 0.01 0.01 0.01 0.02 0.02 0.02 0.02 0.03 0.02 0.01 0.01 0.00 0.00 0.00 0.00 0.01 0.01 0.01 0.01 0.01 0.02 0.03 0.04
0.00 0.00 0.00 0.01 0.01 0.04 0.08 0.06 0.04 0.02 0.00 0.01 0.01 0.01 0.02 0.01 0.00 0.00 0.00 0.01 0.01 0.01 0.02 0.00 0.00 0.00 0.00 0.01 0.00 0.01 0.01 0.01 0.00 0.01 0.03 0.05 0.05 0.03 0.03 0.02 0.01 0.01 0.01 0.01 0.01 0.02 0.01 0.02 0.02 0.01 0.02 0.02 0.03 0.03
0.00 0.00 0.00 0.00 0.01 0.01 0.02 0.02 0.01 0.00 0.00 0.00 0.00 0.00 0.01 0.00 0.01 0.01 0.01 0.00 0.01 0.02 0.01 0.00 0.00 0.00 0.00 0.00 0.00 0.00 0.00 0.00 0.00 0.00 0.01 0.02 0.04 0.03 0.03 0.02 0.01 0.01 0.00 0.01 0.02 0.02 0.02 0.01 0.01 0.02 0.03 0.04 0.06 0.05
0.00 0.00 0.00 0.00 0.00 0.02 0.02 0.00 0.00 0.00 0.00 0.00 0.00 0.00 0.01 0.01 0.01 0.01 0.00 0.00 0.01 0.00 0.00 0.00 0.00 0.00 0.00 0.00 0.00 0.00 0.00 0.00 0.00 0.00 0.00 0.00 0.01 0.05 0.04 0.03 0.02 0.02 0.01 0.01 0.00 0.01 0.01 0.02 0.02 0.03 0.04 0.07 0.08 0.07
0.00 0.00 0.00 0.00 0.00 0.00 0.00 0.00 0.00 0.00 0.00 0.00 0.00 0.00 0.01 0.01 0.00 0.00 0.00 0.00 0.00 0.00 0.00 0.00 0.00 0.01 0.00 0.00 0.00 0.00 0.00 0.00 0.00 0.00 0.00 0.00 0.00 0.00 0.01 0.01 0.01 0.01 0.01 0.01 0.00 0.01 0.01 0.01 0.01 0.04 0.06 0.09 0.11 0.11
0.00 0.00 0.00 0.00 0.00 0.00 0.00 0.00 0.00 0.00 0.00 0.00 0.00 0.00 0.00 0.00 0.00 0.00 0.00 0.00 0.00 0.00 0.00 0.00 0.00 0.02 0.03 0.01 0.00 0.00 0.00 0.00 0.00 0.00 0.00 0.00 0.01 0.01 0.00 0.01 0.01 0.00 0.00 0.00 0.00 0.01 0.02 0.03 0.03 0.05 0.07 0.08 0.10 0.08
0.00 0.00 0.00 0.00 0.00 0.00 0.00 0.00 0.00 0.00 0.00 0.01 0.00 0.00 0.00 0.00 0.01 0.00 0.00 0.00 0.00 0.01 0.00 0.00 0.00 0.01 0.01 0.02 0.02 0.01 0.00 0.00 0.00 0.00 0.00 0.00 0.00 0.03 0.03 0.02 0.02 0.01 0.01 0.03 0.04 0.04 0.04 0.04 0.05 0.06 0.06 0.06 0.06 0.06
0.00 0.00 0.00 0.00 0.00 0.00 0.00 0.01 0.01 0.00 0.01 0.01 0.01 0.01 0.00 0.01 0.01 0.00 0.00 0.01 0.01 0.01 0.01 0.01 0.01 0.01 0.01 0.01 0.01 0.01 0.00 0.00 0.00 0.00 0.00 0.00 0.00 0.01 0.01 0.02 0.02 0.02 0.01 0.00 0.01 0.03 0.03 0.03 0.03 0.05 0.06 0.07 0.06 0.06
0.00 0.00 0.00 0.00 0.00 0.00 0.00 0.01 0.01 0.01 0.01 0.01 0.02 0.01 0.01 0.01 0.00 0.00 0.01 0.00 0.01 0.01 0.01 0.00 0.01 0.01 0.01 0.01 0.01 0.01 0.01 0.01 0.01 0.00 0.00 0.00 0.00 0.00 0.00 0.01 0.00 0.00 0.00 0.00 0.00 0.01 0.01 0.02 0.03 0.03 0.05 0.06 0.06 0.04
0.00 0.00 0.00 0.00 0.00 0.00 0.01 0.01 0.01 0.01 0.01 0.01 0.01 0.01 0.01 0.00 0.00 0.01 0.00 0.00 0.00 0.00 0.00 0.01 0.00 0.00 0.00 0.01 0.01 0.01 0.01 0.02 0.01 0.00 0.02 0.02 0.02 0.01 0.00 0.00 0.00 0.00 0.00 0.00 0.00 0.00 0.00 0.01 0.02 0.03 0.03 0.04 0.05 0.05
0.01 0.00 0.00 0.00 0.00 0.00 0.00 0.00 0.01 0.01 0.01 0.00 0.01 0.01 0.01 0.00 0.01 0.01 0.00 0.00 0.00 0.00 0.00 0.01 0.02 0.01 0.02 0.02 0.02 0.01 0.01 0.01 0.01 0.04 0.03 0.03 0.02 0.01 0.01 0.00 0.00 0.00 0.00 0.00 0.01 0.00 0.00 0.00 0.01 0.02 0.03 0.04 0.04 0.08
0.02 0.01 0.01 0.00 0.00 0.00 0.01 0.01 0.01 0.01 0.01 0.01 0.02 0.01 0.00 0.00 0.01 0.00 0.00 0.00 0.00 0.00 0.01 0.01 0.01 0.01 0.02 0.02 0.03 0.04 0.03 0.02 0.03 0.02 0.01 0.01 0.01 0.00 0.01 0.01 0.01 0.01 0.01 0.01 0.02 0.04 0.04 0.04 0.05 0.07 0.07 0.08 0.08 0.09
0.02 0.01 0.02 0.01 0.01 0.01 0.01 0.00 0.01 0.01 0.02 0.02 0.03 0.03 0.02 0.02 0.01 0.00 0.00 0.00 0.01 0.01 0.01 0.01 0.02 0.02 0.02 0.02 0.02 0.02 0.03 0.01 0.02 0.03 0.04 0.02 0.01 0.01 0.01 0.01 0.01 0.01 0.01 0.02 0.02 0.02 0.02 0.03 0.03 0.04 0.04 0.03 0.04 0.03
0.01 0.01 0.02 0.01 0.02 0.02 0.01 0.01 0.02 0.02 0.02 0.02 0.02 0.03 0.04 0.05 0.03 0.01 0.00 0.01 0.01 0.01 0.01 0.01 0.01 0.01 0.01 0.01 0.00 0.00 0.01 0.00 0.00 0.01 0.01 0.02 0.02 0.01 0.01 0.02 0.02 0.02 0.02 0.03 0.03 0.03 0.02 0.02 0.03 0.02 0.02 0.03 0.03 0.04
0.04 0.03 0.03 0.03 0.02 0.01 0.02 0.02 0.02 0.01 0.01 0.01 0.01 0.02 0.03 0.05 0.03 0.01 0.00 0.01 0.01 0.01 0.01 0.00 0.01 0.01 0.00 0.00 0.00 0.00 0.00 0.00 0.00 0.00 0.01 0.01 0.02 0.03 0.03 0.04 0.04 0.05 0.05 0.04 0.04 0.04 0.04 0.03 0.04 0.04 0.03 0.04 0.04 0.05

GFSWCAN_prec_precacc24_147.txt.gz
Total_Precipitation_Accumulation
0.24 0.22 0.22 0.22 0.18 0.15 0.12 0.12 0.26 0.46 0.35 0.32 0.21 0.17 0.31 0.38 0.40 0.48 0.33 0.14 0.22 0.33 0.12 0.10 0.23 0.28 0.20 0.19 0.22 0.28 0.45 0.43 0.45 0.34 0.28 0.19 0.14 0.07 0.06 0.03 0.04 0.17 0.36 0.38 0.43 0.54 0.20 0.00 0.00 0.01 0.00 0.00 0.00 0.00
0.18 0.22 0.16 0.11 0.10 0.08 0.10 0.11 0.14 0.21 0.62 0.45 0.21 0.15 0.39 0.49 0.39 0.51 0.34 0.19 0.19 0.31 0.19 0.09 0.09 0.17 0.20 0.19 0.24 0.27 0.37 0.38 0.48 0.44 0.23 0.15 0.09 0.06 0.07 0.08 0.05 0.07 0.04 0.09 0.18 0.21 0.06 0.00 0.00 0.00 0.00 0.00 0.00 0.00
0.11 0.11 0.10 0.10 0.09 0.08 0.08 0.08 0.12 0.13 0.29 0.50 0.34 0.26 0.52 0.53 0.42 0.50 0.30 0.18 0.33 0.55 0.33 0.17 0.21 0.16 0.18 0.27 0.21 0.38 0.26 0.19 0.30 0.38 0.50 0.44 0.30 0.13 0.09 0.04 0.05 0.02 0.01 0.03 0.04 0.00 0.00 0.00 0.00 0.00 0.00 0.00 0.00 0.00
0.02 0.04 0.04 0.04 0.04 0.05 0.05 0.04 0.05 0.17 0.21 0.47 0.67 0.55 0.55 0.42 0.49 0.50 0.43 0.30 0.40 0.65 0.50 0.21 0.30 0.20 0.17 0.48 0.17 0.20 0.18 0.11 0.19 0.40 0.71 0.58 0.42 0.30 0.27 0.18 0.16 0.14 0.16 0.16 0.14 0.05 0.03 0.01 0.01 0.03 0.04 0.02 0.00 0.00
0.02 0.03 0.03 0.03 0.02 0.02 0.02 0.02 0.02 0.04 0.12 0.44 0.73 0.68 0.59 0.62 0.60 0.67 0.52 0.43 0.37 0.59 0.62 0.34 0.35 0.27 0.15 0.57 0.31 0.18 0.19 0.21 0.29 0.38 0.41 0.30 0.20 0.25 0.26 0.22 0.08 0.02 0.06 0.08 0.09 0.12 0.09 0.11 0.07 0.07 0.07 0.02 0.01 0.00
0.01 0.02 0.02 0.03 0.01 0.01 0.01 0.01 0.01 0.03 0.12 0.44 0.58 0.61 0.89 0.92 0.85 1.20 1.10 0.47 0.35 0.33 0.61 0.42 0.28 0.34 0.24 0.75 0.60 0.29 0.38 0.27 0.39 0.46 0.28 0.19 0.22 0.33 0.34 0.18 0.05 0.02 0.02 0.05 0.08 0.05 0.03 0.02 0.01 0.01 0.03 0.03 0.02 0.00
0.01 0.02 0.03 0.02 0.01 0.01 0.01 0.00 0.01 0.06 0.13 0.28 0.31 0.41 0.63 0.51 0.53 0.62 0.41 0.21 0.26 0.47 0.91 0.59 0.32 0.27 0.38 0.82 1.00 0.65 0.69 0.60 0.44 0.52 0.40 0.26 0.27 0.31 0.27 0.07 0.03 0.03 0.05 0.03 0.01 0.00 0.00 0.00 0.00 0.00 0.00 0.00 0.00 0.00
0.13 0.08 0.06 0.02 0.01 0.00 0.00 0.00 0.01 0.08 0.14 0.13 0.21 0.15 0.22 0.45 0.48 0.38 0.43 0.43 0.36 0.49 0.46 0.35 0.20 0.36 0.45 0.83 1.05 0.70 0.74 0.83 0.58 0.39 0.28 0.18 0.19 0.37 0.30 0.03 0.01 0.01 0.01 0.02 0.01 0.00 0.00 0.00 0.00 0.00 0.00 0.00 0.00 0.00
0.40 0.12 0.04 0.02 0.01 0.01 0.00 0.00 0.01 0.07 0.07 0.15 0.19 0.18 0.33 0.29 0.16 0.06 0.08 0.42 0.55 0.30 0.27 0.09 0.13 0.47 0.47 0.43 0.55 0.50 0.39 0.58 0.45 0.20 0.12 0.20 0.21 0.20 0.05 0.05 0.04 0.02 0.02 0.02 0.02 0.03 0.02 0.02 0.02 0.02 0.01 0.00 0.00 0.00
0.13 0.08 0.02 0.01 0.01 0.01 0.01 0.00 0.02 0.05 0.14 0.15 0.16 0.14 0.12 0.05 0.06 0.07 0.11 0.38 0.68 0.44 0.27 0.11 0.11 0.36 0.41 0.25 0.18 0.17 0.16 0.20 0.20 0.12 0.11 0.16 0.10 0.03 0.01 0.03 0.05 0.03 0.03 0.03 0.02 0.06 0.06 0.04 0.02 0.01 0.00 0.00 0.00 0.00
0.04 0.03 0.02 0.01 0.01 0.01 0.01 0.00 0.10 0.34 0.15 0.12 0.19 0.29 0.20 0.07 0.14 0.23 0.30 0.21 0.17 0.30 0.11 0.03 0.05 0.29 0.24 0.26 0.13 0.10 0.14 0.10 0.14 0.09 0.06 0.07 0.03 0.04 0.01 0.01 0.02 0.01 0.02 0.01 0.01 0.01 0.00 0.00 0.00 0.00 0.00 0.00 0.00 0.00
0.05 0.04 0.03 0.02 0.02 0.01 0.00 0.04 0.26 0.11 0.10 0.12 0.17 0.16 0.15 0.14 0.23 0.20 0.19 0.11 0.09 0.18 0.06 0.04 0.06 0.25 0.19 0.17 0.18 0.10 0.14 0.16 0.16 0.14 0.07 0.09 0.05 0.02 0.02 0.00 0.01 0.00 0.00 0.00 0.00 0.00 0.00 0.00 0.00 0.00 0.00 0.00 0.00 0.00
0.06 0.05 0.03 0.02 0.01 0.01 0.01 0.05 0.06 0.09 0.08 0.15 0.21 0.12 0.18 0.09 0.20 0.06 0.03 0.03 0.13 0.16 0.07 0.08 0.16 0.15 0.21 0.26 0.27 0.19 0.04 0.15 0.16 0.44 0.30 0.07 0.03 0.00 0.00 0.00 0.00 0.00 0.00 0.00 0.00 0.00 0.00 0.00 0.00 0.00 0.00 0.00 0.00 0.01
0.03 0.03 0.02 0.01 0.01 0.02 0.04 0.07 0.12 0.11 0.19 0.29 0.22 0.18 0.19 0.15 0.05 0.07 0.14 0.37 0.20 0.40 0.37 0.31 0.24 0.28 0.26 0.09 0.12 0.15 0.06 0.02 0.05 0.07 0.05 0.01 0.01 0.00 0.00 0.00 0.00 0.00 0.01 0.01 0.00 0.00 0.00 0.00 0.00 0.00 0.00 0.00 0.01 0.02
0.04 0.06 0.09 0.08 0.07 0.05 0.03 0.08 0.11 0.26 0.35 0.36 0.28 0.29 0.08 0.21 0.13 0.08 0.06 0.03 0.02 0.29 0.75 0.58 0.40 0.31 0.14 0.03 0.05 0.02 0.06 0.04 0.00 0.01 0.02 0.00 0.00 0.01 0.02 0.02 0.00 0.00 0.00 0.00 0.00 0.00 0.00 0.00 0.00 0.01 0.01 0.02 0.02 0.04
0.02 0.04 0.06 0.06 0.04 0.04 0.04 0.10 0.23 0.52 0.48 0.33 0.22 0.16 0.09 0.10 0.10 0.05 0.01 0.01 0.06 0.64 0.73 0.38 0.22 0.18 0.06 0.00 0.01 0.00 0.00 0.00 0.01 0.01 0.01 0.01 0.01 0.01 0.01 0.00 0.00 0.00 0.00 0.00 0.00 0.00 0.00 0.00 0.00 0.01 0.02 0.02 0.03 0.03
0.02 0.01 0.00 0.00 0.00 0.01 0.06 0.31 0.44 0.34 0.17 0.12 0.08 0.04 0.03 0.07 0.04 0.01 0.00 0.01 0.04 0.46 0.45 0.14 0.03 0.01 0.00 0.00 0.00 0.00 0.01 0.01 0.01 0.02 0.01 0.01 0.01 0.00 0.00 0.00 0.00 0.00 0.00 0.00 0.00 0.00 0.00 0.01 0.01 0.01 0.02 0.02 0.03 0.06
0.04 0.02 0.01 0.01 0.02 0.04 0.11 0.14 0.18 0.13 0.05 0.01 0.04 0.03 0.02 0.02 0.02 0.01 0.00 0.01 0.08 0.16 0.13 0.05 0.00 0.00 0.00 0.00 0.01 0.00 0.01 0.01 0.02 0.01 0.01 0.01 0.01 0.01 0.01 0.00 0.00 0.00 0.00 0.00 0.00 0.00 0.00 0.01 0.01 0.01 0.01 0.01 0.02 0.05
0.00 0.00 0.01 0.04 0.06 0.24 0.30 0.23 0.07 0.05 0.01 0.00 0.02 0.02 0.01 0.02 0.01 0.00 0.00 0.01 0.04 0.02 0.03 0.01 0.00 0.00 0.00 0.00 0.01 0.01 0.00 0.01 0.01 0.01 0.02 0.02 0.01 0.01 0.02 0.01 0.00 0.00 0.00 0.00 0.00 0.00 0.00 0.00 0.01 0.00 0.00 0.01 0.02 0.02
0.00 0.00 0.00 0.04 0.08 0.08 0.12 0.08 0.07 0.02 0.01 0.01 0.01 0.01 0.01 0.01 0.00 0.00 0.00 0.01 0.01 0.01 0.02 0.00 0.00 0.00 0.00 0.01 0.00 0.01 0.01 0.01 0.00 0.01 0.03 0.04 0.04 0.02 0.02 0.02 0.00 0.00 0.00 0.00 0.00 0.01 0.00 0.01 0.01 0.00 0.01 0.01 0.01 0.02
0.00 0.00 0.00 0.01 0.09 0.05 0.03 0.03 0.06 0.01 0.00 0.00 0.00 0.00 0.01 0.00 0.01 0.01 0.01 0.00 0.02 0.02 0.01 0.00 0.00 0.00 0.00 0.00 0.00 0.00 0.00 0.00 0.00 0.00 0.01 0.02 0.03 0.03 0.04 0.04 0.01 0.00 0.00 0.01 0.02 0.01 0.01 0.00 0.01 0.01 0.01 0.02 0.03 0.03
0.00 0.00 0.00 0.00 0.01 0.04 0.03 0.00 0.00 0.00 0.00 0.00 0.00 0.00 0.01 0.01 0.01 0.01 0.00 0.00 0.01 0.00 0.00 0.00 0.00 0.00 0.00 0.00 0.00 0.00 0.00 0.00 0.00 0.00 0.00 0.00 0.01 0.05 0.05 0.04 0.02 0.02 0.01 0.00 0.00 0.01 0.00 0.01 0.01 0.01 0.03 0.05 0.06 0.05
0.00 0.00 0.00 0.00 0.00 0.00 0.00 0.00 0.00 0.00 0.01 0.00 0.00 0.00 0.01 0.01 0.00 0.00 0.00 0.00 0.00 0.00 0.00 0.00 0.00 0.00 0.00 0.00 0.00 0.00 0.00 0.00 0.00 0.00 0.00 0.00 0.00 0.00 0.01 0.01 0.01 0.01 0.01 0.01 0.00 0.01 0.01 0.01 0.01 0.03 0.05 0.08 0.09 0.10
0.00 0.00 0.00 0.00 0.00 0.00 0.00 0.00 0.00 0.00 0.00 0.00 0.00 0.00 0.00 0.00 0.00 0.00 0.00 0.00 0.00 0.00 0.00 0.00 0.00 0.01 0.01 0.00 0.00 0.00 0.00 0.00 0.00 0.00 0.00 0.00 0.01 0.01 0.00 0.01 0.01 0.00 0.00 0.00 0.01 0.01 0.02 0.03 0.03 0.05 0.07 0.08 0.09 0.08
0.00 0.00 0.00 0.00 0.00 0.00 0.01 0.00 0.00 0.00 0.00 0.00 0.00 0.00 0.00 0.00 0.01 0.00 0.00 0.00 0.00 0.01 0.00 0.00 0.00 0.01 0.01 0.01 0.01 0.01 0.00 0.00 0.00 0.00 0.00 0.00 0.00 0.03 0.04 0.02 0.02 0.02 0.02 0.04 0.05 0.04 0.04 0.04 0.05 0.06 0.06 0.07 0.06 0.06
0.00 0.00 0.00 0.00 0.00 0.00 0.01 0.01 0.01 0.00 0.01 0.01 0.01 0.01 0.00 0.01 0.01 0.00 0.00 0.01 0.01 0.01 0.01 0.01 0.01 0.01 0.01 0.01 0.01 0.01 0.00 0.00 0.00 0.00 0.00 0.00 0.00 0.01 0.02 0.03 0.02 0.02 0.02 0.01 0.02 0.04 0.04 0.04 0.04 0.05 0.06 0.07 0.07 0.06
0.01 0.00 0.00 0.00 0.00 0.00 0.00 0.01 0.01 0.01 0.01 0.01 0.02 0.01 0.01 0.01 0.00 0.00 0.00 0.00 0.01 0.01 0.01 0.00 0.01 0.01 0.01 0.01 0.00 0.00 0.00 0.00 0.00 0.00 0.00 0.00 0.00 0.00 0.00 0.01 0.01 0.00 0.00 0.00 0.00 0.01 0.02 0.03 0.03 0.04 0.05 0.07 0.06 0.05
0.02 0.00 0.00 0.00 0.00 0.00 0.01 0.01 0.01 0.01 0.01 0.01 0.01 0.01 0.01 0.00 0.00 0.00 0.00 0.00 0.00 0.00 0.00 0.01 0.00 0.00 0.00 0.01 0.00 0.00 0.00 0.01 0.01 0.00 0.01 0.02 0.01 0.00 0.00 0.00 0.00 0.00 0.00 0.00 0.00 0.00 0.00 0.01 0.02 0.03 0.04 0.04 0.05 0.05
0.05 0.02 0.01 0.00 0.00 0.01 0.01 0.00 0.01 0.01 0.00 0.00 0.01 0.01 0.01 0.00 0.00 0.00 0.00 0.00 0.00 0.00 0.00 0.01 0.01 0.01 0.01 0.02 0.01 0.01 0.01 0.01 0.02 0.04 0.03 0.03 0.02 0.01 0.00 0.00 0.00 0.00 0.00 0.00 0.00 0.01 0.01 0.00 0.01 0.03 0.04 0.04 0.04 0.07
0.05 0.04 0.04 0.01 0.01 0.00 0.01 0.01 0.01 0.01 0.01 0.01 0.01 0.00 0.00 0.00 0.01 0.00 0.00 0.00 0.00 0.00 0.01 0.01 0.01 0.01 0.02 0.02 0.03 0.04 0.03 0.02 0.03 0.03 0.02 0.02 0.01 0.00 0.00 0.00 0.01 0.00 0.00 0.01 0.01 0.03 0.03 0.02 0.03 0.06 0.07 0.07 0.07 0.08
0.07 0.05 0.05 0.04 0.02 0.01 0.01 0.00 0.00 0.01 0.01 0.01 0.02 0.02 0.01 0.02 0.01 0.00 0.00 0.00 0.01 0.01 0.01 0.01 0.02 0.02 0.02 0.02 0.02 0.02 0.03 0.01 0.02 0.03 0.04 0.03 0.02 0.02 0.01 0.01 0.01 0.01 0.01 0.01 0.01 0.01 0.02 0.02 0.02 0.03 0.03 0.02 0.03 0.02
0.10 0.09 0.06 0.03 0.02 0.02 0.01 0.01 0.01 0.01 0.01 0.02 0.01 0.02 0.03 0.04 0.02 0.01 0.00 0.00 0.01 0.01 0.01 0.01 0.01 0.01 0.01 0.01 0.00 0.00 0.01 0.00 0.00 0.01 0.01 0.02 0.02 0.01 0.01 0.02 0.02 0.02 0.02 0.02 0.02 0.02 0.02 0.01 0.02 0.02 0.02 0.02 0.03 0.03
0.06 0.10 0.07 0.04 0.02 0.01 0.02 0.01 0.02 0.01 0.01 0.01 0.01 0.01 0.02 0.04 0.03 0.01 0.00 0.00 0.00 0.01 0.01 0.00 0.01 0.01 0.00 0.00 0.01 0.00 0.00 0.00 0.00 0.00 0.01 0.01 0.01 0.03 0.03 0.04 0.04 0.06 0.06 0.06 0.05 0.04 0.04 0.03 0.03 0.03 0.03 0.03 0.03 0.04

GFSWCAN_prec_precacc24_150.txt.gz
Total_Precipitation_Accumulation
0.26 0.23 0.22 0.21 0.18 0.16 0.12 0.11 0.17 0.26 0.20 0.04 0.02 0.09 0.28 0.36 0.39 0.48 0.33 0.14 0.22 0.32 0.11 0.10 0.22 0.26 0.18 0.16 0.21 0.25 0.42 0.39 0.42 0.31 0.26 0.18 0.14 0.06 0.05 0.02 0.04 0.14 0.28 0.32 0.38 0.51 0.21 0.01 0.01 0.01 0.00 0.00 0.00 0.00
0.19 0.22 0.16 0.13 0.12 0.10 0.11 0.13 0.13 0.19 0.55 0.35 0.11 0.10 0.37 0.47 0.38 0.51 0.34 0.19 0.19 0.31 0.18 0.09 0.09 0.17 0.19 0.17 0.21 0.23 0.34 0.35 0.45 0.40 0.20 0.13 0.07 0.05 0.06 0.08 0.05 0.07 0.04 0.08 0.16 0.19 0.06 0.01 0.02 0.01 0.00 0.00 0.00 0.00
0.12 0.12 0.11 0.11 0.10 0.09 0.10 0.10 0.14 0.14 0.29 0.51 0.33 0.24 0.50 0.52 0.40 0.49 0.30 0.18 0.32 0.56 0.33 0.17 0.21 0.16 0.18 0.27 0.21 0.36 0.23 0.17 0.28 0.32 0.42 0.38 0.26 0.11 0.08 0.04 0.05 0.02 0.03 0.05 0.06 0.00 0.00 0.00 0.00 0.00 0.00 0.00 0.00 0.00
0.03 0.05 0.05 0.05 0.05 0.07 0.06 0.06 0.07 0.11 0.20 0.47 0.68 0.56 0.55 0.43 0.47 0.51 0.44 0.30 0.40 0.67 0.51 0.21 0.30 0.20 0.17 0.48 0.17 0.20 0.16 0.09 0.17 0.38 0.66 0.48 0.36 0.27 0.25 0.17 0.16 0.13 0.16 0.18 0.16 0.05 0.03 0.01 0.01 0.03 0.04 0.02 0.00 0.00
0.03 0.05 0.04 0.04 0.04 0.05 0.06 0.05 0.06 0.06 0.15 0.44 0.75 0.71 0.61 0.61 0.58 0.67 0.52 0.44 0.37 0.61 0.59 0.32 0.35 0.27 0.15 0.57 0.31 0.18 0.18 0.20 0.28 0.38 0.41 0.29 0.17 0.22 0.21 0.18 0.07 0.02 0.06 0.10 0.10 0.12 0.12 0.13 0.07 0.07 0.08 0.02 0.01 0.00
0.03 0.03 0.04 0.05 0.03 0.03 0.03 0.05 0.03 0.03 0.13 0.43 0.56 0.61 0.88 0.91 0.81 1.18 1.08 0.46 0.34 0.33 0.64 0.43 0.27 0.34 0.24 0.74 0.60 0.28 0.37 0.26 0.40 0.48 0.27 0.16 0.12 0.22 0.28 0.16 0.05 0.03 0.03 0.05 0.08 0.05 0.04 0.03 0.02 0.01 0.03 0.03 0.02 0.00
0.03 0.03 0.04 0.04 0.03 0.01 0.01 0.01 0.01 0.04 0.13 0.26 0.29 0.39 0.63 0.49 0.52 0.63 0.40 0.22 0.32 0.56 1.03 0.54 0.25 0.25 0.38 0.81 1.00 0.67 0.68 0.63 0.46 0.49 0.30 0.13 0.15 0.28 0.24 0.07 0.03 0.03 0.06 0.06 0.04 0.02 0.00 0.00 0.00 0.00 0.00 0.00 0.00 0.00
0.10 0.04 0.02 0.02 0.02 0.01 0.01 0.01 0.01 0.05 0.10 0.12 0.18 0.14 0.21 0.43 0.53 0.47 0.46 0.44 0.53 0.77 0.57 0.33 0.14 0.18 0.32 0.82 1.22 0.85 0.88 0.89 0.59 0.37 0.23 0.14 0.18 0.38 0.31 0.04 0.01 0.01 0.01 0.03 0.04 0.03 0.00 0.00 0.00 0.00 0.00 0.00 0.00 0.00
0.20 0.09 0.03 0.01 0.01 0.01 0.00 0.00 0.01 0.03 0.04 0.11 0.15 0.15 0.33 0.36 0.26 0.09 0.09 0.34 0.59 0.37 0.20 0.05 0.06 0.26 0.26 0.35 0.69 0.60 0.42 0.57 0.42 0.20 0.13 0.22 0.22 0.23 0.05 0.05 0.04 0.02 0.02 0.02 0.02 0.03 0.02 0.02 0.02 0.02 0.01 0.00 0.00 0.00
0.12 0.07 0.02 0.01 0.01 0.01 0.00 0.00 0.02 0.02 0.06 0.11 0.18 0.13 0.14 0.07 0.05 0.02 0.04 0.10 0.42 0.27 0.13 0.10 0.06 0.21 0.31 0.22 0.18 0.26 0.28 0.23 0.25 0.15 0.15 0.23 0.11 0.03 0.01 0.03 0.05 0.03 0.03 0.03 0.02 0.06 0.06 0.04 0.02 0.01 0.00 0.00 0.00 0.00
0.03 0.02 0.01 0.01 0.01 0.01 0.00 0.00 0.04 0.06 0.11 0.10 0.12 0.12 0.11 0.02 0.07 0.06 0.10 0.05 0.07 0.15 0.06 0.03 0.04 0.27 0.23 0.27 0.14 0.12 0.16 0.12 0.16 0.13 0.12 0.09 0.03 0.04 0.01 0.01 0.02 0.01 0.02 0.01 0.01 0.01 0.00 0.00 0.00 0.00 0.00 0.00 0.00 0.00
0.03 0.02 0.02 0.01 0.01 0.01 0.00 0.03 0.15 0.10 0.11 0.10 0.15 0.12 0.05 0.05 0.13 0.11 0.16 0.10 0.08 0.17 0.06 0.03 0.06 0.25 0.19 0.17 0.18 0.10 0.15 0.16 0.16 0.14 0.08 0.09 0.05 0.02 0.02 0.00 0.01 0.00 0.00 0.00 0.00 0.00 0.00 0.00 0.00 0.00 0.00 0.00 0.00 0.00
0.06 0.03 0.02 0.01 0.00 0.00 0.00 0.04 0.06 0.11 0.09 0.14 0.22 0.09 0.14 0.08 0.19 0.06 0.03 0.03 0.13 0.16 0.07 0.08 0.16 0.15 0.21 0.26 0.27 0.19 0.04 0.15 0.17 0.45 0.31 0.07 0.03 0.00 0.00 0.00 0.00 0.00 0.00 0.00 0.00 0.00 0.00 0.00 0.00 0.00 0.00 0.00 0.00 0.00
0.04 0.03 0.02 0.01 0.01 0.01 0.03 0.06 0.12 0.13 0.21 0.29 0.21 0.15 0.19 0.15 0.05 0.07 0.14 0.37 0.20 0.40 0.37 0.31 0.25 0.29 0.26 0.09 0.12 0.16 0.06 0.03 0.05 0.07 0.05 0.01 0.00 0.00 0.00 0.00 0.00 0.00 0.01 0.01 0.00 0.00 0.00 0.00 0.00 0.00 0.00 0.00 0.00 0.00
0.05 0.07 0.08 0.06 0.05 0.04 0.03 0.08 0.11 0.29 0.35 0.36 0.28 0.29 0.08 0.21 0.13 0.07 0.06 0.02 0.02 0.29 0.75 0.59 0.42 0.32 0.14 0.03 0.05 0.02 0.06 0.04 0.00 0.01 0.02 0.00 0.00 0.01 0.02 0.02 0.01 0.00 0.00 0.00 0.00 0.00 0.00 0.00 0.00 0.01 0.01 0.01 0.01 0.02
0.02 0.04 0.04 0.04 0.04 0.03 0.04 0.11 0.24 0.52 0.48 0.33 0.22 0.16 0.09 0.09 0.09 0.04 0.01 0.01 0.06 0.64 0.75 0.41 0.25 0.22 0.07 0.00 0.02 0.00 0.00 0.00 0.01 0.01 0.01 0.00 0.00 0.01 0.01 0.00 0.00 0.00 0.00 0.00 0.00 0.00 0.00 0.00 0.00 0.01 0.01 0.01 0.01 0.02
0.02 0.01 0.01 0.00 0.00 0.01 0.07 0.32 0.45 0.35 0.17 0.12 0.08 0.04 0.03 0.07 0.04 0.01 0.00 0.01 0.05 0.49 0.51 0.20 0.08 0.04 0.03 0.01 0.01 0.00 0.00 0.01 0.01 0.02 0.01 0.01 0.00 0.00 0.00 0.00 0.00 0.00 0.00 0.00 0.00 0.00 0.00 0.00 0.00 0.01 0.01 0.02 0.02 0.03
0.06 0.08 0.05 0.03 0.02 0.05 0.12 0.16 0.21 0.15 0.05 0.01 0.03 0.03 0.02 0.01 0.01 0.01 0.00 0.01 0.10 0.27 0.29 0.20 0.02 0.00 0.02 0.00 0.01 0.00 0.01 0.01 0.01 0.01 0.01 0.01 0.00 0.00 0.00 0.00 0.00 0.00 0.00 0.00 0.00 0.00 0.00 0.00 0.00 0.00 0.00 0.01 0.01 0.03
0.00 0.01 0.05 0.12 0.09 0.30 0.37 0.29 0.09 0.07 0.01 0.00 0.01 0.01 0.01 0.01 0.00 0.00 0.00 0.01 0.04 0.04 0.06 0.09 0.03 0.00 0.00 0.00 0.01 0.01 0.00 0.01 0.01 0.01 0.02 0.01 0.01 0.01 0.01 0.01 0.00 0.00 0.00 0.00 0.00 0.00 0.00 0.00 0.00 0.00 0.00 0.00 0.01 0.01
0.00 0.00 0.00 0.08 0.20 0.18 0.21 0.12 0.09 0.03 0.01 0.01 0.01 0.01 0.01 0.01 0.00 0.00 0.00 0.01 0.01 0.02 0.02 0.01 0.00 0.00 0.00 0.00 0.00 0.01 0.01 0.01 0.00 0.01 0.03 0.04 0.04 0.02 0.02 0.01 0.00 0.00 0.00 0.00 0.00 0.01 0.00 0.01 0.00 0.00 0.00 0.00 0.01 0.01
0.00 0.00 0.00 0.02 0.14 0.20 0.07 0.04 0.09 0.04 0.00 0.00 0.00 0.00 0.01 0.00 0.01 0.01 0.01 0.00 0.02 0.02 0.01 0.00 0.00 0.00 0.00 0.00 0.00 0.00 0.00 0.00 0.00 0.00 0.01 0.02 0.03 0.03 0.04 0.04 0.02 0.01 0.00 0.01 0.02 0.01 0.01 0.01 0.00 0.00 0.00 0.01 0.02 0.01
0.00 0.00 0.00 0.01 0.03 0.12 0.05 0.00 0.00 0.00 0.00 0.00 0.00 0.00 0.01 0.01 0.01 0.01 0.00 0.00 0.01 0.00 0.00 0.00 0.00 0.00 0.00 0.00 0.00 0.00 0.00 0.00 0.00 0.00 0.00 0.00 0.01 0.05 0.05 0.04 0.02 0.02 0.01 0.00 0.00 0.01 0.00 0.01 0.00 0.01 0.02 0.04 0.04 0.03
0.00 0.00 0.00 0.00 0.01 0.01 0.00 0.00 0.01 0.01 0.02 0.01 0.01 0.01 0.01 0.01 0.00 0.00 0.00 0.00 0.00 0.00 0.00 0.00 0.00 0.00 0.00 0.00 0.00 0.00 0.00 0.00 0.00 0.00 0.00 0.00 0.00 0.00 0.01 0.01 0.01 0.01 0.01 0.01 0.00 0.00 0.01 0.01 0.01 0.03 0.04 0.06 0.08 0.08
0.00 0.00 0.00 0.00 0.00 0.00 0.00 0.00 0.00 0.01 0.00 0.00 0.01 0.00 0.00 0.00 0.00 0.01 0.00 0.00 0.00 0.00 0.00 0.00 0.00 0.00 0.00 0.00 0.00 0.00 0.00 0.00 0.00 0.00 0.00 0.00 0.01 0.01 0.00 0.01 0.01 0.00 0.00 0.00 0.01 0.01 0.02 0.02 0.03 0.05 0.07 0.07 0.08 0.06
0.01 0.01 0.00 0.00 0.00 0.01 0.01 0.01 0.00 0.01 0.01 0.00 0.01 0.00 0.00 0.00 0.02 0.01 0.00 0.00 0.00 0.00 0.00 0.00 0.00 0.01 0.01 0.01 0.01 0.00 0.00 0.00 0.00 0.00 0.00 0.00 0.00 0.03 0.05 0.03 0.03 0.02 0.03 0.05 0.05 0.04 0.03 0.04 0.05 0.06 0.06 0.06 0.06 0.05
0.01 0.00 0.00 0.00 0.00 0.00 0.01 0.01 0.01 0.01 0.01 0.01 0.01 0.01 0.00 0.02 0.01 0.00 0.00 0.01 0.01 0.01 0.01 0.01 0.01 0.01 0.01 0.01 0.01 0.00 0.00 0.00 0.00 0.00 0.00 0.00 0.00 0.01 0.03 0.04 0.03 0.03 0.02 0.01 0.02 0.04 0.05 0.04 0.04 0.05 0.06 0.06 0.06 0.06
0.04 0.00 0.00 0.00 0.00 0.00 0.00 0.01 0.01 0.01 0.01 0.01 0.02 0.01 0.02 0.01 0.00 0.00 0.00 0.00 0.01 0.01 0.01 0.00 0.01 0.01 0.01 0.01 0.00 0.00 0.00 0.00 0.00 0.00 0.00 0.00 0.00 0.00 0.01 0.02 0.02 0.00 0.00 0.00 0.01 0.01 0.02 0.03 0.04 0.04 0.04 0.06 0.06 0.05
0.03 0.00 0.00 0.00 0.00 0.00 0.01 0.01 0.02 0.01 0.01 0.01 0.02 0.01 0.01 0.00 0.00 0.00 0.00 0.00 0.00 0.00 0.00 0.00 0.00 0.00 0.00 0.01 0.00 0.00 0.00 0.00 0.00 0.00 0.01 0.01 0.00 0.00 0.00 0.00 0.00 0.00 0.00 0.00 0.00 0.00 0.00 0.01 0.02 0.04 0.04 0.04 0.05 0.05
0.13 0.09 0.04 0.02 0.01 0.02 0.02 0.01 0.01 0.01 0.01 0.00 0.02 0.02 0.01 0.00 0.00 0.01 0.00 0.00 0.00 0.00 0.00 0.00 0.00 0.00 0.00 0.01 0.01 0.00 0.01 0.01 0.02 0.05 0.03 0.03 0.02 0.01 0.00 0.00 0.00 0.00 0.00 0.00 0.00 0.01 0.01 0.00 0.01 0.03 0.04 0.04 0.04 0.06
0.10 0.12 0.11 0.05 0.02 0.02 0.03 0.02 0.02 0.02 0.02 0.01 0.01 0.00 0.00 0.00 0.01 0.00 0.00 0.00 0.00 0.00 0.01 0.01 0.01 0.01 0.01 0.02 0.03 0.03 0.03 0.02 0.03 0.05 0.03 0.02 0.01 0.01 0.00 0.00 0.00 0.00 0.00 0.00 0.01 0.03 0.05 0.03 0.03 0.05 0.06 0.07 0.08 0.08
0.14 0.15 0.15 0.11 0.06 0.03 0.02 0.01 0.01 0.01 0.01 0.01 0.01 0.01 0.01 0.02 0.01 0.00 0.00 0.00 0.01 0.01 0.01 0.01 0.02 0.02 0.02 0.02 0.02 0.03 0.03 0.02 0.02 0.03 0.04 0.04 0.03 0.02 0.01 0.00 0.00 0.00 0.01 0.01 0.01 0.01 0.02 0.02 0.02 0.02 0.03 0.02 0.03 0.02
0.11 0.14 0.13 0.10 0.05 0.06 0.02 0.01 0.01 0.01 0.01 0.01 0.01 0.02 0.02 0.03 0.02 0.01 0.00 0.00 0.00 0.00 0.01 0.01 0.01 0.01 0.01 0.01 0.00 0.00 0.01 0.00 0.00 0.01 0.01 0.02 0.02 0.01 0.01 0.02 0.02 0.02 0.02 0.03 0.02 0.02 0.01 0.01 0.02 0.02 0.02 0.02 0.02 0.03
0.06 0.10 0.08 0.04 0.03 0.02 0.02 0.01 0.02 0.01 0.01 0.01 0.00 0.01 0.02 0.04 0.03 0.01 0.00 0.00 0.00 0.01 0.01 0.00 0.01 0.01 0.00 0.01 0.02 0.02 0.02 0.01 0.00 0.00 0.01 0.01 0.01 0.02 0.03 0.03 0.04 0.06 0.07 0.07 0.05 0.04 0.03 0.02 0.03 0.02 0.02 0.02 0.02 0.03

GFSWCAN_prec_precacc24_153.txt.gz
Total_Precipitation_Accumulation
0.28 0.25 0.24 0.23 0.19 0.15 0.12 0.11 0.09 0.06 0.03 0.00 0.01 0.03 0.11 0.12 0.14 0.21 0.16 0.11 0.18 0.28 0.10 0.09 0.20 0.25 0.17 0.15 0.19 0.22 0.38 0.35 0.38 0.28 0.24 0.16 0.13 0.06 0.05 0.02 0.03 0.11 0.25 0.30 0.36 0.49 0.19 0.01 0.01 0.04 0.01 0.01 0.00 0.00
0.21 0.23 0.17 0.15 0.13 0.11 0.12 0.15 0.10 0.10 0.14 0.07 0.03 0.05 0.24 0.28 0.28 0.45 0.30 0.18 0.19 0.30 0.17 0.09 0.09 0.17 0.19 0.17 0.20 0.20 0.32 0.31 0.42 0.37 0.18 0.10 0.05 0.04 0.05 0.08 0.05 0.06 0.03 0.06 0.10 0.13 0.04 0.01 0.02 0.01 0.00 0.00 0.00 0.00
0.13 0.13 0.12 0.12 0.12 0.10 0.10 0.11 0.14 0.13 0.25 0.33 0.18 0.15 0.40 0.47 0.39 0.48 0.30 0.18 0.32 0.56 0.33 0.17 0.21 0.16 0.18 0.27 0.21 0.33 0.20 0.13 0.22 0.26 0.34 0.31 0.19 0.08 0.05 0.03 0.03 0.02 0.02 0.04 0.06 0.00 0.00 0.00 0.00 0.00 0.00 0.00 0.00 0.00
0.04 0.06 0.06 0.06 0.06 0.07 0.07 0.07 0.09 0.12 0.21 0.46 0.63 0.51 0.49 0.41 0.47 0.51 0.44 0.30 0.41 0.67 0.51 0.21 0.30 0.20 0.17 0.48 0.17 0.20 0.14 0.08 0.14 0.32 0.59 0.43 0.28 0.17 0.15 0.11 0.11 0.08 0.14 0.16 0.14 0.04 0.02 0.01 0.01 0.03 0.04 0.02 0.00 0.00
0.04 0.07 0.06 0.06 0.05 0.05 0.07 0.06 0.07 0.07 0.16 0.44 0.75 0.71 0.60 0.61 0.58 0.67 0.52 0.44 0.37 0.61 0.59 0.31 0.35 0.27 0.15 0.57 0.31 0.18 0.18 0.18 0.26 0.35 0.38 0.27 0.14 0.18 0.17 0.16 0.06 0.01 0.05 0.08 0.06 0.09 0.10 0.11 0.08 0.08 0.09 0.03 0.01 0.00
0.04 0.05 0.06 0.06 0.05 0.04 0.07 0.08 0.04 0.07 0.16 0.46 0.57 0.62 0.89 0.90 0.80 1.16 1.06 0.44 0.34 0.33 0.65 0.43 0.24 0.32 0.24 0.74 0.60 0.28 0.37 0.26 0.40 0.49 0.26 0.13 0.08 0.18 0.22 0.11 0.03 0.02 0.03 0.04 0.06 0.04 0.04 0.03 0.02 0.02 0.03 0.03 0.02 0.00
0.05 0.04 0.05 0.05 0.04 0.03 0.03 0.11 0.04 0.07 0.17 0.28 0.29 0.40 0.62 0.48 0.50 0.62 0.39 0.22 0.32 0.59 1.07 0.54 0.21 0.24 0.36 0.78 0.98 0.66 0.69 0.64 0.48 0.54 0.31 0.12 0.13 0.24 0.23 0.04 0.00 0.02 0.06 0.06 0.04 0.02 0.01 0.00 0.00 0.00 0.00 0.00 0.01 0.00
0.13 0.06 0.04 0.03 0.03 0.02 0.02 0.07 0.03 0.03 0.08 0.11 0.16 0.12 0.19 0.40 0.50 0.46 0.44 0.44 0.57 0.85 0.63 0.34 0.11 0.16 0.30 0.79 1.22 0.91 1.04 1.08 0.71 0.43 0.24 0.14 0.14 0.30 0.23 0.02 0.01 0.01 0.01 0.03 0.04 0.04 0.01 0.01 0.02 0.01 0.00 0.00 0.00 0.00
0.13 0.07 0.05 0.04 0.04 0.03 0.01 0.01 0.01 0.02 0.03 0.09 0.11 0.10 0.28 0.33 0.27 0.09 0.08 0.28 0.64 0.45 0.25 0.05 0.04 0.16 0.14 0.32 0.70 0.62 0.47 0.63 0.45 0.21 0.12 0.21 0.19 0.18 0.03 0.03 0.04 0.03 0.02 0.02 0.02 0.03 0.03 0.03 0.02 0.03 0.01 0.00 0.00 0.00
0.11 0.06 0.02 0.02 0.02 0.01 0.00 0.00 0.00 0.01 0.04 0.08 0.15 0.13 0.19 0.12 0.06 0.05 0.10 0.10 0.41 0.31 0.14 0.05 0.03 0.09 0.15 0.16 0.16 0.36 0.30 0.19 0.22 0.12 0.14 0.21 0.09 0.01 0.01 0.03 0.05 0.03 0.03 0.03 0.03 0.06 0.06 0.05 0.02 0.01 0.00 0.00 0.00 0.00
0.03 0.02 0.02 0.01 0.01 0.01 0.00 0.00 0.01 0.03 0.08 0.09 0.14 0.12 0.11 0.04 0.08 0.05 0.09 0.08 0.06 0.07 0.02 0.00 0.00 0.04 0.10 0.21 0.14 0.15 0.22 0.15 0.16 0.15 0.12 0.09 0.02 0.03 0.01 0.01 0.02 0.01 0.02 0.01 0.01 0.01 0.00 0.00 0.00 0.00 0.00 0.00 0.00 0.00
0.03 0.02 0.01 0.00 0.00 0.00 0.00 0.00 0.02 0.08 0.10 0.11 0.10 0.06 0.04 0.03 0.06 0.05 0.05 0.03 0.03 0.07 0.04 0.02 0.03 0.12 0.18 0.18 0.19 0.13 0.18 0.19 0.18 0.16 0.11 0.09 0.04 0.02 0.02 0.00 0.01 0.00 0.00 0.00 0.00 0.00 0.00 0.00 0.00 0.00 0.00 0.00 0.00 0.00
0.06 0.02 0.01 0.00 0.00 0.00 0.00 0.00 0.03 0.10 0.14 0.13 0.15 0.05 0.07 0.03 0.09 0.03 0.03 0.02 0.12 0.15 0.06 0.07 0.18 0.15 0.20 0.26 0.28 0.20 0.05 0.17 0.18 0.46 0.31 0.07 0.03 0.00 0.00 0.00 0.00 0.00 0.00 0.00 0.00 0.00 0.00 0.00 0.00 0.00 0.00 0.00 0.00 0.00
0.05 0.02 0.01 0.01 0.00 0.00 0.01 0.05 0.11 0.14 0.27 0.31 0.22 0.16 0.18 0.15 0.04 0.07 0.13 0.36 0.20 0.40 0.37 0.29 0.26 0.29 0.27 0.09 0.12 0.16 0.07 0.03 0.06 0.08 0.05 0.02 0.01 0.00 0.00 0.00 0.00 0.00 0.01 0.01 0.00 0.00 0.00 0.00 0.00 0.00 0.00 0.00 0.00 0.00
0.05 0.04 0.05 0.04 0.04 0.03 0.03 0.08 0.12 0.32 0.39 0.37 0.28 0.29 0.07 0.21 0.13 0.08 0.06 0.02 0.03 0.30 0.73 0.58 0.44 0.35 0.16 0.03 0.05 0.02 0.07 0.05 0.01 0.02 0.04 0.01 0.00 0.01 0.02 0.02 0.01 0.00 0.00 0.00 0.00 0.00 0.00 0.00 0.00 0.00 0.00 0.00 0.00 0.00
0.02 0.03 0.04 0.04 0.03 0.03 0.04 0.12 0.26 0.56 0.50 0.34 0.22 0.16 0.09 0.08 0.09 0.04 0.01 0.01 0.08 0.65 0.74 0.42 0.28 0.25 0.09 0.01 0.02 0.00 0.00 0.01 0.05 0.02 0.01 0.00 0.00 0.00 0.01 0.00 0.00 0.00 0.00 0.00 0.00 0.00 0.00 0.00 0.00 0.00 0.01 0.01 0.00 0.00
0.02 0.01 0.01 0.00 0.00 0.01 0.07 0.35 0.49 0.36 0.18 0.13 0.07 0.03 0.03 0.07 0.06 0.04 0.03 0.03 0.07 0.49 0.53 0.24 0.11 0.07 0.06 0.03 0.01 0.01 0.01 0.03 0.01 0.01 0.00 0.00 0.00 0.00 0.00 0.00 0.00 0.00 0.00 0.00 0.00 0.00 0.00 0.00 0.00 0.00 0.01 0.01 0.01 0.01
0.08 0.14 0.09 0.05 0.02 0.05 0.13 0.18 0.25 0.17 0.06 0.01 0.03 0.03 0.02 0.01 0.01 0.02 0.02 0.02 0.12 0.30 0.33 0.27 0.07 0.03 0.04 0.02 0.01 0.02 0.02 0.01 0.01 0.00 0.01 0.00 0.00 0.00 0.00 0.00 0.00 0.00 0.00 0.00 0.00 0.00 0.00 0.00 0.00 0.00 0.00 0.01 0.01 0.02
0.02 0.06 0.17 0.18 0.10 0.31 0.41 0.32 0.14 0.10 0.01 0.00 0.01 0.01 0.01 0.01 0.01 0.01 0.01 0.02 0.06 0.07 0.11 0.16 0.12 0.04 0.01 0.01 0.02 0.01 0.00 0.00 0.00 0.00 0.02 0.01 0.00 0.00 0.00 0.00 0.00 0.00 0.00 0.00 0.00 0.00 0.00 0.00 0.00 0.00 0.00 0.00 0.01 0.01
0.00 0.00 0.02 0.13 0.25 0.24 0.30 0.20 0.10 0.04 0.01 0.01 0.01 0.01 0.01 0.01 0.00 0.00 0.00 0.01 0.02 0.03 0.03 0.02 0.02 0.04 0.02 0.01 0.00 0.01 0.01 0.01 0.00 0.01 0.02 0.04 0.04 0.02 0.01 0.01 0.00 0.00 0.00 0.00 0.00 0.01 0.00 0.01 0.00 0.00 0.00 0.00 0.01 0.01
0.00 0.00 0.00 0.07 0.28 0.29 0.12 0.08 0.11 0.05 0.01 0.01 0.00 0.00 0.01 0.00 0.01 0.01 0.01 0.00 0.02 0.03 0.01 0.00 0.01 0.02 0.00 0.00 0.00 0.00 0.00 0.00 0.00 0.00 0.00 0.01 0.03 0.03 0.04 0.04 0.02 0.01 0.01 0.01 0.02 0.02 0.01 0.01 0.00 0.00 0.00 0.01 0.01 0.01
0.00 0.00 0.00 0.02 0.10 0.25 0.11 0.01 0.02 0.02 0.01 0.02 0.01 0.01 0.02 0.02 0.02 0.01 0.00 0.00 0.01 0.00 0.00 0.00 0.00 0.00 0.00 0.00 0.00 0.00 0.00 0.00 0.00 0.00 0.00 0.00 0.01 0.05 0.05 0.04 0.02 0.02 0.01 0.00 0.00 0.01 0.00 0.01 0.00 0.00 0.01 0.02 0.03 0.02
0.00 0.01 0.02 0.01 0.02 0.01 0.01 0.00 0.02 0.02 0.04 0.03 0.02 0.02 0.02 0.02 0.01 0.00 0.00 0.00 0.00 0.00 0.00 0.00 0.00 0.00 0.00 0.00 0.00 0.00 0.00 0.00 0.00 0.00 0.00 0.00 0.00 0.00 0.01 0.01 0.01 0.01 0.01 0.01 0.00 0.00 0.01 0.01 0.00 0.03 0.04 0.05 0.06 0.06
0.01 0.02 0.03 0.03 0.02 0.01 0.00 0.00 0.01 0.02 0.02 0.02 0.03 0.01 0.01 0.01 0.01 0.01 0.00 0.00 0.01 0.00 0.00 0.00 0.00 0.00 0.00 0.00 0.00 0.00 0.00 0.00 0.00 0.00 0.00 0.00 0.01 0.01 0.00 0.01 0.01 0.01 0.00 0.01 0.01 0.01 0.02 0.02 0.02 0.04 0.06 0.06 0.06 0.05
0.04 0.04 0.03 0.06 0.02 0.02 0.01 0.01 0.01 0.01 0.01 0.01 0.01 0.01 0.01 0.01 0.03 0.01 0.00 0.00 0.00 0.00 0.00 0.00 0.00 0.00 0.00 0.00 0.01 0.00 0.00 0.00 0.00 0.00 0.00 0.00 0.01 0.04 0.05 0.03 0.03 0.02 0.03 0.06 0.06 0.04 0.03 0.04 0.04 0.05 0.05 0.05 0.05 0.04
0.03 0.02 0.01 0.01 0.01 0.01 0.01 0.01 0.01 0.00 0.01 0.02 0.02 0.01 0.00 0.03 0.02 0.00 0.00 0.01 0.00 0.00 0.00 0.00 0.00 0.01 0.01 0.01 0.01 0.00 0.01 0.00 0.00 0.01 0.00 0.00 0.01 0.02 0.04 0.04 0.04 0.03 0.02 0.02 0.02 0.05 0.04 0.04 0.03 0.04 0.05 0.06 0.06 0.05
0.10 0.02 0.00 0.00 0.00 0.00 0.01 0.01 0.01 0.01 0.02 0.01 0.04 0.02 0.03 0.02 0.00 0.00 0.00 0.00 0.01 0.01 0.00 0.00 0.00 0.01 0.01 0.00 0.00 0.00 0.00 0.00 0.00 0.00 0.00 0.00 0.00 0.01 0.03 0.04 0.03 0.01 0.00 0.00 0.01 0.01 0.03 0.03 0.03 0.03 0.04 0.06 0.05 0.03
0.10 0.03 0.02 0.01 0.00 0.01 0.02 0.03 0.03 0.03 0.03 0.03 0.03 0.03 0.02 0.01 0.01 0.01 0.01 0.00 0.00 0.00 0.00 0.00 0.00 0.00 0.00 0.00 0.00 0.00 0.00 0.00 0.00 0.00 0.01 0.02 0.00 0.00 0.00 0.01 0.00 0.00 0.00 0.00 0.00 0.00 0.01 0.02 0.03 0.04 0.04 0.04 0.04 0.04
0.24 0.15 0.09 0.05 0.03 0.05 0.03 0.03 0.03 0.02 0.01 0.01 0.04 0.05 0.04 0.02 0.01 0.04 0.01 0.00 0.00 0.00 0.00 0.00 0.00 0.00 0.00 0.01 0.01 0.00 0.01 0.00 0.02 0.05 0.04 0.04 0.04 0.02 0.00 0.00 0.00 0.00 0.00 0.00 0.01 0.01 0.01 0.01 0.01 0.03 0.04 0.04 0.03 0.05
0.11 0.12 0.14 0.08 0.05 0.05 0.09 0.07 0.09 0.04 0.02 0.01 0.02 0.01 0.02 0.03 0.01 0.00 0.00 0.00 0.00 0.00 0.00 0.00 0.01 0.00 0.01 0.02 0.02 0.03 0.03 0.02 0.04 0.05 0.04 0.03 0.03 0.02 0.00 0.00 0.00 0.00 0.00 0.00 0.01 0.04 0.06 0.04 0.03 0.04 0.06 0.07 0.10 0.10
0.16 0.20 0.19 0.17 0.16 0.09 0.07 0.02 0.02 0.02 0.02 0.02 0.01 0.02 0.03 0.04 0.01 0.00 0.00 0.01 0.01 0.01 0.01 0.01 0.01 0.01 0.01 0.02 0.02 0.03 0.03 0.02 0.02 0.03 0.05 0.04 0.03 0.03 0.01 0.00 0.00 0.00 0.00 0.00 0.01 0.01 0.02 0.03 0.04 0.03 0.03 0.02 0.03 0.03
0.11 0.16 0.17 0.15 0.12 0.10 0.03 0.01 0.02 0.03 0.02 0.02 0.02 0.02 0.02 0.03 0.03 0.01 0.01 0.01 0.00 0.00 0.01 0.01 0.01 0.01 0.01 0.01 0.01 0.01 0.02 0.01 0.01 0.01 0.02 0.02 0.02 0.01 0.02 0.02 0.03 0.03 0.02 0.03 0.02 0.02 0.01 0.01 0.03 0.03 0.02 0.02 0.02 0.03
0.06 0.13 0.12 0.05 0.03 0.02 0.02 0.02 0.05 0.03 0.04 0.05 0.04 0.02 0.03 0.04 0.04 0.03 0.02 0.01 0.01 0.01 0.01 0.00 0.01 0.01 0.01 0.01 0.03 0.03 0.03 0.02 0.01 0.01 0.01 0.01 0.01 0.02 0.03 0.03 0.04 0.06 0.07 0.08 0.06 0.05 0.03 0.02 0.02 0.02 0.02 0.02 0.02 0.03

GFSWCAN_prec_precacc24_156.txt.gz
Total_Precipitation_Accumulation
0.20 0.19 0.20 0.23 0.20 0.16 0.12 0.11 0.08 0.05 0.02 0.00 0.01 0.01 0.01 0.02 0.02 0.05 0.04 0.05 0.10 0.22 0.08 0.08 0.19 0.23 0.15 0.10 0.14 0.19 0.35 0.33 0.35 0.26 0.22 0.15 0.12 0.06 0.04 0.01 0.02 0.08 0.21 0.29 0.36 0.50 0.20 0.01 0.01 0.05 0.03 0.02 0.02 0.01
0.20 0.21 0.18 0.16 0.13 0.11 0.12 0.16 0.12 0.08 0.06 0.02 0.02 0.02 0.02 0.05 0.05 0.13 0.07 0.03 0.09 0.25 0.16 0.08 0.09 0.16 0.18 0.16 0.19 0.19 0.31 0.31 0.41 0.36 0.17 0.09 0.05 0.03 0.05 0.07 0.05 0.05 0.02 0.03 0.07 0.10 0.03 0.01 0.02 0.01 0.01 0.00 0.00 0.01
0.14 0.14 0.12 0.13 0.12 0.10 0.11 0.12 0.15 0.10 0.07 0.06 0.06 0.03 0.02 0.06 0.14 0.25 0.15 0.10 0.24 0.49 0.32 0.17 0.21 0.16 0.18 0.27 0.20 0.30 0.18 0.12 0.21 0.24 0.31 0.27 0.16 0.06 0.03 0.01 0.01 0.01 0.02 0.04 0.06 0.00 0.00 0.00 0.00 0.00 0.00 0.00 0.00 0.00
0.05 0.07 0.07 0.07 0.07 0.08 0.07 0.08 0.09 0.10 0.08 0.20 0.30 0.15 0.13 0.24 0.34 0.42 0.41 0.29 0.40 0.67 0.51 0.21 0.30 0.20 0.17 0.48 0.17 0.19 0.14 0.07 0.13 0.30 0.58 0.40 0.26 0.15 0.11 0.06 0.05 0.03 0.09 0.11 0.11 0.03 0.01 0.01 0.01 0.03 0.04 0.02 0.00 0.00
0.05 0.08 0.07 0.08 0.07 0.07 0.08 0.07 0.08 0.08 0.14 0.33 0.50 0.46 0.51 0.59 0.56 0.63 0.51 0.44 0.37 0.61 0.60 0.31 0.35 0.27 0.15 0.57 0.31 0.18 0.18 0.18 0.25 0.35 0.38 0.27 0.14 0.16 0.14 0.12 0.05 0.00 0.02 0.04 0.03 0.04 0.07 0.05 0.03 0.06 0.08 0.03 0.02 0.01
0.06 0.08 0.07 0.10 0.12 0.05 0.08 0.08 0.05 0.08 0.16 0.44 0.49 0.56 0.86 0.90 0.78 1.15 1.05 0.44 0.34 0.33 0.66 0.43 0.24 0.32 0.23 0.74 0.60 0.28 0.37 0.25 0.39 0.50 0.26 0.13 0.06 0.14 0.20 0.11 0.02 0.01 0.01 0.02 0.04 0.02 0.03 0.01 0.00 0.01 0.03 0.03 0.02 0.02
0.07 0.05 0.07 0.07 0.15 0.07 0.04 0.13 0.05 0.09 0.19 0.29 0.30 0.41 0.63 0.48 0.48 0.62 0.38 0.23 0.33 0.60 1.07 0.55 0.20 0.23 0.35 0.78 0.96 0.64 0.65 0.60 0.46 0.54 0.32 0.12 0.12 0.24 0.24 0.05 0.00 0.01 0.05 0.05 0.04 0.02 0.01 0.00 0.00 0.01 0.01 0.01 0.02 0.02
0.14 0.06 0.08 0.07 0.05 0.06 0.03 0.13 0.09 0.07 0.22 0.16 0.18 0.15 0.19 0.40 0.49 0.43 0.43 0.44 0.57 0.84 0.64 0.35 0.09 0.17 0.30 0.77 1.17 0.84 1.00 1.08 0.74 0.45 0.25 0.15 0.13 0.31 0.26 0.01 0.00 0.00 0.01 0.03 0.04 0.04 0.01 0.01 0.02 0.02 0.03 0.11 0.18 0.13
0.15 0.08 0.06 0.06 0.06 0.06 0.02 0.13 0.13 0.04 0.10 0.11 0.10 0.09 0.27 0.31 0.26 0.07 0.08 0.28 0.65 0.46 0.28 0.06 0.03 0.16 0.13 0.33 0.69 0.60 0.47 0.64 0.45 0.22 0.13 0.24 0.23 0.19 0.04 0.00 0.02 0.01 0.02 0.02 0.03 0.06 0.05 0.05 0.03 0.03 0.01 0.02 0.12 0.08
0.11 0.06 0.03 0.04 0.07 0.07 0.02 0.04 0.04 0.00 0.02 0.07 0.14 0.12 0.17 0.11 0.05 0.05 0.11 0.13 0.44 0.35 0.15 0.06 0.04 0.09 0.10 0.13 0.20 0.36 0.30 0.18 0.21 0.12 0.13 0.20 0.06 0.00 0.00 0.01 0.04 0.03 0.03 0.03 0.05 0.13 0.15 0.14 0.10 0.04 0.01 0.00 0.00 0.00
0.05 0.05 0.04 0.04 0.03 0.03 0.00 0.00 0.00 0.02 0.05 0.06 0.09 0.10 0.10 0.05 0.10 0.08 0.15 0.13 0.08 0.08 0.02 0.00 0.00 0.02 0.06 0.10 0.12 0.14 0.22 0.17 0.13 0.17 0.12 0.09 0.01 0.00 0.00 0.01 0.02 0.01 0.02 0.01 0.01 0.02 0.03 0.04 0.00 0.00 0.00 0.00 0.00 0.00
0.04 0.02 0.01 0.01 0.01 0.00 0.00 0.00 0.01 0.06 0.07 0.08 0.11 0.13 0.05 0.08 0.09 0.07 0.05 0.03 0.04 0.03 0.02 0.01 0.02 0.01 0.07 0.07 0.10 0.10 0.15 0.20 0.13 0.14 0.09 0.06 0.03 0.01 0.01 0.00 0.01 0.00 0.00 0.00 0.00 0.00 0.00 0.00 0.00 0.00 0.01 0.00 0.00 0.00
0.06 0.02 0.01 0.00 0.00 0.00 0.00 0.00 0.01 0.07 0.13 0.09 0.10 0.10 0.08 0.05 0.05 0.01 0.01 0.01 0.05 0.09 0.03 0.05 0.12 0.05 0.10 0.14 0.26 0.20 0.06 0.16 0.18 0.46 0.31 0.06 0.04 0.00 0.00 0.00 0.00 0.00 0.00 0.00 0.00 0.00 0.00 0.00 0.00 0.01 0.00 0.00 0.00 0.00
0.04 0.02 0.01 0.02 0.02 0.00 0.00 0.00 0.04 0.12 0.25 0.21 0.19 0.13 0.09 0.13 0.01 0.05 0.09 0.32 0.18 0.37 0.35 0.26 0.25 0.27 0.24 0.09 0.11 0.16 0.09 0.04 0.06 0.08 0.06 0.06 0.03 0.00 0.00 0.00 0.00 0.00 0.01 0.01 0.00 0.00 0.00 0.00 0.00 0.00 0.00 0.00 0.00 0.00
0.05 0.03 0.03 0.01 0.01 0.00 0.01 0.03 0.10 0.31 0.40 0.37 0.29 0.29 0.08 0.20 0.13 0.08 0.06 0.04 0.05 0.29 0.68 0.55 0.44 0.37 0.22 0.05 0.05 0.02 0.08 0.05 0.01 0.03 0.11 0.04 0.00 0.01 0.02 0.02 0.01 0.00 0.00 0.00 0.00 0.00 0.00 0.00 0.00 0.00 0.00 0.00 0.00 0.00
0.03 0.03 0.03 0.02 0.01 0.01 0.03 0.10 0.24 0.58 0.55 0.34 0.22 0.15 0.08 0.07 0.09 0.04 0.01 0.01 0.09 0.64 0.70 0.41 0.31 0.30 0.12 0.02 0.03 0.01 0.00 0.02 0.11 0.09 0.03 0.00 0.00 0.00 0.01 0.00 0.00 0.00 0.00 0.00 0.00 0.00 0.00 0.00 0.00 0.00 0.00 0.00 0.00 0.00
0.02 0.02 0.01 0.00 0.00 0.01 0.07 0.35 0.50 0.37 0.19 0.13 0.07 0.03 0.03 0.06 0.08 0.10 0.06 0.05 0.11 0.47 0.52 0.27 0.14 0.11 0.11 0.06 0.03 0.03 0.04 0.08 0.02 0.00 0.00 0.00 0.00 0.00 0.00 0.00 0.00 0.00 0.00 0.00 0.00 0.00 0.00 0.00 0.00 0.00 0.00 0.01 0.01 0.01
0.09 0.16 0.09 0.05 0.02 0.05 0.13 0.21 0.29 0.19 0.07 0.01 0.02 0.02 0.02 0.01 0.02 0.03 0.06 0.07 0.12 0.28 0.35 0.31 0.09 0.06 0.07 0.04 0.04 0.07 0.05 0.01 0.00 0.00 0.00 0.00 0.00 0.00 0.00 0.00 0.00 0.00 0.00 0.00 0.00 0.00 0.00 0.00 0.00 0.00 0.00 0.01 0.01 0.02
0.08 0.24 0.33 0.23 0.10 0.32 0.42 0.33 0.15 0.13 0.02 0.01 0.01 0.01 0.02 0.02 0.02 0.02 0.03 0.04 0.08 0.09 0.12 0.18 0.14 0.05 0.02 0.02 0.05 0.02 0.01 0.00 0.00 0.00 0.01 0.00 0.00 0.01 0.01 0.00 0.00 0.00 0.00 0.00 0.00 0.00 0.00 0.00 0.00 0.00 0.00 0.00 0.01 0.01
0.04 0.03 0.06 0.25 0.29 0.30 0.36 0.25 0.12 0.05 0.02 0.03 0.01 0.01 0.02 0.02 0.02 0.02 0.01 0.01 0.03 0.05 0.05 0.03 0.03 0.08 0.13 0.07 0.02 0.03 0.02 0.00 0.00 0.00 0.02 0.03 0.03 0.01 0.01 0.01 0.00 0.00 0.00 0.00 0.00 0.01 0.00 0.01 0.00 0.00 0.00 0.00 0.00 0.01
0.00 0.00 0.00 0.11 0.41 0.39 0.18 0.18 0.14 0.05 0.02 0.02 0.02 0.01 0.03 0.03 0.02 0.02 0.02 0.02 0.03 0.03 0.01 0.00 0.02 0.05 0.02 0.00 0.00 0.00 0.00 0.00 0.00 0.00 0.00 0.01 0.03 0.03 0.04 0.04 0.02 0.01 0.01 0.01 0.02 0.01 0.01 0.01 0.00 0.00 0.00 0.01 0.00 0.00
0.02 0.01 0.01 0.04 0.20 0.41 0.17 0.03 0.06 0.06 0.03 0.05 0.04 0.04 0.06 0.06 0.03 0.03 0.02 0.02 0.01 0.00 0.00 0.00 0.02 0.02 0.00 0.00 0.00 0.00 0.00 0.00 0.00 0.00 0.00 0.00 0.01 0.04 0.05 0.04 0.02 0.02 0.01 0.00 0.00 0.01 0.00 0.00 0.00 0.00 0.01 0.01 0.02 0.01
0.01 0.02 0.06 0.02 0.03 0.03 0.02 0.01 0.03 0.02 0.06 0.05 0.04 0.05 0.03 0.04 0.03 0.02 0.01 0.00 0.00 0.00 0.00 0.00 0.00 0.00 0.00 0.00 0.00 0.00 0.00 0.00 0.00 0.00 0.00 0.00 0.00 0.00 0.01 0.01 0.01 0.01 0.01 0.01 0.00 0.00 0.00 0.01 0.01 0.02 0.03 0.04 0.05 0.05
0.03 0.06 0.07 0.09 0.03 0.02 0.00 0.00 0.01 0.03 0.03 0.03 0.04 0.02 0.02 0.03 0.02 0.01 0.01 0.00 0.04 0.01 0.00 0.00 0.00 0.00 0.00 0.00 0.00 0.00 0.00 0.00 0.00 0.00 0.00 0.00 0.01 0.01 0.00 0.01 0.01 0.01 0.00 0.01 0.01 0.01 0.01 0.02 0.02 0.04 0.05 0.05 0.05 0.04
0.07 0.06 0.07 0.12 0.04 0.04 0.02 0.01 0.01 0.01 0.01 0.01 0.02 0.01 0.02 0.02 0.03 0.01 0.00 0.01 0.04 0.01 0.00 0.00 0.00 0.00 0.01 0.01 0.01 0.01 0.00 0.00 0.00 0.00 0.01 0.01 0.02 0.06 0.06 0.03 0.03 0.02 0.03 0.06 0.06 0.03 0.03 0.04 0.04 0.04 0.05 0.04 0.04 0.03
0.05 0.04 0.02 0.04 0.05 0.02 0.02 0.01 0.02 0.00 0.01 0.02 0.03 0.02 0.02 0.05 0.03 0.00 0.00 0.03 0.01 0.00 0.00 0.00 0.01 0.01 0.01 0.01 0.01 0.01 0.01 0.00 0.01 0.01 0.01 0.01 0.01 0.03 0.05 0.06 0.04 0.03 0.02 0.02 0.03 0.05 0.04 0.03 0.03 0.04 0.05 0.04 0.05 0.04
0.15 0.07 0.01 0.00 0.01 0.01 0.02 0.01 0.01 0.01 0.02 0.02 0.03 0.04 0.04 0.02 0.00 0.00 0.01 0.02 0.03 0.01 0.00 0.00 0.00 0.00 0.00 0.00 0.00 0.00 0.00 0.00 0.00 0.00 0.00 0.00 0.00 0.01 0.04 0.06 0.05 0.03 0.01 0.00 0.01 0.01 0.03 0.03 0.03 0.03 0.02 0.04 0.04 0.02
0.24 0.13 0.07 0.03 0.00 0.01 0.04 0.06 0.06 0.04 0.04 0.03 0.05 0.04 0.03 0.02 0.04 0.05 0.03 0.03 0.02 0.01 0.00 0.01 0.00 0.00 0.00 0.00 0.00 0.00 0.00 0.00 0.00 0.00 0.01 0.01 0.00 0.00 0.00 0.01 0.01 0.00 0.01 0.00 0.00 0.00 0.01 0.02 0.03 0.04 0.04 0.03 0.02 0.02
0.28 0.15 0.09 0.07 0.06 0.07 0.04 0.03 0.04 0.04 0.03 0.04 0.06 0.07 0.07 0.06 0.07 0.09 0.02 0.00 0.00 0.00 0.00 0.00 0.00 0.00 0.00 0.00 0.00 0.00 0.01 0.01 0.02 0.05 0.04 0.04 0.05 0.04 0.02 0.01 0.00 0.00 0.00 0.00 0.01 0.01 0.02 0.02 0.03 0.04 0.04 0.04 0.03 0.03
0.11 0.13 0.15 0.09 0.09 0.10 0.15 0.10 0.12 0.06 0.02 0.02 0.04 0.04 0.05 0.11 0.11 0.03 0.00 0.00 0.00 0.00 0.00 0.00 0.00 0.00 0.01 0.01 0.02 0.03 0.02 0.02 0.03 0.06 0.05 0.04 0.04 0.03 0.01 0.00 0.00 0.00 0.00 0.00 0.01 0.05 0.08 0.06 0.06 0.07 0.08 0.10 0.12 0.13
0.16 0.22 0.24 0.19 0.22 0.22 0.15 0.05 0.03 0.03 0.02 0.02 0.01 0.02 0.09 0.17 0.08 0.02 0.01 0.01 0.01 0.01 0.00 0.01 0.01 0.01 0.01 0.01 0.02 0.03 0.03 0.03 0.03 0.04 0.05 0.04 0.03 0.02 0.01 0.01 0.01 0.01 0.01 0.00 0.01 0.01 0.03 0.05 0.05 0.04 0.03 0.03 0.04 0.05
0.11 0.18 0.21 0.18 0.13 0.11 0.05 0.02 0.04 0.05 0.04 0.03 0.04 0.02 0.02 0.05 0.09 0.04 0.03 0.01 0.01 0.01 0.01 0.01 0.01 0.01 0.01 0.02 0.02 0.03 0.04 0.03 0.02 0.02 0.03 0.03 0.02 0.01 0.02 0.02 0.03 0.03 0.03 0.03 0.03 0.02 0.02 0.02 0.03 0.04 0.04 0.03 0.03 0.04
0.05 0.14 0.14 0.05 0.03 0.02 0.01 0.03 0.09 0.06 0.09 0.12 0.13 0.08 0.08 0.14 0.12 0.11 0.07 0.03 0.03 0.02 0.01 0.01 0.01 0.02 0.02 0.02 0.04 0.03 0.03 0.02 0.01 0.01 0.01 0.01 0.01 0.02 0.03 0.03 0.04 0.07 0.09 0.10 0.08 0.06 0.05 0.03 0.03 0.02 0.01 0.02 0.02 0.03

GFSWCAN_prec_precacc24_159.txt.gz
Total_Precipitation_Accumulation
0.18 0.16 0.17 0.16 0.13 0.11 0.11 0.11 0.08 0.05 0.02 0.00 0.01 0.01 0.01 0.01 0.01 0.03 0.01 0.01 0.05 0.08 0.01 0.00 0.01 0.06 0.09 0.04 0.05 0.07 0.20 0.28 0.34 0.25 0.21 0.15 0.12 0.06 0.04 0.01 0.01 0.04 0.13 0.25 0.33 0.47 0.18 0.01 0.01 0.05 0.04 0.02 0.02 0.01
0.17 0.19 0.17 0.16 0.13 0.11 0.13 0.16 0.11 0.08 0.06 0.02 0.01 0.01 0.01 0.02 0.03 0.07 0.03 0.00 0.04 0.09 0.02 0.00 0.01 0.05 0.13 0.11 0.10 0.13 0.26 0.28 0.40 0.36 0.17 0.09 0.05 0.03 0.05 0.07 0.05 0.05 0.01 0.01 0.02 0.07 0.02 0.01 0.02 0.01 0.01 0.01 0.00 0.01
0.14 0.14 0.13 0.13 0.12 0.10 0.11 0.12 0.15 0.10 0.07 0.05 0.03 0.02 0.01 0.02 0.04 0.11 0.05 0.03 0.10 0.23 0.14 0.03 0.09 0.13 0.14 0.16 0.14 0.22 0.12 0.10 0.20 0.23 0.30 0.25 0.16 0.06 0.03 0.01 0.01 0.01 0.02 0.04 0.05 0.00 0.00 0.00 0.00 0.00 0.00 0.00 0.00 0.00
0.06 0.08 0.08 0.07 0.08 0.09 0.07 0.08 0.09 0.10 0.07 0.05 0.07 0.07 0.07 0.07 0.09 0.14 0.15 0.11 0.19 0.38 0.28 0.13 0.29 0.19 0.14 0.38 0.15 0.16 0.11 0.05 0.11 0.29 0.58 0.40 0.25 0.15 0.11 0.06 0.05 0.02 0.04 0.03 0.02 0.00 0.00 0.00 0.00 0.01 0.02 0.01 0.00 0.00
0.06 0.09 0.08 0.08 0.07 0.07 0.08 0.07 0.08 0.07 0.07 0.06 0.16 0.22 0.25 0.24 0.21 0.33 0.22 0.19 0.20 0.48 0.54 0.31 0.35 0.27 0.15 0.57 0.30 0.16 0.17 0.17 0.25 0.34 0.38 0.27 0.14 0.16 0.14 0.12 0.05 0.00 0.02 0.02 0.01 0.00 0.03 0.01 0.01 0.01 0.02 0.01 0.00 0.01
0.07 0.09 0.09 0.11 0.12 0.07 0.08 0.09 0.05 0.07 0.07 0.20 0.27 0.49 0.69 0.60 0.53 0.93 0.86 0.38 0.32 0.32 0.65 0.43 0.24 0.32 0.23 0.74 0.60 0.28 0.37 0.25 0.39 0.50 0.26 0.13 0.06 0.14 0.20 0.11 0.02 0.01 0.01 0.01 0.01 0.00 0.01 0.00 0.00 0.00 0.00 0.00 0.00 0.02
0.08 0.06 0.09 0.09 0.19 0.12 0.06 0.14 0.06 0.08 0.16 0.24 0.26 0.40 0.62 0.47 0.46 0.61 0.38 0.25 0.33 0.60 1.07 0.55 0.20 0.23 0.35 0.78 0.96 0.64 0.65 0.60 0.44 0.53 0.32 0.12 0.11 0.24 0.24 0.05 0.00 0.01 0.04 0.05 0.04 0.02 0.01 0.00 0.00 0.01 0.01 0.01 0.02 0.02
0.17 0.08 0.08 0.12 0.14 0.24 0.05 0.14 0.11 0.08 0.23 0.18 0.19 0.16 0.21 0.40 0.49 0.43 0.43 0.44 0.57 0.84 0.64 0.35 0.09 0.20 0.31 0.77 1.17 0.84 1.00 1.06 0.71 0.44 0.24 0.15 0.12 0.30 0.27 0.01 0.00 0.00 0.01 0.03 0.04 0.04 0.01 0.01 0.02 0.02 0.03 0.11 0.20 0.18
0.16 0.09 0.08 0.15 0.13 0.20 0.04 0.15 0.18 0.06 0.19 0.18 0.13 0.14 0.27 0.31 0.26 0.07 0.09 0.28 0.65 0.46 0.28 0.06 0.03 0.18 0.18 0.35 0.68 0.59 0.46 0.61 0.43 0.21 0.13 0.22 0.22 0.18 0.04 0.00 0.01 0.01 0.00 0.01 0.03 0.06 0.05 0.05 0.03 0.03 0.01 0.02 0.24 0.33
0.12 0.07 0.05 0.10 0.13 0.10 0.04 0.12 0.17 0.04 0.14 0.12 0.15 0.12 0.17 0.11 0.05 0.05 0.11 0.13 0.45 0.36 0.15 0.06 0.04 0.12 0.11 0.16 0.23 0.38 0.30 0.17 0.20 0.12 0.13 0.20 0.06 0.00 0.00 0.00 0.01 0.03 0.03 0.03 0.05 0.13 0.16 0.24 0.17 0.06 0.01 0.03 0.12 0.03
0.07 0.07 0.05 0.08 0.16 0.09 0.03 0.10 0.08 0.03 0.05 0.05 0.07 0.09 0.09 0.06 0.11 0.09 0.18 0.15 0.08 0.08 0.02 0.00 0.00 0.02 0.07 0.09 0.14 0.17 0.22 0.17 0.15 0.18 0.13 0.09 0.01 0.01 0.00 0.00 0.00 0.01 0.02 0.01 0.01 0.02 0.04 0.23 0.03 0.00 0.00 0.01 0.02 0.00
0.05 0.03 0.01 0.03 0.07 0.01 0.01 0.02 0.02 0.05 0.05 0.05 0.10 0.16 0.08 0.11 0.12 0.11 0.08 0.05 0.05 0.03 0.03 0.02 0.02 0.01 0.09 0.09 0.07 0.09 0.11 0.15 0.13 0.09 0.09 0.04 0.08 0.01 0.00 0.00 0.00 0.00 0.00 0.00 0.00 0.00 0.00 0.04 0.01 0.01 0.02 0.01 0.01 0.00
0.06 0.01 0.00 0.00 0.00 0.00 0.00 0.00 0.01 0.07 0.11 0.09 0.12 0.13 0.09 0.06 0.09 0.02 0.01 0.01 0.01 0.03 0.02 0.04 0.09 0.06 0.05 0.04 0.04 0.05 0.05 0.09 0.17 0.27 0.24 0.04 0.10 0.02 0.00 0.00 0.00 0.00 0.00 0.00 0.00 0.00 0.00 0.00 0.00 0.01 0.00 0.00 0.00 0.00
0.04 0.01 0.01 0.03 0.02 0.00 0.00 0.00 0.03 0.09 0.17 0.15 0.12 0.11 0.07 0.10 0.01 0.02 0.05 0.19 0.17 0.31 0.32 0.22 0.20 0.14 0.11 0.03 0.05 0.14 0.08 0.04 0.06 0.09 0.07 0.16 0.07 0.00 0.00 0.00 0.00 0.00 0.01 0.01 0.00 0.00 0.00 0.00 0.00 0.00 0.00 0.00 0.00 0.00
0.05 0.03 0.02 0.02 0.01 0.00 0.00 0.01 0.05 0.18 0.27 0.21 0.23 0.26 0.07 0.19 0.14 0.09 0.08 0.06 0.08 0.29 0.62 0.52 0.43 0.37 0.24 0.07 0.05 0.02 0.08 0.05 0.01 0.05 0.18 0.07 0.00 0.01 0.02 0.02 0.01 0.00 0.00 0.00 0.00 0.00 0.00 0.00 0.00 0.00 0.00 0.00 0.00 0.00
0.03 0.03 0.03 0.03 0.01 0.01 0.02 0.05 0.14 0.42 0.51 0.35 0.22 0.15 0.08 0.06 0.08 0.04 0.01 0.01 0.10 0.62 0.66 0.40 0.31 0.33 0.15 0.03 0.03 0.01 0.00 0.03 0.16 0.13 0.06 0.00 0.00 0.00 0.01 0.00 0.00 0.00 0.00 0.00 0.00 0.00 0.00 0.00 0.00 0.00 0.00 0.00 0.00 0.00
0.02 0.06 0.02 0.01 0.01 0.01 0.04 0.22 0.40 0.35 0.21 0.13 0.06 0.03 0.03 0.04 0.07 0.12 0.07 0.06 0.12 0.45 0.51 0.28 0.15 0.12 0.15 0.09 0.05 0.04 0.07 0.10 0.04 0.00 0.00 0.00 0.00 0.00 0.00 0.00 0.00 0.00 0.00 0.00 0.00 0.00 0.00 0.00 0.00 0.00 0.00 0.01 0.00 0.01
0.11 0.18 0.10 0.05 0.02 0.04 0.11 0.19 0.27 0.20 0.07 0.00 0.01 0.02 0.01 0.01 0.02 0.03 0.06 0.09 0.13 0.28 0.35 0.32 0.10 0.08 0.10 0.08 0.10 0.12 0.07 0.01 0.00 0.00 0.00 0.00 0.00 0.00 0.00 0.00 0.00 0.00 0.00 0.00 0.00 0.00 0.00 0.01 0.01 0.00 0.00 0.01 0.01 0.01
0.12 0.25 0.37 0.24 0.10 0.29 0.40 0.33 0.16 0.13 0.02 0.01 0.01 0.01 0.03 0.03 0.01 0.02 0.04 0.04 0.09 0.10 0.12 0.19 0.14 0.05 0.04 0.07 0.12 0.04 0.01 0.02 0.02 0.00 0.00 0.00 0.00 0.01 0.01 0.00 0.00 0.00 0.00 0.00 0.00 0.00 0.00 0.00 0.00 0.00 0.00 0.00 0.00 0.01
0.08 0.05 0.09 0.27 0.30 0.31 0.36 0.26 0.12 0.05 0.03 0.04 0.02 0.01 0.02 0.02 0.03 0.03 0.01 0.00 0.02 0.07 0.06 0.03 0.03 0.09 0.16 0.16 0.08 0.07 0.05 0.02 0.00 0.00 0.02 0.02 0.02 0.01 0.01 0.01 0.00 0.00 0.00 0.00 0.00 0.01 0.00 0.01 0.00 0.00 0.00 0.00 0.00 0.01
0.00 0.01 0.01 0.13 0.46 0.43 0.20 0.26 0.16 0.05 0.02 0.02 0.03 0.02 0.03 0.04 0.04 0.04 0.03 0.03 0.04 0.03 0.01 0.00 0.03 0.06 0.04 0.01 0.00 0.01 0.01 0.00 0.00 0.00 0.01 0.01 0.02 0.02 0.03 0.04 0.02 0.01 0.01 0.01 0.01 0.01 0.01 0.01 0.00 0.00 0.00 0.01 0.00 0.00
0.05 0.02 0.02 0.06 0.26 0.47 0.19 0.04 0.12 0.15 0.05 0.05 0.07 0.06 0.08 0.09 0.05 0.04 0.05 0.04 0.01 0.00 0.00 0.00 0.02 0.03 0.01 0.01 0.00 0.00 0.00 0.00 0.00 0.00 0.00 0.00 0.01 0.04 0.05 0.04 0.02 0.02 0.01 0.00 0.00 0.01 0.00 0.00 0.00 0.00 0.01 0.01 0.01 0.01
0.02 0.05 0.09 0.03 0.04 0.08 0.04 0.02 0.04 0.03 0.06 0.06 0.07 0.07 0.05 0.07 0.06 0.07 0.04 0.01 0.00 0.00 0.00 0.01 0.00 0.00 0.00 0.00 0.00 0.00 0.00 0.00 0.00 0.00 0.00 0.00 0.00 0.00 0.01 0.01 0.01 0.01 0.01 0.01 0.00 0.00 0.00 0.00 0.01 0.02 0.02 0.02 0.03 0.03
0.05 0.09 0.09 0.14 0.05 0.02 0.00 0.00 0.01 0.03 0.04 0.03 0.04 0.02 0.02 0.04 0.03 0.02 0.01 0.00 0.04 0.01 0.00 0.00 0.00 0.00 0.00 0.00 0.00 0.00 0.00 0.00 0.00 0.00 0.00 0.00 0.01 0.01 0.00 0.01 0.01 0.01 0.00 0.01 0.01 0.01 0.01 0.02 0.02 0.03 0.04 0.04 0.04 0.03
0.10 0.09 0.09 0.16 0.06 0.05 0.02 0.01 0.01 0.01 0.01 0.01 0.02 0.01 0.02 0.03 0.03 0.01 0.00 0.02 0.05 0.01 0.00 0.00 0.00 0.00 0.01 0.01 0.02 0.02 0.00 0.00 0.00 0.01 0.01 0.01 0.02 0.06 0.06 0.04 0.03 0.02 0.03 0.06 0.07 0.04 0.02 0.03 0.04 0.04 0.04 0.03 0.03 0.02
0.08 0.05 0.02 0.06 0.07 0.03 0.04 0.01 0.02 0.01 0.01 0.02 0.03 0.03 0.03 0.06 0.03 0.00 0.01 0.04 0.02 0.00 0.00 0.00 0.02 0.01 0.01 0.01 0.01 0.02 0.01 0.00 0.01 0.01 0.01 0.01 0.01 0.03 0.06 0.06 0.05 0.03 0.02 0.02 0.02 0.05 0.05 0.04 0.03 0.03 0.04 0.04 0.04 0.03
0.21 0.11 0.04 0.01 0.03 0.03 0.03 0.03 0.02 0.02 0.02 0.02 0.03 0.05 0.05 0.02 0.01 0.01 0.04 0.04 0.03 0.01 0.00 0.00 0.00 0.00 0.00 0.00 0.00 0.00 0.00 0.00 0.00 0.00 0.00 0.00 0.00 0.01 0.04 0.07 0.06 0.03 0.01 0.00 0.01 0.01 0.03 0.04 0.04 0.03 0.02 0.03 0.03 0.02
0.30 0.15 0.10 0.04 0.01 0.02 0.05 0.06 0.07 0.05 0.04 0.03 0.04 0.05 0.05 0.03 0.06 0.10 0.09 0.05 0.03 0.01 0.00 0.00 0.00 0.00 0.00 0.00 0.00 0.00 0.00 0.00 0.00 0.00 0.01 0.01 0.01 0.01 0.01 0.01 0.01 0.00 0.01 0.00 0.00 0.00 0.01 0.03 0.04 0.05 0.05 0.03 0.02 0.02
0.30 0.16 0.09 0.07 0.07 0.09 0.05 0.04 0.04 0.06 0.04 0.05 0.07 0.10 0.13 0.10 0.14 0.19 0.09 0.02 0.00 0.00 0.00 0.00 0.00 0.00 0.00 0.00 0.00 0.00 0.01 0.01 0.02 0.04 0.03 0.03 0.05 0.04 0.05 0.04 0.00 0.00 0.00 0.01 0.02 0.01 0.02 0.04 0.05 0.05 0.05 0.05 0.04 0.04
0.11 0.14 0.17 0.11 0.12 0.18 0.26 0.20 0.20 0.11 0.03 0.03 0.05 0.07 0.15 0.21 0.20 0.12 0.05 0.02 0.01 0.01 0.00 0.00 0.00 0.00 0.01 0.01 0.01 0.02 0.03 0.03 0.04 0.07 0.06 0.05 0.05 0.03 0.01 0.00 0.00 0.00 0.00 0.01 0.01 0.05 0.09 0.07 0.07 0.09 0.11 0.13 0.15 0.14
0.17 0.24 0.29 0.21 0.23 0.25 0.16 0.07 0.05 0.04 0.03 0.02 0.02 0.05 0.18 0.25 0.16 0.09 0.08 0.04 0.01 0.01 0.01 0.01 0.01 0.01 0.01 0.02 0.02 0.03 0.04 0.04 0.04 0.04 0.07 0.05 0.04 0.03 0.02 0.01 0.00 0.01 0.01 0.01 0.01 0.02 0.04 0.06 0.07 0.05 0.04 0.04 0.04 0.06
0.11 0.18 0.22 0.20 0.13 0.10 0.05 0.02 0.04 0.06 0.06 0.04 0.04 0.03 0.06 0.13 0.16 0.10 0.10 0.03 0.01 0.01 0.01 0.01 0.01 0.02 0.02 0.03 0.03 0.04 0.06 0.04 0.02 0.02 0.03 0.03 0.02 0.02 0.02 0.02 0.03 0.03 0.04 0.05 0.04 0.03 0.03 0.03 0.04 0.04 0.04 0.04 0.04 0.04
0.05 0.15 0.16 0.06 0.03 0.01 0.00 0.03 0.09 0.08 0.11 0.16 0.22 0.18 0.18 0.26 0.20 0.20 0.13 0.09 0.05 0.03 0.02 0.02 0.03 0.03 0.02 0.04 0.05 0.03 0.03 0.02 0.01 0.01 0.01 0.01 0.01 0.02 0.03 0.03 0.04 0.07 0.09 0.10 0.09 0.08 0.07 0.06 0.05 0.03 0.02 0.02 0.01 0.03

GFSWCAN_prec_precacc24_162.txt.gz
Total_Precipitation_Accumulation
0.16 0.15 0.15 0.13 0.11 0.11 0.11 0.11 0.08 0.05 0.02 0.00 0.00 0.00 0.00 0.01 0.00 0.01 0.01 0.00 0.03 0.04 0.00 0.00 0.00 0.00 0.00 0.00 0.00 0.00 0.05 0.04 0.09 0.18 0.18 0.15 0.12 0.06 0.04 0.01 0.01 0.05 0.14 0.24 0.32 0.44 0.18 0.01 0.01 0.05 0.04 0.02 0.02 0.01
0.14 0.15 0.15 0.16 0.13 0.11 0.13 0.16 0.11 0.08 0.06 0.02 0.01 0.01 0.01 0.01 0.02 0.03 0.01 0.00 0.02 0.06 0.02 0.00 0.00 0.00 0.00 0.00 0.00 0.02 0.14 0.18 0.24 0.32 0.17 0.09 0.05 0.03 0.05 0.07 0.05 0.05 0.01 0.01 0.02 0.05 0.02 0.01 0.02 0.01 0.01 0.01 0.00 0.01
0.11 0.13 0.12 0.13 0.13 0.10 0.11 0.12 0.15 0.10 0.07 0.05 0.03 0.01 0.01 0.01 0.03 0.08 0.04 0.01 0.06 0.18 0.10 0.02 0.00 0.00 0.00 0.00 0.00 0.02 0.03 0.07 0.13 0.22 0.30 0.25 0.16 0.06 0.03 0.01 0.01 0.01 0.02 0.04 0.05 0.00 0.00 0.00 0.00 0.00 0.00 0.00 0.00 0.00
0.06 0.08 0.08 0.07 0.07 0.08 0.07 0.08 0.09 0.10 0.07 0.05 0.05 0.04 0.04 0.04 0.05 0.10 0.12 0.09 0.15 0.28 0.19 0.01 0.00 0.00 0.00 0.01 0.01 0.02 0.03 0.04 0.11 0.27 0.57 0.40 0.25 0.15 0.11 0.06 0.05 0.02 0.04 0.03 0.02 0.00 0.00 0.00 0.00 0.00 0.00 0.00 0.00 0.00
0.07 0.10 0.09 0.08 0.07 0.07 0.08 0.07 0.08 0.07 0.07 0.04 0.05 0.08 0.11 0.13 0.13 0.20 0.20 0.16 0.16 0.28 0.22 0.07 0.08 0.13 0.12 0.11 0.07 0.07 0.12 0.11 0.23 0.34 0.38 0.27 0.14 0.16 0.14 0.12 0.05 0.00 0.02 0.02 0.01 0.00 0.03 0.01 0.00 0.01 0.02 0.01 0.00 0.00
0.08 0.11 0.10 0.12 0.13 0.07 0.08 0.09 0.05 0.07 0.06 0.06 0.08 0.22 0.34 0.28 0.30 0.69 0.62 0.17 0.09 0.15 0.45 0.27 0.14 0.29 0.23 0.62 0.49 0.18 0.30 0.21 0.38 0.50 0.26 0.13 0.06 0.14 0.20 0.11 0.02 0.01 0.01 0.01 0.01 0.00 0.01 0.00 0.00 0.00 0.00 0.00 0.00 0.02
0.09 0.09 0.11 0.10 0.20 0.13 0.06 0.14 0.06 0.08 0.11 0.13 0.20 0.35 0.47 0.35 0.38 0.53 0.30 0.15 0.16 0.37 0.88 0.48 0.18 0.23 0.34 0.78 0.96 0.63 0.64 0.60 0.44 0.53 0.32 0.12 0.11 0.24 0.24 0.05 0.00 0.01 0.04 0.05 0.04 0.02 0.01 0.00 0.00 0.01 0.01 0.01 0.02 0.02
0.21 0.14 0.10 0.16 0.16 0.26 0.06 0.15 0.12 0.08 0.22 0.17 0.18 0.16 0.21 0.40 0.49 0.43 0.43 0.43 0.56 0.83 0.64 0.35 0.09 0.20 0.31 0.77 1.17 0.84 1.00 1.06 0.71 0.44 0.24 0.15 0.12 0.30 0.27 0.01 0.00 0.00 0.01 0.02 0.03 0.04 0.01 0.01 0.02 0.02 0.03 0.11 0.20 0.18
0.21 0.12 0.08 0.17 0.14 0.29 0.06 0.15 0.19 0.08 0.20 0.18 0.13 0.14 0.27 0.31 0.26 0.07 0.09 0.28 0.65 0.46 0.28 0.06 0.03 0.18 0.18 0.35 0.68 0.59 0.46 0.61 0.43 0.21 0.13 0.22 0.22 0.18 0.04 0.00 0.01 0.01 0.00 0.00 0.02 0.04 0.05 0.05 0.03 0.03 0.01 0.02 0.24 0.34
0.12 0.07 0.06 0.17 0.18 0.25 0.07 0.13 0.18 0.07 0.16 0.15 0.16 0.12 0.17 0.11 0.05 0.05 0.11 0.13 0.45 0.36 0.15 0.06 0.04 0.12 0.13 0.19 0.24 0.38 0.30 0.17 0.20 0.13 0.13 0.20 0.06 0.00 0.00 0.00 0.00 0.00 0.00 0.01 0.04 0.12 0.16 0.25 0.18 0.06 0.02 0.04 0.13 0.07
0.07 0.07 0.09 0.16 0.20 0.15 0.06 0.13 0.12 0.14 0.14 0.08 0.07 0.09 0.10 0.07 0.11 0.09 0.19 0.15 0.08 0.09 0.02 0.00 0.00 0.02 0.07 0.10 0.15 0.19 0.25 0.17 0.15 0.18 0.14 0.09 0.02 0.01 0.00 0.00 0.00 0.00 0.00 0.00 0.01 0.02 0.05 0.25 0.04 0.02 0.01 0.04 0.07 0.01
0.06 0.04 0.06 0.12 0.11 0.05 0.11 0.12 0.06 0.09 0.07 0.05 0.10 0.16 0.08 0.12 0.13 0.13 0.09 0.05 0.05 0.03 0.03 0.02 0.02 0.01 0.09 0.10 0.07 0.09 0.12 0.15 0.15 0.10 0.11 0.04 0.09 0.01 0.00 0.00 0.00 0.00 0.00 0.00 0.00 0.00 0.00 0.04 0.02 0.01 0.02 0.02 0.01 0.00
0.08 0.03 0.03 0.04 0.02 0.03 0.06 0.04 0.03 0.07 0.10 0.09 0.12 0.13 0.09 0.07 0.12 0.02 0.01 0.01 0.01 0.01 0.03 0.04 0.09 0.07 0.05 0.05 0.04 0.03 0.05 0.07 0.09 0.11 0.07 0.03 0.11 0.09 0.00 0.00 0.00 0.00 0.00 0.00 0.00 0.00 0.00 0.00 0.01 0.04 0.02 0.00 0.00 0.00
0.05 0.01 0.01 0.03 0.02 0.01 0.01 0.01 0.03 0.08 0.16 0.15 0.11 0.10 0.06 0.07 0.00 0.00 0.01 0.04 0.07 0.10 0.11 0.11 0.16 0.07 0.03 0.01 0.01 0.02 0.05 0.03 0.04 0.07 0.10 0.27 0.10 0.00 0.00 0.00 0.00 0.00 0.01 0.01 0.00 0.00 0.00 0.00 0.00 0.00 0.00 0.00 0.00 0.00
0.04 0.03 0.03 0.02 0.01 0.00 0.00 0.00 0.03 0.12 0.19 0.13 0.07 0.08 0.04 0.08 0.09 0.07 0.06 0.07 0.10 0.21 0.36 0.40 0.35 0.24 0.17 0.05 0.02 0.01 0.08 0.05 0.01 0.05 0.29 0.10 0.00 0.01 0.02 0.02 0.01 0.00 0.00 0.00 0.00 0.00 0.01 0.00 0.00 0.00 0.00 0.00 0.00 0.00
0.03 0.03 0.03 0.05 0.02 0.00 0.01 0.03 0.06 0.19 0.27 0.21 0.15 0.14 0.08 0.05 0.06 0.04 0.01 0.02 0.10 0.53 0.59 0.40 0.31 0.33 0.16 0.04 0.03 0.01 0.00 0.03 0.17 0.15 0.06 0.00 0.00 0.00 0.01 0.00 0.00 0.00 0.00 0.00 0.00 0.01 0.01 0.00 0.00 0.00 0.01 0.00 0.00 0.00
0.03 0.12 0.02 0.02 0.03 0.02 0.03 0.12 0.18 0.18 0.19 0.13 0.06 0.03 0.03 0.04 0.07 0.12 0.07 0.06 0.12 0.45 0.51 0.28 0.15 0.12 0.16 0.10 0.05 0.04 0.07 0.10 0.04 0.00 0.00 0.00 0.00 0.00 0.00 0.00 0.00 0.00 0.00 0.00 0.00 0.00 0.01 0.01 0.01 0.01 0.00 0.01 0.01 0.01
0.13 0.20 0.12 0.06 0.02 0.04 0.07 0.12 0.20 0.16 0.07 0.00 0.01 0.01 0.01 0.01 0.02 0.03 0.06 0.09 0.14 0.28 0.35 0.32 0.10 0.08 0.12 0.13 0.17 0.19 0.12 0.01 0.00 0.00 0.00 0.00 0.00 0.00 0.00 0.00 0.00 0.00 0.00 0.00 0.00 0.00 0.01 0.02 0.02 0.01 0.01 0.01 0.00 0.01
0.13 0.26 0.37 0.24 0.09 0.23 0.28 0.30 0.15 0.12 0.02 0.01 0.01 0.01 0.03 0.03 0.01 0.02 0.04 0.04 0.09 0.11 0.13 0.19 0.14 0.06 0.04 0.08 0.13 0.07 0.05 0.03 0.03 0.00 0.00 0.00 0.00 0.01 0.01 0.00 0.00 0.00 0.00 0.00 0.00 0.00 0.00 0.00 0.00 0.00 0.00 0.00 0.00 0.01
0.09 0.06 0.09 0.27 0.30 0.31 0.35 0.26 0.12 0.05 0.03 0.04 0.01 0.01 0.02 0.02 0.03 0.03 0.01 0.00 0.03 0.08 0.08 0.03 0.03 0.09 0.16 0.16 0.08 0.08 0.09 0.03 0.01 0.01 0.01 0.01 0.01 0.01 0.01 0.01 0.00 0.00 0.00 0.00 0.00 0.00 0.00 0.00 0.00 0.00 0.00 0.00 0.00 0.01
0.01 0.01 0.03 0.14 0.46 0.43 0.19 0.28 0.18 0.05 0.02 0.02 0.04 0.03 0.03 0.04 0.04 0.04 0.03 0.03 0.04 0.03 0.01 0.00 0.03 0.06 0.04 0.01 0.01 0.01 0.02 0.01 0.01 0.01 0.00 0.01 0.01 0.02 0.03 0.03 0.02 0.01 0.01 0.01 0.01 0.01 0.01 0.00 0.00 0.00 0.00 0.01 0.00 0.00
0.10 0.02 0.03 0.07 0.27 0.47 0.19 0.04 0.17 0.23 0.05 0.05 0.08 0.07 0.08 0.09 0.07 0.06 0.07 0.04 0.01 0.00 0.00 0.00 0.02 0.03 0.02 0.02 0.01 0.01 0.00 0.00 0.00 0.00 0.00 0.00 0.01 0.03 0.03 0.03 0.02 0.02 0.01 0.01 0.00 0.01 0.00 0.00 0.00 0.00 0.01 0.01 0.00 0.01
0.06 0.08 0.10 0.03 0.05 0.10 0.04 0.02 0.04 0.03 0.07 0.06 0.07 0.08 0.05 0.08 0.08 0.08 0.05 0.01 0.00 0.00 0.00 0.01 0.01 0.00 0.00 0.00 0.00 0.00 0.00 0.00 0.00 0.00 0.00 0.00 0.00 0.00 0.01 0.01 0.01 0.01 0.01 0.00 0.00 0.00 0.00 0.00 0.00 0.01 0.02 0.02 0.02 0.03
0.08 0.11 0.13 0.18 0.06 0.02 0.00 0.00 0.01 0.03 0.04 0.03 0.04 0.02 0.02 0.04 0.03 0.02 0.01 0.00 0.04 0.01 0.00 0.00 0.00 0.00 0.00 0.00 0.00 0.00 0.00 0.00 0.00 0.00 0.00 0.00 0.01 0.01 0.00 0.01 0.01 0.01 0.00 0.01 0.01 0.01 0.01 0.02 0.02 0.03 0.03 0.03 0.03 0.02
0.16 0.12 0.11 0.18 0.09 0.05 0.02 0.01 0.01 0.01 0.01 0.01 0.02 0.01 0.02 0.03 0.03 0.01 0.00 0.02 0.05 0.01 0.00 0.00 0.00 0.00 0.01 0.01 0.02 0.03 0.00 0.00 0.00 0.01 0.01 0.01 0.02 0.06 0.06 0.03 0.03 0.02 0.03 0.06 0.06 0.04 0.03 0.04 0.04 0.03 0.03 0.03 0.02 0.02
0.13 0.06 0.03 0.07 0.08 0.04 0.04 0.02 0.02 0.01 0.01 0.02 0.03 0.03 0.03 0.06 0.03 0.00 0.01 0.04 0.02 0.00 0.00 0.00 0.02 0.01 0.01 0.01 0.01 0.02 0.01 0.00 0.01 0.01 0.01 0.01 0.01 0.03 0.05 0.06 0.05 0.03 0.02 0.02 0.02 0.05 0.05 0.05 0.04 0.04 0.04 0.03 0.03 0.03
0.26 0.14 0.06 0.03 0.04 0.05 0.04 0.03 0.02 0.03 0.03 0.03 0.03 0.05 0.05 0.02 0.01 0.02 0.05 0.04 0.03 0.01 0.00 0.00 0.00 0.00 0.00 0.00 0.00 0.00 0.00 0.00 0.00 0.00 0.00 0.00 0.00 0.01 0.04 0.07 0.06 0.03 0.01 0.00 0.01 0.03 0.03 0.04 0.05 0.05 0.03 0.04 0.02 0.01
0.34 0.16 0.10 0.04 0.01 0.02 0.05 0.06 0.07 0.04 0.04 0.03 0.04 0.05 0.05 0.03 0.07 0.12 0.15 0.09 0.03 0.01 0.00 0.00 0.00 0.00 0.00 0.00 0.00 0.00 0.00 0.00 0.00 0.00 0.01 0.01 0.00 0.01 0.03 0.03 0.02 0.00 0.01 0.00 0.01 0.01 0.01 0.03 0.05 0.07 0.08 0.04 0.02 0.02
0.32 0.16 0.09 0.08 0.10 0.12 0.10 0.09 0.07 0.07 0.06 0.07 0.08 0.12 0.16 0.12 0.17 0.25 0.20 0.19 0.08 0.00 0.00 0.00 0.00 0.00 0.00 0.00 0.00 0.00 0.01 0.01 0.02 0.04 0.03 0.02 0.04 0.04 0.05 0.04 0.01 0.00 0.00 0.01 0.02 0.02 0.02 0.04 0.06 0.08 0.08 0.07 0.05 0.06
0.11 0.14 0.18 0.12 0.14 0.27 0.35 0.24 0.23 0.13 0.06 0.06 0.07 0.15 0.26 0.32 0.36 0.25 0.17 0.15 0.11 0.04 0.01 0.00 0.00 0.00 0.00 0.01 0.01 0.02 0.03 0.02 0.04 0.07 0.07 0.06 0.06 0.04 0.02 0.01 0.00 0.01 0.00 0.01 0.01 0.05 0.09 0.07 0.08 0.11 0.13 0.15 0.18 0.17
0.18 0.24 0.30 0.22 0.23 0.25 0.16 0.07 0.05 0.04 0.03 0.03 0.04 0.09 0.23 0.31 0.21 0.14 0.16 0.11 0.06 0.03 0.02 0.02 0.01 0.01 0.01 0.02 0.03 0.03 0.04 0.04 0.03 0.04 0.07 0.06 0.04 0.03 0.02 0.01 0.01 0.01 0.01 0.01 0.02 0.03 0.05 0.07 0.07 0.07 0.06 0.05 0.06 0.08
0.11 0.18 0.23 0.20 0.13 0.10 0.05 0.02 0.04 0.06 0.06 0.04 0.06 0.08 0.15 0.20 0.19 0.12 0.14 0.05 0.02 0.02 0.03 0.02 0.03 0.04 0.04 0.05 0.04 0.04 0.06 0.04 0.02 0.02 0.03 0.04 0.02 0.01 0.02 0.02 0.03 0.03 0.04 0.06 0.06 0.05 0.05 0.05 0.06 0.06 0.06 0.05 0.04 0.05
0.05 0.15 0.16 0.07 0.03 0.01 0.00 0.04 0.09 0.09 0.11 0.16 0.25 0.31 0.34 0.32 0.23 0.24 0.14 0.10 0.06 0.05 0.04 0.04 0.07 0.05 0.02 0.04 0.05 0.03 0.03 0.02 0.02 0.01 0.01 0.01 0.01 0.02 0.02 0.03 0.04 0.06 0.08 0.10 0.09 0.08 0.08 0.08 0.07 0.05 0.04 0.03 0.03 0.03

GFSWCAN_prec_precacc24_165.txt.gz
Total_Precipitation_Accumulation
0.14 0.12 0.12 0.10 0.08 0.07 0.08 0.09 0.06 0.04 0.02 0.00 0.00 0.00 0.00 0.00 0.00 0.00 0.00 0.00 0.02 0.02 0.01 0.00 0.00 0.00 0.00 0.00 0.00 0.00 0.01 0.01 0.02 0.07 0.06 0.05 0.05 0.05 0.04 0.01 0.01 0.05 0.14 0.24 0.31 0.42 0.17 0.01 0.01 0.04 0.04 0.02 0.02 0.01
0.12 0.12 0.12 0.13 0.10 0.08 0.10 0.14 0.09 0.06 0.05 0.02 0.01 0.00 0.00 0.00 0.00 0.01 0.00 0.00 0.01 0.03 0.01 0.00 0.00 0.00 0.00 0.00 0.00 0.00 0.00 0.00 0.02 0.06 0.07 0.07 0.04 0.03 0.05 0.07 0.05 0.05 0.01 0.01 0.02 0.05 0.02 0.01 0.02 0.01 0.01 0.01 0.00 0.01
0.09 0.09 0.08 0.10 0.11 0.09 0.10 0.12 0.15 0.10 0.06 0.05 0.03 0.01 0.01 0.00 0.01 0.04 0.02 0.00 0.04 0.11 0.05 0.00 0.00 0.00 0.00 0.00 0.00 0.00 0.00 0.00 0.00 0.00 0.10 0.19 0.16 0.06 0.03 0.01 0.01 0.01 0.02 0.04 0.05 0.00 0.00 0.00 0.00 0.00 0.00 0.00 0.00 0.00
0.06 0.07 0.07 0.06 0.07 0.09 0.07 0.08 0.09 0.10 0.07 0.05 0.05 0.04 0.04 0.03 0.03 0.07 0.07 0.03 0.06 0.15 0.11 0.01 0.00 0.00 0.00 0.00 0.00 0.00 0.00 0.00 0.00 0.04 0.26 0.30 0.24 0.15 0.11 0.06 0.05 0.02 0.04 0.03 0.02 0.00 0.00 0.00 0.00 0.00 0.00 0.00 0.00 0.00
0.07 0.10 0.09 0.08 0.07 0.08 0.08 0.07 0.08 0.07 0.07 0.04 0.05 0.05 0.05 0.03 0.04 0.11 0.12 0.08 0.05 0.16 0.15 0.02 0.00 0.00 0.01 0.01 0.00 0.00 0.00 0.01 0.04 0.16 0.21 0.16 0.13 0.16 0.14 0.12 0.05 0.00 0.02 0.02 0.01 0.00 0.03 0.01 0.00 0.01 0.02 0.01 0.00 0.00
0.08 0.13 0.11 0.12 0.13 0.08 0.09 0.09 0.05 0.07 0.06 0.05 0.02 0.03 0.06 0.12 0.21 0.51 0.44 0.14 0.07 0.13 0.39 0.22 0.01 0.01 0.06 0.16 0.16 0.07 0.02 0.04 0.16 0.33 0.23 0.13 0.06 0.13 0.20 0.11 0.02 0.01 0.01 0.01 0.01 0.00 0.01 0.00 0.00 0.00 0.00 0.00 0.00 0.02
0.09 0.11 0.13 0.11 0.21 0.13 0.06 0.14 0.06 0.08 0.09 0.04 0.07 0.12 0.20 0.25 0.31 0.47 0.23 0.12 0.13 0.26 0.67 0.31 0.04 0.10 0.28 0.54 0.55 0.33 0.28 0.39 0.35 0.51 0.32 0.12 0.11 0.24 0.24 0.05 0.00 0.01 0.04 0.05 0.04 0.02 0.01 0.00 0.00 0.01 0.01 0.01 0.02 0.02
0.22 0.21 0.14 0.19 0.16 0.27 0.06 0.15 0.12 0.08 0.17 0.09 0.16 0.15 0.18 0.35 0.37 0.29 0.28 0.29 0.46 0.70 0.52 0.26 0.05 0.16 0.31 0.76 1.10 0.74 0.90 1.02 0.71 0.44 0.24 0.15 0.12 0.30 0.27 0.01 0.00 0.00 0.01 0.02 0.03 0.04 0.01 0.01 0.02 0.02 0.03 0.11 0.20 0.18
0.27 0.19 0.11 0.24 0.17 0.29 0.06 0.16 0.20 0.08 0.18 0.17 0.13 0.14 0.27 0.30 0.25 0.07 0.09 0.28 0.64 0.45 0.28 0.06 0.03 0.17 0.18 0.35 0.68 0.59 0.46 0.61 0.43 0.21 0.13 0.22 0.22 0.18 0.04 0.00 0.01 0.01 0.00 0.00 0.01 0.03 0.04 0.04 0.02 0.02 0.01 0.02 0.24 0.34
0.13 0.07 0.06 0.21 0.21 0.25 0.08 0.14 0.19 0.08 0.16 0.15 0.16 0.12 0.17 0.11 0.05 0.05 0.11 0.13 0.45 0.36 0.15 0.06 0.04 0.12 0.13 0.19 0.24 0.38 0.30 0.17 0.20 0.13 0.13 0.20 0.06 0.00 0.00 0.00 0.00 0.00 0.00 0.00 0.03 0.07 0.11 0.22 0.17 0.06 0.02 0.04 0.13 0.07
0.07 0.07 0.10 0.17 0.24 0.20 0.07 0.15 0.15 0.15 0.14 0.08 0.07 0.10 0.10 0.07 0.11 0.09 0.19 0.15 0.08 0.09 0.02 0.00 0.00 0.02 0.07 0.10 0.15 0.19 0.25 0.17 0.16 0.18 0.14 0.09 0.02 0.01 0.00 0.00 0.00 0.00 0.00 0.00 0.00 0.00 0.04 0.25 0.04 0.03 0.10 0.13 0.08 0.01
0.08 0.09 0.14 0.15 0.21 0.14 0.16 0.14 0.08 0.10 0.07 0.05 0.10 0.16 0.08 0.12 0.13 0.13 0.09 0.05 0.05 0.03 0.03 0.02 0.02 0.01 0.09 0.10 0.07 0.09 0.12 0.15 0.15 0.13 0.13 0.04 0.09 0.01 0.00 0.00 0.00 0.00 0.00 0.00 0.00 0.00 0.00 0.04 0.02 0.02 0.04 0.02 0.02 0.01
0.11 0.06 0.05 0.07 0.15 0.14 0.10 0.07 0.05 0.09 0.11 0.09 0.12 0.13 0.09 0.07 0.12 0.02 0.01 0.01 0.01 0.01 0.04 0.05 0.09 0.07 0.05 0.06 0.04 0.03 0.05 0.08 0.12 0.10 0.05 0.02 0.12 0.11 0.00 0.00 0.00 0.00 0.00 0.00 0.00 0.00 0.00 0.00 0.01 0.04 0.03 0.01 0.01 0.00
0.05 0.01 0.01 0.05 0.06 0.08 0.06 0.03 0.04 0.08 0.16 0.15 0.11 0.10 0.06 0.07 0.00 0.00 0.01 0.03 0.05 0.06 0.07 0.08 0.15 0.07 0.04 0.03 0.01 0.02 0.03 0.02 0.04 0.03 0.11 0.28 0.10 0.00 0.00 0.00 0.00 0.00 0.00 0.00 0.00 0.00 0.00 0.00 0.00 0.00 0.01 0.00 0.00 0.00
0.04 0.03 0.03 0.02 0.02 0.02 0.02 0.01 0.02 0.11 0.19 0.13 0.06 0.04 0.02 0.02 0.02 0.03 0.04 0.07 0.11 0.09 0.11 0.18 0.23 0.15 0.14 0.05 0.01 0.01 0.03 0.04 0.01 0.06 0.38 0.11 0.00 0.00 0.01 0.02 0.01 0.00 0.00 0.00 0.00 0.00 0.01 0.00 0.01 0.01 0.00 0.00 0.00 0.00
0.03 0.03 0.03 0.05 0.02 0.00 0.01 0.03 0.05 0.14 0.21 0.11 0.03 0.03 0.05 0.04 0.03 0.03 0.01 0.02 0.09 0.24 0.28 0.24 0.26 0.28 0.14 0.04 0.03 0.01 0.00 0.03 0.18 0.16 0.06 0.00 0.00 0.00 0.01 0.00 0.00 0.00 0.00 0.00 0.00 0.01 0.01 0.01 0.02 0.02 0.02 0.01 0.00 0.00
0.03 0.12 0.03 0.03 0.04 0.02 0.02 0.11 0.14 0.09 0.10 0.05 0.03 0.03 0.03 0.04 0.07 0.12 0.07 0.06 0.12 0.40 0.50 0.28 0.15 0.12 0.18 0.11 0.05 0.04 0.07 0.11 0.04 0.00 0.00 0.00 0.00 0.00 0.00 0.00 0.00 0.00 0.00 0.00 0.01 0.01 0.02 0.02 0.02 0.01 0.01 0.02 0.01 0.01
0.13 0.20 0.12 0.06 0.02 0.03 0.06 0.10 0.16 0.10 0.05 0.00 0.01 0.01 0.01 0.01 0.02 0.03 0.06 0.09 0.14 0.28 0.36 0.32 0.10 0.08 0.14 0.28 0.31 0.27 0.21 0.06 0.00 0.00 0.00 0.00 0.00 0.00 0.01 0.00 0.00 0.00 0.00 0.01 0.01 0.00 0.01 0.03 0.03 0.03 0.04 0.04 0.02 0.01
0.13 0.26 0.38 0.24 0.09 0.19 0.22 0.20 0.12 0.10 0.02 0.01 0.01 0.01 0.03 0.03 0.01 0.02 0.04 0.04 0.09 0.12 0.16 0.19 0.14 0.06 0.04 0.08 0.13 0.07 0.05 0.04 0.03 0.00 0.00 0.00 0.00 0.01 0.01 0.01 0.00 0.00 0.00 0.00 0.00 0.00 0.00 0.01 0.01 0.01 0.01 0.02 0.02 0.02
0.09 0.06 0.09 0.27 0.30 0.31 0.31 0.24 0.12 0.05 0.03 0.04 0.01 0.01 0.02 0.02 0.03 0.03 0.01 0.00 0.03 0.10 0.10 0.03 0.03 0.09 0.16 0.16 0.08 0.08 0.09 0.03 0.01 0.01 0.01 0.00 0.00 0.00 0.01 0.01 0.00 0.00 0.00 0.00 0.00 0.00 0.00 0.01 0.00 0.00 0.00 0.00 0.01 0.02
0.01 0.02 0.04 0.14 0.46 0.43 0.18 0.28 0.18 0.05 0.02 0.02 0.04 0.04 0.03 0.04 0.04 0.04 0.03 0.03 0.04 0.03 0.01 0.00 0.03 0.06 0.04 0.01 0.01 0.01 0.02 0.01 0.01 0.01 0.00 0.00 0.00 0.01 0.02 0.03 0.02 0.01 0.01 0.01 0.01 0.01 0.01 0.00 0.00 0.00 0.01 0.01 0.00 0.00
0.11 0.03 0.04 0.07 0.27 0.46 0.18 0.04 0.19 0.27 0.06 0.05 0.08 0.07 0.08 0.09 0.07 0.06 0.07 0.05 0.01 0.00 0.00 0.00 0.02 0.03 0.02 0.02 0.01 0.01 0.00 0.00 0.00 0.00 0.00 0.00 0.00 0.01 0.02 0.02 0.01 0.01 0.01 0.00 0.00 0.01 0.00 0.00 0.00 0.00 0.01 0.01 0.00 0.01
0.12 0.09 0.10 0.03 0.05 0.10 0.04 0.02 0.04 0.04 0.07 0.07 0.08 0.10 0.05 0.09 0.10 0.09 0.05 0.01 0.00 0.00 0.00 0.01 0.01 0.00 0.00 0.00 0.00 0.00 0.00 0.00 0.00 0.00 0.00 0.00 0.00 0.00 0.00 0.01 0.00 0.01 0.01 0.00 0.00 0.00 0.00 0.00 0.00 0.01 0.02 0.02 0.02 0.03
0.14 0.15 0.17 0.21 0.07 0.02 0.00 0.00 0.01 0.03 0.04 0.03 0.05 0.02 0.02 0.04 0.05 0.03 0.01 0.00 0.04 0.01 0.00 0.00 0.00 0.00 0.00 0.00 0.00 0.00 0.00 0.00 0.00 0.00 0.00 0.00 0.01 0.01 0.00 0.01 0.01 0.00 0.00 0.01 0.01 0.01 0.01 0.02 0.02 0.03 0.03 0.03 0.03 0.02
0.22 0.16 0.12 0.18 0.10 0.06 0.02 0.01 0.01 0.01 0.01 0.01 0.02 0.01 0.02 0.03 0.03 0.01 0.00 0.02 0.05 0.01 0.00 0.00 0.00 0.00 0.01 0.01 0.02 0.03 0.00 0.00 0.00 0.01 0.01 0.01 0.02 0.05 0.05 0.02 0.02 0.02 0.03 0.06 0.06 0.04 0.03 0.04 0.04 0.03 0.03 0.02 0.02 0.02
0.20 0.11 0.07 0.08 0.10 0.05 0.05 0.02 0.02 0.01 0.01 0.02 0.03 0.03 0.03 0.06 0.03 0.00 0.01 0.04 0.02 0.00 0.00 0.00 0.02 0.01 0.01 0.01 0.01 0.02 0.01 0.00 0.01 0.01 0.01 0.01 0.01 0.03 0.05 0.05 0.04 0.03 0.02 0.02 0.03 0.06 0.06 0.05 0.05 0.05 0.04 0.03 0.03 0.03
0.31 0.19 0.08 0.04 0.05 0.06 0.06 0.04 0.02 0.03 0.03 0.03 0.03 0.05 0.05 0.02 0.01 0.02 0.05 0.04 0.03 0.01 0.01 0.00 0.00 0.00 0.00 0.00 0.00 0.00 0.00 0.00 0.00 0.00 0.00 0.00 0.00 0.01 0.04 0.07 0.06 0.03 0.01 0.00 0.01 0.05 0.07 0.05 0.05 0.06 0.05 0.05 0.03 0.01
0.39 0.17 0.10 0.04 0.01 0.03 0.07 0.08 0.07 0.05 0.04 0.04 0.04 0.05 0.05 0.03 0.07 0.12 0.16 0.10 0.03 0.01 0.00 0.00 0.00 0.00 0.00 0.00 0.00 0.00 0.00 0.00 0.00 0.00 0.01 0.01 0.01 0.01 0.04 0.04 0.02 0.01 0.01 0.00 0.01 0.01 0.02 0.04 0.06 0.08 0.10 0.06 0.03 0.03
0.32 0.16 0.09 0.09 0.10 0.15 0.16 0.13 0.09 0.09 0.07 0.08 0.09 0.13 0.17 0.13 0.19 0.27 0.23 0.25 0.15 0.05 0.02 0.00 0.00 0.00 0.00 0.00 0.00 0.00 0.00 0.00 0.02 0.04 0.03 0.02 0.04 0.04 0.05 0.04 0.01 0.00 0.00 0.01 0.02 0.02 0.03 0.05 0.06 0.08 0.10 0.10 0.07 0.08
0.11 0.14 0.18 0.11 0.15 0.31 0.39 0.25 0.23 0.13 0.06 0.07 0.13 0.19 0.28 0.36 0.42 0.31 0.23 0.23 0.25 0.25 0.16 0.06 0.01 0.00 0.00 0.00 0.01 0.02 0.02 0.02 0.04 0.07 0.08 0.06 0.06 0.04 0.02 0.01 0.00 0.01 0.00 0.01 0.02 0.05 0.09 0.08 0.09 0.11 0.14 0.16 0.20 0.20
0.17 0.25 0.30 0.22 0.23 0.25 0.16 0.07 0.05 0.04 0.03 0.03 0.09 0.19 0.26 0.33 0.24 0.17 0.20 0.19 0.18 0.16 0.14 0.10 0.04 0.02 0.02 0.02 0.02 0.03 0.03 0.04 0.02 0.02 0.05 0.04 0.04 0.03 0.02 0.01 0.01 0.01 0.01 0.02 0.03 0.04 0.06 0.09 0.09 0.08 0.07 0.08 0.08 0.12
0.11 0.18 0.23 0.20 0.13 0.10 0.05 0.02 0.04 0.06 0.06 0.05 0.13 0.22 0.24 0.24 0.21 0.13 0.16 0.07 0.05 0.06 0.07 0.06 0.05 0.07 0.06 0.05 0.04 0.04 0.06 0.05 0.02 0.02 0.03 0.03 0.02 0.01 0.02 0.02 0.02 0.03 0.04 0.06 0.06 0.05 0.05 0.06 0.07 0.07 0.07 0.07 0.06 0.07
0.05 0.15 0.16 0.06 0.02 0.01 0.00 0.04 0.09 0.09 0.12 0.17 0.29 0.45 0.45 0.36 0.25 0.26 0.15 0.11 0.08 0.07 0.06 0.06 0.10 0.08 0.04 0.04 0.05 0.04 0.03 0.02 0.02 0.01 0.01 0.01 0.01 0.02 0.02 0.02 0.03 0.05 0.08 0.10 0.09 0.08 0.08 0.08 0.08 0.06 0.05 0.05 0.04 0.04

GFSWCAN_prec_precacc24_168.txt.gz
Total_Precipitation_Accumulation
0.10 0.08 0.09 0.07 0.05 0.05 0.05 0.06 0.05 0.03 0.02 0.00 0.00 0.01 0.01 0.03 0.04 0.04 0.04 0.03 0.04 0.11 0.21 0.14 0.05 0.04 0.08 0.07 0.07 0.13 0.09 0.10 0.12 0.10 0.08 0.04 0.01 0.00 0.00 0.00 0.01 0.04 0.13 0.24 0.32 0.42 0.17 0.01 0.01 0.04 0.04 0.02 0.02 0.01
0.09 0.08 0.08 0.09 0.06 0.04 0.05 0.10 0.07 0.04 0.03 0.01 0.01 0.00 0.00 0.00 0.00 0.01 0.00 0.00 0.01 0.03 0.08 0.06 0.04 0.03 0.03 0.03 0.02 0.02 0.02 0.01 0.01 0.03 0.02 0.01 0.01 0.02 0.01 0.01 0.03 0.05 0.01 0.01 0.02 0.05 0.02 0.01 0.02 0.01 0.01 0.01 0.00 0.01
0.06 0.06 0.05 0.06 0.07 0.06 0.06 0.09 0.11 0.06 0.03 0.03 0.02 0.01 0.00 0.00 0.00 0.02 0.01 0.00 0.02 0.06 0.03 0.01 0.02 0.00 0.00 0.00 0.00 0.01 0.00 0.00 0.00 0.00 0.02 0.02 0.01 0.01 0.02 0.01 0.00 0.01 0.02 0.04 0.05 0.00 0.00 0.00 0.00 0.00 0.00 0.00 0.00 0.00
0.06 0.06 0.05 0.04 0.06 0.07 0.06 0.07 0.08 0.09 0.06 0.04 0.05 0.04 0.04 0.03 0.03 0.05 0.05 0.02 0.03 0.07 0.04 0.00 0.00 0.00 0.00 0.00 0.00 0.00 0.00 0.00 0.00 0.01 0.03 0.02 0.01 0.02 0.05 0.06 0.05 0.02 0.04 0.03 0.02 0.00 0.00 0.00 0.00 0.00 0.00 0.00 0.00 0.00
0.08 0.10 0.07 0.08 0.07 0.07 0.08 0.07 0.08 0.07 0.07 0.04 0.05 0.05 0.05 0.02 0.02 0.06 0.06 0.04 0.02 0.05 0.06 0.02 0.00 0.00 0.00 0.00 0.00 0.00 0.00 0.00 0.02 0.08 0.07 0.04 0.01 0.02 0.03 0.10 0.04 0.00 0.02 0.02 0.01 0.00 0.03 0.01 0.00 0.01 0.02 0.01 0.00 0.00
0.10 0.13 0.11 0.12 0.13 0.08 0.09 0.09 0.05 0.07 0.06 0.05 0.02 0.02 0.02 0.02 0.03 0.13 0.12 0.05 0.01 0.02 0.19 0.11 0.00 0.00 0.00 0.00 0.00 0.00 0.00 0.02 0.08 0.15 0.07 0.03 0.01 0.07 0.12 0.05 0.01 0.01 0.01 0.01 0.01 0.00 0.01 0.00 0.00 0.00 0.00 0.00 0.00 0.02
0.10 0.13 0.14 0.12 0.21 0.13 0.06 0.14 0.06 0.08 0.09 0.04 0.03 0.04 0.04 0.04 0.20 0.34 0.15 0.09 0.12 0.21 0.45 0.20 0.02 0.02 0.04 0.15 0.19 0.16 0.14 0.22 0.19 0.23 0.12 0.03 0.04 0.20 0.23 0.05 0.00 0.01 0.04 0.05 0.04 0.02 0.01 0.00 0.00 0.01 0.01 0.01 0.02 0.02
0.22 0.24 0.16 0.20 0.17 0.27 0.06 0.15 0.12 0.08 0.17 0.07 0.03 0.05 0.08 0.18 0.24 0.16 0.08 0.11 0.39 0.61 0.40 0.18 0.02 0.11 0.18 0.51 0.68 0.51 0.64 0.69 0.46 0.26 0.11 0.07 0.10 0.30 0.27 0.01 0.00 0.00 0.01 0.02 0.03 0.04 0.01 0.01 0.02 0.02 0.03 0.11 0.20 0.18
0.28 0.24 0.16 0.29 0.19 0.30 0.07 0.16 0.20 0.08 0.17 0.11 0.07 0.11 0.23 0.24 0.19 0.06 0.06 0.20 0.56 0.39 0.23 0.05 0.03 0.15 0.14 0.31 0.58 0.45 0.33 0.40 0.29 0.15 0.11 0.21 0.22 0.18 0.04 0.00 0.01 0.01 0.00 0.00 0.01 0.03 0.04 0.03 0.01 0.01 0.00 0.02 0.24 0.34
0.16 0.08 0.11 0.33 0.25 0.26 0.08 0.15 0.19 0.08 0.14 0.13 0.15 0.12 0.17 0.11 0.05 0.05 0.10 0.13 0.40 0.31 0.14 0.06 0.04 0.12 0.13 0.19 0.24 0.38 0.30 0.15 0.19 0.12 0.13 0.20 0.06 0.00 0.00 0.00 0.00 0.00 0.00 0.00 0.03 0.07 0.11 0.21 0.16 0.05 0.02 0.04 0.13 0.07
0.06 0.07 0.11 0.26 0.29 0.21 0.09 0.16 0.15 0.15 0.14 0.08 0.07 0.10 0.10 0.08 0.11 0.09 0.19 0.15 0.08 0.09 0.02 0.00 0.00 0.02 0.07 0.10 0.15 0.19 0.25 0.17 0.16 0.18 0.14 0.09 0.02 0.01 0.00 0.00 0.00 0.00 0.00 0.00 0.00 0.00 0.04 0.24 0.04 0.03 0.10 0.14 0.08 0.01
0.09 0.11 0.15 0.18 0.23 0.17 0.18 0.16 0.08 0.10 0.07 0.05 0.10 0.16 0.08 0.12 0.13 0.13 0.09 0.05 0.05 0.03 0.03 0.02 0.02 0.01 0.09 0.10 0.07 0.09 0.12 0.15 0.15 0.13 0.13 0.04 0.09 0.01 0.00 0.00 0.00 0.00 0.00 0.00 0.00 0.00 0.00 0.04 0.02 0.02 0.04 0.02 0.02 0.01
0.13 0.09 0.08 0.21 0.28 0.20 0.12 0.08 0.05 0.09 0.10 0.09 0.12 0.13 0.09 0.07 0.12 0.02 0.01 0.01 0.01 0.01 0.04 0.04 0.09 0.07 0.06 0.06 0.04 0.03 0.05 0.08 0.13 0.12 0.05 0.02 0.12 0.12 0.00 0.00 0.00 0.00 0.00 0.00 0.00 0.00 0.00 0.00 0.01 0.04 0.03 0.01 0.01 0.00
0.06 0.03 0.14 0.27 0.18 0.15 0.10 0.04 0.03 0.07 0.16 0.15 0.11 0.10 0.06 0.07 0.00 0.00 0.01 0.03 0.05 0.06 0.07 0.05 0.11 0.07 0.05 0.03 0.02 0.02 0.03 0.03 0.05 0.03 0.11 0.28 0.10 0.00 0.00 0.00 0.00 0.00 0.00 0.00 0.00 0.00 0.00 0.00 0.00 0.00 0.01 0.00 0.00 0.00
0.05 0.04 0.05 0.05 0.03 0.03 0.02 0.01 0.03 0.11 0.19 0.13 0.06 0.04 0.01 0.02 0.02 0.02 0.03 0.08 0.10 0.08 0.05 0.09 0.15 0.13 0.13 0.06 0.01 0.01 0.03 0.03 0.01 0.07 0.39 0.11 0.00 0.00 0.01 0.01 0.01 0.00 0.00 0.00 0.00 0.00 0.01 0.01 0.01 0.01 0.00 0.00 0.00 0.00
0.03 0.03 0.04 0.06 0.02 0.00 0.01 0.03 0.06 0.14 0.21 0.11 0.03 0.01 0.02 0.02 0.03 0.01 0.01 0.02 0.05 0.09 0.12 0.13 0.18 0.23 0.12 0.04 0.04 0.01 0.00 0.03 0.18 0.16 0.06 0.00 0.00 0.00 0.01 0.00 0.00 0.00 0.00 0.00 0.00 0.01 0.02 0.01 0.03 0.04 0.03 0.01 0.00 0.00
0.03 0.12 0.03 0.03 0.04 0.02 0.01 0.10 0.14 0.09 0.09 0.02 0.01 0.01 0.03 0.04 0.07 0.12 0.07 0.06 0.11 0.20 0.31 0.24 0.15 0.12 0.20 0.13 0.07 0.04 0.07 0.11 0.05 0.00 0.00 0.00 0.00 0.00 0.00 0.00 0.01 0.00 0.00 0.00 0.01 0.01 0.02 0.02 0.02 0.02 0.02 0.02 0.01 0.01
0.13 0.20 0.12 0.06 0.01 0.01 0.04 0.10 0.16 0.09 0.03 0.00 0.01 0.01 0.01 0.01 0.02 0.03 0.06 0.09 0.13 0.25 0.34 0.32 0.10 0.08 0.16 0.42 0.36 0.29 0.22 0.12 0.01 0.00 0.00 0.00 0.00 0.00 0.01 0.00 0.00 0.00 0.00 0.01 0.01 0.01 0.01 0.03 0.04 0.04 0.05 0.05 0.04 0.03
0.13 0.26 0.38 0.23 0.08 0.14 0.19 0.17 0.11 0.09 0.02 0.01 0.01 0.01 0.03 0.03 0.01 0.02 0.04 0.04 0.09 0.12 0.21 0.22 0.14 0.06 0.04 0.09 0.13 0.07 0.05 0.04 0.03 0.00 0.00 0.00 0.00 0.01 0.01 0.01 0.00 0.00 0.00 0.00 0.00 0.00 0.01 0.02 0.01 0.01 0.01 0.02 0.03 0.03
0.09 0.06 0.10 0.26 0.30 0.29 0.29 0.20 0.09 0.04 0.03 0.04 0.01 0.01 0.02 0.02 0.03 0.03 0.01 0.00 0.03 0.10 0.13 0.04 0.03 0.09 0.16 0.16 0.08 0.08 0.09 0.03 0.01 0.01 0.01 0.00 0.00 0.00 0.00 0.00 0.00 0.00 0.00 0.00 0.00 0.00 0.01 0.01 0.00 0.00 0.00 0.00 0.01 0.02
0.01 0.02 0.04 0.14 0.45 0.43 0.18 0.26 0.17 0.05 0.02 0.02 0.04 0.05 0.04 0.04 0.04 0.04 0.03 0.03 0.04 0.03 0.01 0.00 0.03 0.06 0.04 0.01 0.01 0.01 0.02 0.01 0.01 0.01 0.00 0.00 0.00 0.00 0.01 0.02 0.02 0.01 0.01 0.01 0.01 0.01 0.01 0.00 0.00 0.00 0.01 0.01 0.00 0.00
0.12 0.03 0.05 0.07 0.27 0.46 0.17 0.04 0.20 0.27 0.06 0.05 0.08 0.08 0.08 0.10 0.07 0.06 0.07 0.06 0.01 0.00 0.00 0.00 0.02 0.03 0.02 0.02 0.01 0.01 0.00 0.00 0.00 0.00 0.00 0.00 0.00 0.00 0.01 0.01 0.01 0.01 0.01 0.00 0.00 0.01 0.00 0.00 0.00 0.00 0.01 0.02 0.01 0.02
0.14 0.10 0.10 0.03 0.05 0.10 0.04 0.02 0.05 0.04 0.07 0.07 0.08 0.11 0.05 0.09 0.11 0.10 0.05 0.01 0.00 0.00 0.00 0.01 0.01 0.00 0.00 0.00 0.00 0.00 0.00 0.00 0.00 0.00 0.00 0.00 0.00 0.00 0.00 0.00 0.00 0.01 0.01 0.00 0.00 0.00 0.00 0.00 0.01 0.02 0.02 0.02 0.02 0.03
0.21 0.24 0.21 0.24 0.07 0.02 0.00 0.00 0.01 0.03 0.04 0.03 0.05 0.02 0.02 0.04 0.05 0.04 0.01 0.00 0.04 0.01 0.00 0.00 0.00 0.00 0.00 0.00 0.00 0.00 0.00 0.00 0.00 0.00 0.00 0.00 0.01 0.01 0.00 0.00 0.00 0.00 0.00 0.01 0.00 0.00 0.01 0.02 0.03 0.04 0.03 0.02 0.03 0.02
0.27 0.18 0.13 0.19 0.11 0.06 0.02 0.01 0.01 0.01 0.01 0.01 0.02 0.01 0.02 0.03 0.02 0.01 0.00 0.02 0.05 0.01 0.00 0.00 0.00 0.00 0.01 0.01 0.02 0.03 0.00 0.00 0.00 0.01 0.01 0.01 0.02 0.03 0.04 0.02 0.01 0.01 0.03 0.04 0.04 0.03 0.03 0.04 0.03 0.02 0.02 0.02 0.02 0.01
0.27 0.16 0.11 0.09 0.11 0.06 0.05 0.02 0.02 0.01 0.01 0.02 0.03 0.03 0.03 0.06 0.03 0.00 0.01 0.04 0.02 0.00 0.00 0.00 0.02 0.01 0.01 0.01 0.01 0.02 0.01 0.00 0.01 0.01 0.01 0.01 0.01 0.03 0.04 0.05 0.03 0.01 0.02 0.02 0.03 0.07 0.08 0.06 0.05 0.04 0.04 0.03 0.03 0.02
0.33 0.22 0.09 0.04 0.05 0.07 0.07 0.04 0.03 0.04 0.04 0.03 0.03 0.05 0.06 0.02 0.01 0.02 0.05 0.04 0.03 0.01 0.01 0.00 0.00 0.00 0.00 0.00 0.00 0.00 0.00 0.00 0.00 0.00 0.00 0.00 0.00 0.01 0.04 0.06 0.06 0.04 0.01 0.00 0.01 0.04 0.07 0.06 0.06 0.05 0.04 0.05 0.03 0.02
0.40 0.17 0.10 0.04 0.01 0.03 0.09 0.10 0.10 0.07 0.06 0.06 0.07 0.06 0.06 0.03 0.07 0.12 0.16 0.10 0.03 0.01 0.01 0.00 0.00 0.00 0.00 0.00 0.00 0.00 0.00 0.00 0.00 0.00 0.00 0.01 0.01 0.01 0.04 0.04 0.03 0.01 0.01 0.00 0.01 0.01 0.02 0.04 0.06 0.09 0.11 0.06 0.03 0.03
0.32 0.16 0.09 0.09 0.12 0.19 0.20 0.16 0.12 0.12 0.08 0.09 0.11 0.14 0.18 0.13 0.19 0.28 0.24 0.26 0.16 0.06 0.03 0.02 0.02 0.01 0.00 0.00 0.00 0.00 0.00 0.00 0.02 0.03 0.02 0.03 0.05 0.04 0.05 0.04 0.01 0.00 0.00 0.01 0.02 0.02 0.03 0.05 0.06 0.08 0.10 0.10 0.07 0.09
0.11 0.13 0.17 0.12 0.15 0.32 0.41 0.25 0.23 0.13 0.06 0.07 0.14 0.20 0.29 0.36 0.42 0.32 0.24 0.24 0.27 0.27 0.20 0.12 0.08 0.05 0.02 0.01 0.01 0.02 0.02 0.01 0.02 0.05 0.07 0.06 0.06 0.04 0.02 0.01 0.00 0.01 0.01 0.01 0.02 0.05 0.09 0.08 0.09 0.11 0.14 0.16 0.20 0.20
0.17 0.24 0.30 0.22 0.23 0.25 0.16 0.07 0.05 0.04 0.03 0.03 0.09 0.21 0.27 0.34 0.26 0.18 0.21 0.21 0.20 0.20 0.18 0.17 0.16 0.15 0.12 0.08 0.03 0.02 0.03 0.04 0.02 0.02 0.04 0.04 0.04 0.03 0.02 0.01 0.01 0.02 0.02 0.02 0.04 0.05 0.07 0.09 0.10 0.09 0.08 0.08 0.10 0.14
0.11 0.18 0.23 0.20 0.13 0.10 0.05 0.02 0.04 0.06 0.06 0.05 0.14 0.29 0.33 0.31 0.24 0.15 0.17 0.09 0.07 0.08 0.12 0.14 0.15 0.18 0.15 0.10 0.05 0.05 0.06 0.05 0.03 0.02 0.03 0.02 0.01 0.01 0.02 0.02 0.02 0.03 0.04 0.06 0.06 0.05 0.06 0.07 0.07 0.08 0.08 0.07 0.08 0.09
0.03 0.14 0.15 0.05 0.02 0.01 0.00 0.04 0.09 0.09 0.12 0.17 0.31 0.51 0.52 0.40 0.30 0.29 0.17 0.14 0.11 0.09 0.09 0.09 0.15 0.14 0.08 0.07 0.07 0.05 0.04 0.02 0.02 0.01 0.01 0.01 0.01 0.01 0.01 0.02 0.02 0.04 0.07 0.09 0.09 0.09 0.09 0.09 0.08 0.06 0.05 0.05 0.04 0.04